Darstellungsparameter: Aktuell verwendete Einstellungen:
Skalierung der Graphiken ... ?
xyx+y,   Skalierungsfaktor:      Skalierung: Modus: x, Faktor: 1
Darstellungszeitraum ... ?
Vom - - bis: - -   Zeitraum: 09.03.2019 - 05.09.2019
Min/Max/Avg-Anzeige ... ?
Zeige MMA aktuell
Zeige MMA Monat
Zeige MMA alles
Zeige --A aktuell
Zeige --A Monat
Zeige --A alles
Keine MMA-Anzeige
MMA:
Minimum Maximum Average (ber die Originaldaten)
MMA-Basis: 23.02.2003 - 16.08.2019
Quicknavigation für Darstellung... ?
Tage:      1T, 2T, 3T, 5T -1T -2T -3T -5T +1T +2T +3T +5T
Wochen: 1W, 2W, 3W -1W -2W -3W +1W +2W +3W
Monate: 1M, 3M, 6M -1M -3M -6M +1M +3M +6M
Jahre:    1J, 3J, 5J, 10J -1J -3J -5J -10J +1J +3J +5J +10J
Nutze für die Darstellung ... ?
Originaldaten oder Mittelwerte auf ...
Stundenbasis Tagesbasis Wochenbasis
Monatsbasis Jahresbasis      Datenbasis: Original-Daten
Darstellen als:
Statistik (Auto) Statistik J:M      Darstellung:
Zur Graphik,    zurück zur Übersicht aller Sensoren.
 
Tabellarische Datenbersicht: ?
 
Sensor: Nr:Datum:Temp:Feuchte:Taupunkt:
Aussen-T/F 1 09-03-2019 00:00:00 8.4 C 77 % 4.61 C
2 09-03-2019 00:05:00 8.4 C 76 % 4.42 C
3 09-03-2019 00:10:00 8.4 C 77 % 4.61 C
4 09-03-2019 00:15:00 8.4 C 76 % 4.42 C
5 09-03-2019 00:20:00 8.5 C 76 % 4.52 C
6 09-03-2019 00:25:00 8.5 C 75 % 4.33 C
7 09-03-2019 00:30:00 8.6 C 75 % 4.43 C
8 09-03-2019 00:35:00 8.6 C 76 % 4.62 C
9 09-03-2019 00:40:00 8.7 C 75 % 4.52 C
10 09-03-2019 00:45:00 8.7 C 75 % 4.52 C
11 09-03-2019 00:50:00 8.8 C 74 % 4.43 C
12 09-03-2019 00:55:00 8.8 C 74 % 4.43 C
13 09-03-2019 01:00:00 8.9 C 74 % 4.53 C
14 09-03-2019 01:05:00 9 C 73 % 4.43 C
15 09-03-2019 01:10:00 9.1 C 73 % 4.52 C
16 09-03-2019 01:15:00 9.1 C 73 % 4.52 C
17 09-03-2019 01:20:00 9.1 C 74 % 4.72 C
18 09-03-2019 01:25:00 9.1 C 73 % 4.52 C
19 09-03-2019 01:30:00 9.2 C 72 % 4.42 C
20 09-03-2019 01:35:00 9.2 C 72 % 4.42 C
21 09-03-2019 01:40:00 9.3 C 72 % 4.52 C
22 09-03-2019 01:45:00 9.3 C 72 % 4.52 C
23 09-03-2019 01:50:00 9.3 C 72 % 4.52 C
24 09-03-2019 01:55:00 9.3 C 72 % 4.52 C
25 09-03-2019 02:00:00 9.3 C 73 % 4.72 C
Sensor: Nr:Datum:Temp:Feuchte:Taupunkt:
Aussen-T/F 26 09-03-2019 02:05:00 9.3 C 72 % 4.52 C
27 09-03-2019 02:10:00 9.3 C 72 % 4.52 C
28 09-03-2019 02:15:00 9.4 C 72 % 4.62 C
29 09-03-2019 02:20:00 9.4 C 73 % 4.81 C
30 09-03-2019 02:25:00 9.4 C 72 % 4.62 C
31 09-03-2019 02:30:00 9.4 C 72 % 4.62 C
32 09-03-2019 02:35:00 9.4 C 72 % 4.62 C
33 09-03-2019 02:40:00 9.4 C 73 % 4.81 C
34 09-03-2019 02:45:00 9.4 C 73 % 4.81 C
35 09-03-2019 02:50:00 9.4 C 72 % 4.62 C
36 09-03-2019 02:55:00 9.4 C 73 % 4.81 C
37 09-03-2019 03:00:00 9.3 C 73 % 4.72 C
38 09-03-2019 03:05:00 9.3 C 74 % 4.91 C
39 09-03-2019 03:10:00 9.3 C 74 % 4.91 C
40 09-03-2019 03:15:00 9.3 C 74 % 4.91 C
41 09-03-2019 03:20:00 9.2 C 74 % 4.81 C
42 09-03-2019 03:25:00 9.2 C 74 % 4.81 C
43 09-03-2019 03:30:00 9.2 C 76 % 5.2 C
44 09-03-2019 03:35:00 8.9 C 78 % 5.28 C
45 09-03-2019 03:40:00 8.8 C 79 % 5.36 C
46 09-03-2019 03:45:00 8.7 C 80 % 5.45 C
47 09-03-2019 03:50:00 8.6 C 80 % 5.35 C
48 09-03-2019 03:55:00 8.6 C 81 % 5.53 C
49 09-03-2019 04:00:00 8.4 C 82 % 5.51 C
50 09-03-2019 04:05:00 8.3 C 83 % 5.59 C
Sensor: Nr:Datum:Temp:Feuchte:Taupunkt:
Aussen-T/F 51 09-03-2019 04:10:00 8.2 C 84 % 5.66 C
52 09-03-2019 04:15:00 8.1 C 85 % 5.73 C
53 09-03-2019 04:20:00 7.9 C 85 % 5.54 C
54 09-03-2019 04:25:00 7.8 C 85 % 5.44 C
55 09-03-2019 04:30:00 7.8 C 85 % 5.44 C
56 09-03-2019 04:35:00 7.8 C 86 % 5.61 C
57 09-03-2019 04:40:00 7.8 C 86 % 5.61 C
58 09-03-2019 04:45:00 7.8 C 86 % 5.61 C
59 09-03-2019 04:50:00 7.8 C 86 % 5.61 C
60 09-03-2019 04:55:00 7.8 C 86 % 5.61 C
61 09-03-2019 05:00:00 7.8 C 86 % 5.61 C
62 09-03-2019 05:05:00 7.8 C 86 % 5.61 C
63 09-03-2019 05:10:00 7.8 C 87 % 5.78 C
64 09-03-2019 05:15:00 7.8 C 87 % 5.78 C
65 09-03-2019 05:20:00 7.8 C 87 % 5.78 C
66 09-03-2019 05:25:00 7.8 C 88 % 5.94 C
67 09-03-2019 05:30:00 7.8 C 88 % 5.94 C
68 09-03-2019 05:35:00 7.7 C 88 % 5.84 C
69 09-03-2019 05:40:00 7.7 C 88 % 5.84 C
70 09-03-2019 05:45:00 7.7 C 88 % 5.84 C
71 09-03-2019 05:50:00 7.8 C 88 % 5.94 C
72 09-03-2019 05:55:00 7.8 C 88 % 5.94 C
73 09-03-2019 06:00:00 7.8 C 88 % 5.94 C
74 09-03-2019 06:05:00 7.9 C 88 % 6.04 C
75 09-03-2019 06:10:00 8 C 88 % 6.14 C
Sensor: Nr:Datum:Temp:Feuchte:Taupunkt:
Aussen-T/F 76 09-03-2019 06:15:00 8 C 88 % 6.14 C
77 09-03-2019 06:20:00 8.1 C 88 % 6.24 C
78 09-03-2019 06:25:00 8.1 C 88 % 6.24 C
79 09-03-2019 06:30:00 8.1 C 88 % 6.24 C
80 09-03-2019 06:35:00 8.1 C 88 % 6.24 C
81 09-03-2019 06:40:00 8.2 C 88 % 6.33 C
82 09-03-2019 06:45:00 8.2 C 88 % 6.33 C
83 09-03-2019 06:50:00 8.2 C 88 % 6.33 C
84 09-03-2019 06:55:00 8.3 C 88 % 6.43 C
85 09-03-2019 07:00:00 8.3 C 88 % 6.43 C
86 09-03-2019 07:05:00 8.3 C 88 % 6.43 C
87 09-03-2019 07:10:00 8.4 C 88 % 6.53 C
88 09-03-2019 07:15:00 8.5 C 88 % 6.63 C
89 09-03-2019 07:20:00 8.6 C 88 % 6.73 C
90 09-03-2019 07:25:00 8.6 C 88 % 6.73 C
91 09-03-2019 07:30:00 8.7 C 87 % 6.66 C
92 09-03-2019 07:35:00 8.7 C 87 % 6.66 C
93 09-03-2019 07:40:00 8.8 C 87 % 6.76 C
94 09-03-2019 07:45:00 8.9 C 86 % 6.69 C
95 09-03-2019 07:50:00 8.9 C 86 % 6.69 C
96 09-03-2019 07:55:00 8.9 C 86 % 6.69 C
97 09-03-2019 08:00:00 8.9 C 86 % 6.69 C
98 09-03-2019 08:05:00 9 C 86 % 6.79 C
99 09-03-2019 08:10:00 9.2 C 86 % 6.98 C
100 09-03-2019 08:15:00 9.3 C 86 % 7.08 C
Sensor: Nr:Datum:Temp:Feuchte:Taupunkt:
Aussen-T/F 101 09-03-2019 08:20:00 9.3 C 85 % 6.91 C
102 09-03-2019 08:25:00 9.3 C 85 % 6.91 C
103 09-03-2019 08:30:00 9.4 C 85 % 7.01 C
104 09-03-2019 08:35:00 9.6 C 85 % 7.21 C
105 09-03-2019 08:40:00 9.7 C 85 % 7.3 C
106 09-03-2019 08:45:00 9.8 C 85 % 7.4 C
107 09-03-2019 08:50:00 9.9 C 85 % 7.5 C
108 09-03-2019 08:55:00 10 C 84 % 7.43 C
109 09-03-2019 09:00:00 10.1 C 84 % 7.52 C
110 09-03-2019 09:05:00 10.1 C 84 % 7.52 C
111 09-03-2019 09:10:00 10.1 C 84 % 7.52 C
112 09-03-2019 09:15:00 10.1 C 84 % 7.52 C
113 09-03-2019 09:20:00 10.1 C 84 % 7.52 C
114 09-03-2019 09:25:00 10.1 C 84 % 7.52 C
115 09-03-2019 09:30:00 10.1 C 84 % 7.52 C
116 09-03-2019 09:35:00 10.2 C 84 % 7.62 C
117 09-03-2019 09:40:00 10.2 C 83 % 7.45 C
118 09-03-2019 09:45:00 10.2 C 83 % 7.45 C
119 09-03-2019 09:50:00 10.3 C 83 % 7.54 C
120 09-03-2019 09:55:00 10.3 C 83 % 7.54 C
121 09-03-2019 10:00:00 10.3 C 83 % 7.54 C
122 09-03-2019 10:05:00 10.3 C 82 % 7.37 C
123 09-03-2019 10:10:00 10.3 C 82 % 7.37 C
124 09-03-2019 10:15:00 10.3 C 82 % 7.37 C
125 09-03-2019 10:20:00 10.4 C 82 % 7.46 C
Sensor: Nr:Datum:Temp:Feuchte:Taupunkt:
Aussen-T/F 126 09-03-2019 10:25:00 10.5 C 81 % 7.38 C
127 09-03-2019 10:30:00 10.6 C 81 % 7.48 C
128 09-03-2019 10:35:00 10.6 C 81 % 7.48 C
129 09-03-2019 10:40:00 10.7 C 80 % 7.4 C
130 09-03-2019 10:45:00 10.7 C 81 % 7.58 C
131 09-03-2019 10:50:00 10.7 C 81 % 7.58 C
132 09-03-2019 10:55:00 10.7 C 81 % 7.58 C
133 09-03-2019 11:00:00 10.7 C 81 % 7.58 C
134 09-03-2019 11:05:00 10.7 C 81 % 7.58 C
135 09-03-2019 11:10:00 10.7 C 80 % 7.4 C
136 09-03-2019 11:15:00 10.8 C 81 % 7.67 C
137 09-03-2019 11:20:00 10.8 C 80 % 7.49 C
138 09-03-2019 11:25:00 10.8 C 80 % 7.49 C
139 09-03-2019 11:30:00 10.9 C 80 % 7.59 C
140 09-03-2019 11:35:00 11 C 80 % 7.69 C
141 09-03-2019 11:40:00 11.1 C 79 % 7.6 C
142 09-03-2019 11:45:00 11.1 C 79 % 7.6 C
143 09-03-2019 11:50:00 11.2 C 79 % 7.7 C
144 09-03-2019 11:55:00 11.3 C 78 % 7.61 C
145 09-03-2019 12:00:00 11.4 C 78 % 7.71 C
146 09-03-2019 12:05:00 11.4 C 77 % 7.52 C
147 09-03-2019 12:10:00 11.5 C 78 % 7.8 C
148 09-03-2019 12:15:00 11.5 C 77 % 7.61 C
149 09-03-2019 12:20:00 11.5 C 77 % 7.61 C
150 09-03-2019 12:25:00 11.6 C 77 % 7.71 C
Sensor: Nr:Datum:Temp:Feuchte:Taupunkt:
Aussen-T/F 151 09-03-2019 12:30:00 11.7 C 77 % 7.81 C
152 09-03-2019 12:35:00 11.8 C 77 % 7.9 C
153 09-03-2019 12:40:00 11.9 C 76 % 7.81 C
154 09-03-2019 12:45:00 12.1 C 76 % 8 C
155 09-03-2019 12:50:00 12.1 C 75 % 7.81 C
156 09-03-2019 12:55:00 12.1 C 75 % 7.81 C
157 09-03-2019 13:00:00 12.1 C 76 % 8 C
158 09-03-2019 13:05:00 12.1 C 76 % 8 C
159 09-03-2019 13:10:00 12.2 C 76 % 8.1 C
160 09-03-2019 13:15:00 12.3 C 75 % 8 C
161 09-03-2019 13:20:00 12.4 C 75 % 8.1 C
162 09-03-2019 13:25:00 12.5 C 75 % 8.19 C
163 09-03-2019 13:30:00 12.6 C 74 % 8.09 C
164 09-03-2019 13:35:00 12.7 C 74 % 8.19 C
165 09-03-2019 13:40:00 12.7 C 74 % 8.19 C
166 09-03-2019 13:45:00 12.7 C 74 % 8.19 C
167 09-03-2019 13:50:00 12.9 C 73 % 8.18 C
168 09-03-2019 13:55:00 13.1 C 73 % 8.38 C
169 09-03-2019 14:00:00 13.3 C 72 % 8.36 C
170 09-03-2019 14:05:00 13.6 C 70 % 8.24 C
171 09-03-2019 14:10:00 13.6 C 70 % 8.24 C
172 09-03-2019 14:15:00 13.6 C 69 % 8.03 C
173 09-03-2019 14:20:00 13.7 C 70 % 8.33 C
174 09-03-2019 14:25:00 13.7 C 70 % 8.33 C
175 09-03-2019 14:30:00 13.6 C 68 % 7.81 C
Sensor: Nr:Datum:Temp:Feuchte:Taupunkt:
Aussen-T/F 176 09-03-2019 14:35:00 13.6 C 69 % 8.03 C
177 09-03-2019 14:40:00 13.6 C 69 % 8.03 C
178 09-03-2019 14:45:00 13.3 C 70 % 7.95 C
179 09-03-2019 14:50:00 13.2 C 70 % 7.86 C
180 09-03-2019 14:55:00 13 C 70 % 7.66 C
181 09-03-2019 15:00:00 12.9 C 71 % 7.78 C
182 09-03-2019 15:05:00 13 C 71 % 7.87 C
183 09-03-2019 15:10:00 13.1 C 70 % 7.76 C
184 09-03-2019 15:15:00 13.1 C 70 % 7.76 C
185 09-03-2019 15:20:00 13.1 C 69 % 7.55 C
186 09-03-2019 15:25:00 13.1 C 69 % 7.55 C
187 09-03-2019 15:30:00 13.2 C 69 % 7.64 C
188 09-03-2019 15:35:00 13.4 C 69 % 7.84 C
189 09-03-2019 15:40:00 13.7 C 68 % 7.91 C
190 09-03-2019 15:45:00 13.8 C 67 % 7.79 C
191 09-03-2019 15:50:00 13.7 C 66 % 7.47 C
192 09-03-2019 15:55:00 13.6 C 67 % 7.6 C
193 09-03-2019 16:00:00 13.7 C 67 % 7.69 C
194 09-03-2019 16:05:00 13.7 C 65 % 7.25 C
195 09-03-2019 16:10:00 13.6 C 65 % 7.15 C
196 09-03-2019 16:15:00 13.4 C 67 % 7.4 C
197 09-03-2019 16:20:00 13.3 C 67 % 7.31 C
198 09-03-2019 16:25:00 13.2 C 67 % 7.21 C
199 09-03-2019 16:30:00 13.3 C 66 % 7.09 C
200 09-03-2019 16:35:00 13.4 C 61 % 6.04 C
Sensor: Nr:Datum:Temp:Feuchte:Taupunkt:
Aussen-T/F 201 09-03-2019 16:40:00 13.3 C 59 % 5.47 C
202 09-03-2019 16:45:00 13.3 C 59 % 5.47 C
203 09-03-2019 16:50:00 13.2 C 59 % 5.37 C
204 09-03-2019 16:55:00 13.3 C 59 % 5.47 C
205 09-03-2019 17:00:00 13.3 C 59 % 5.47 C
206 09-03-2019 17:05:00 13.4 C 60 % 5.8 C
207 09-03-2019 17:10:00 13.5 C 60 % 5.9 C
208 09-03-2019 17:15:00 13.4 C 60 % 5.8 C
209 09-03-2019 17:20:00 13.2 C 60 % 5.61 C
210 09-03-2019 17:25:00 13.1 C 60 % 5.52 C
211 09-03-2019 17:30:00 13.1 C 61 % 5.76 C
212 09-03-2019 17:35:00 13.1 C 61 % 5.76 C
213 09-03-2019 17:40:00 12.9 C 62 % 5.8 C
214 09-03-2019 17:45:00 12.7 C 62 % 5.62 C
215 09-03-2019 17:50:00 12.6 C 61 % 5.29 C
216 09-03-2019 17:55:00 12.4 C 62 % 5.33 C
217 09-03-2019 18:00:00 12.3 C 63 % 5.47 C
218 09-03-2019 18:05:00 12.2 C 63 % 5.37 C
219 09-03-2019 18:10:00 12.1 C 63 % 5.28 C
220 09-03-2019 18:15:00 12 C 63 % 5.18 C
221 09-03-2019 18:20:00 11.9 C 63 % 5.09 C
222 09-03-2019 18:25:00 11.9 C 63 % 5.09 C
223 09-03-2019 18:30:00 11.8 C 63 % 5 C
224 09-03-2019 18:35:00 11.9 C 62 % 4.86 C
225 09-03-2019 18:40:00 12 C 62 % 4.96 C
Sensor: Nr:Datum:Temp:Feuchte:Taupunkt:
Aussen-T/F 226 09-03-2019 18:45:00 11.9 C 62 % 4.86 C
227 09-03-2019 18:50:00 12.1 C 62 % 5.05 C
228 09-03-2019 18:55:00 12.1 C 62 % 5.05 C
229 09-03-2019 19:00:00 12.1 C 63 % 5.28 C
230 09-03-2019 19:05:00 12 C 66 % 5.85 C
231 09-03-2019 19:10:00 11.4 C 69 % 5.92 C
232 09-03-2019 19:15:00 11.1 C 72 % 6.25 C
233 09-03-2019 19:20:00 10.8 C 73 % 6.16 C
234 09-03-2019 19:25:00 10.7 C 74 % 6.26 C
235 09-03-2019 19:30:00 10.4 C 77 % 6.55 C
236 09-03-2019 19:35:00 10.2 C 78 % 6.54 C
237 09-03-2019 19:40:00 9.9 C 79 % 6.43 C
238 09-03-2019 19:45:00 9.8 C 80 % 6.52 C
239 09-03-2019 19:50:00 9.8 C 80 % 6.52 C
240 09-03-2019 19:55:00 9.7 C 80 % 6.42 C
241 09-03-2019 20:00:00 9.7 C 80 % 6.42 C
242 09-03-2019 20:05:00 9.6 C 81 % 6.5 C
243 09-03-2019 20:10:00 9.6 C 81 % 6.5 C
244 09-03-2019 20:15:00 9.5 C 81 % 6.41 C
245 09-03-2019 20:20:00 9.5 C 82 % 6.59 C
246 09-03-2019 20:25:00 9.4 C 83 % 6.66 C
247 09-03-2019 20:30:00 9.4 C 83 % 6.66 C
248 09-03-2019 20:35:00 9.4 C 83 % 6.66 C
249 09-03-2019 20:40:00 9.4 C 83 % 6.66 C
250 09-03-2019 20:45:00 9.3 C 83 % 6.57 C
Sensor: Nr:Datum:Temp:Feuchte:Taupunkt:
Aussen-T/F 251 09-03-2019 20:50:00 9.3 C 83 % 6.57 C
252 09-03-2019 20:55:00 9.3 C 84 % 6.74 C
253 09-03-2019 21:00:00 9.3 C 84 % 6.74 C
254 09-03-2019 21:05:00 9.3 C 83 % 6.57 C
255 09-03-2019 21:10:00 9.7 C 76 % 5.68 C
256 09-03-2019 21:15:00 10.2 C 79 % 6.73 C
257 09-03-2019 21:20:00 10.2 C 80 % 6.91 C
258 09-03-2019 21:25:00 10 C 81 % 6.89 C
259 09-03-2019 21:30:00 9.8 C 82 % 6.88 C
260 09-03-2019 21:35:00 9.7 C 83 % 6.96 C
261 09-03-2019 21:40:00 9.6 C 84 % 7.03 C
262 09-03-2019 21:45:00 9.5 C 84 % 6.94 C
263 09-03-2019 21:50:00 9.4 C 85 % 7.01 C
264 09-03-2019 21:55:00 9.3 C 85 % 6.91 C
265 09-03-2019 22:00:00 9.3 C 85 % 6.91 C
266 09-03-2019 22:05:00 9.2 C 85 % 6.81 C
267 09-03-2019 22:10:00 9.2 C 85 % 6.81 C
268 09-03-2019 22:15:00 9.2 C 86 % 6.98 C
269 09-03-2019 22:20:00 9.2 C 86 % 6.98 C
270 09-03-2019 22:25:00 9.2 C 82 % 6.29 C
271 09-03-2019 22:30:00 9.4 C 79 % 5.95 C
272 09-03-2019 22:35:00 9.8 C 76 % 5.78 C
273 09-03-2019 22:40:00 10 C 75 % 5.78 C
274 09-03-2019 22:45:00 10.2 C 74 % 5.78 C
275 09-03-2019 22:50:00 10.3 C 74 % 5.88 C
Sensor: Nr:Datum:Temp:Feuchte:Taupunkt:
Aussen-T/F 276 09-03-2019 22:55:00 10.3 C 73 % 5.68 C
277 09-03-2019 23:00:00 10.4 C 73 % 5.78 C
278 09-03-2019 23:05:00 10.4 C 72 % 5.58 C
279 09-03-2019 23:10:00 10.4 C 72 % 5.58 C
280 09-03-2019 23:15:00 10.4 C 71 % 5.38 C
281 09-03-2019 23:20:00 10.3 C 71 % 5.28 C
282 09-03-2019 23:25:00 10.4 C 71 % 5.38 C
283 09-03-2019 23:30:00 10.4 C 71 % 5.38 C
284 09-03-2019 23:35:00 10.3 C 71 % 5.28 C
285 09-03-2019 23:40:00 10.3 C 71 % 5.28 C
286 09-03-2019 23:45:00 10.3 C 71 % 5.28 C
287 09-03-2019 23:50:00 10.3 C 71 % 5.28 C
288 09-03-2019 23:55:00 10.2 C 71 % 5.18 C
289 10-03-2019 00:00:00 10.2 C 71 % 5.18 C
290 10-03-2019 00:05:00 10.2 C 71 % 5.18 C
291 10-03-2019 00:10:00 10.2 C 70 % 4.98 C
292 10-03-2019 00:15:00 10.2 C 70 % 4.98 C
293 10-03-2019 00:20:00 10.2 C 69 % 4.78 C
294 10-03-2019 00:25:00 10.2 C 68 % 4.57 C
295 10-03-2019 00:30:00 10.2 C 69 % 4.78 C
296 10-03-2019 00:35:00 10.2 C 69 % 4.78 C
297 10-03-2019 00:40:00 10.1 C 69 % 4.68 C
298 10-03-2019 00:45:00 10 C 70 % 4.79 C
299 10-03-2019 00:50:00 9.9 C 70 % 4.69 C
300 10-03-2019 00:55:00 9.8 C 70 % 4.6 C
Sensor: Nr:Datum:Temp:Feuchte:Taupunkt:
Aussen-T/F 301 10-03-2019 01:00:00 9.8 C 70 % 4.6 C
302 10-03-2019 01:05:00 9.8 C 69 % 4.39 C
303 10-03-2019 01:10:00 9.8 C 69 % 4.39 C
304 10-03-2019 01:15:00 9.8 C 70 % 4.6 C
305 10-03-2019 01:20:00 9.7 C 69 % 4.3 C
306 10-03-2019 01:25:00 9.7 C 70 % 4.5 C
307 10-03-2019 01:30:00 9.7 C 70 % 4.5 C
308 10-03-2019 01:35:00 9.6 C 71 % 4.61 C
309 10-03-2019 01:40:00 9.6 C 71 % 4.61 C
310 10-03-2019 01:45:00 9.5 C 72 % 4.71 C
311 10-03-2019 01:50:00 9.5 C 72 % 4.71 C
312 10-03-2019 01:55:00 9.5 C 72 % 4.71 C
313 10-03-2019 02:00:00 9.5 C 73 % 4.91 C
314 10-03-2019 02:05:00 9.4 C 73 % 4.81 C
315 10-03-2019 02:10:00 9.4 C 73 % 4.81 C
316 10-03-2019 02:15:00 9.4 C 73 % 4.81 C
317 10-03-2019 02:20:00 9.4 C 74 % 5.01 C
318 10-03-2019 02:25:00 9.4 C 73 % 4.81 C
319 10-03-2019 02:30:00 9.4 C 74 % 5.01 C
320 10-03-2019 02:35:00 9.4 C 74 % 5.01 C
321 10-03-2019 02:40:00 9.4 C 74 % 5.01 C
322 10-03-2019 02:45:00 9.4 C 74 % 5.01 C
323 10-03-2019 02:50:00 9.4 C 74 % 5.01 C
324 10-03-2019 02:55:00 9.4 C 74 % 5.01 C
325 10-03-2019 03:00:00 9.4 C 75 % 5.2 C
Sensor: Nr:Datum:Temp:Feuchte:Taupunkt:
Aussen-T/F 326 10-03-2019 03:05:00 9.4 C 75 % 5.2 C
327 10-03-2019 03:10:00 9.3 C 75 % 5.1 C
328 10-03-2019 03:15:00 9.3 C 76 % 5.29 C
329 10-03-2019 03:20:00 9.3 C 76 % 5.29 C
330 10-03-2019 03:25:00 9.2 C 77 % 5.38 C
331 10-03-2019 03:30:00 9.2 C 77 % 5.38 C
332 10-03-2019 03:35:00 9.1 C 78 % 5.47 C
333 10-03-2019 03:40:00 8.9 C 79 % 5.46 C
334 10-03-2019 03:45:00 8.8 C 79 % 5.36 C
335 10-03-2019 03:50:00 8.7 C 80 % 5.45 C
336 10-03-2019 03:55:00 8.6 C 81 % 5.53 C
337 10-03-2019 04:00:00 8.5 C 81 % 5.43 C
338 10-03-2019 04:05:00 8.4 C 81 % 5.33 C
339 10-03-2019 04:10:00 8.4 C 82 % 5.51 C
340 10-03-2019 04:15:00 8.4 C 83 % 5.69 C
341 10-03-2019 04:20:00 8.4 C 84 % 5.86 C
342 10-03-2019 04:25:00 8.4 C 85 % 6.03 C
343 10-03-2019 04:30:00 8.4 C 86 % 6.2 C
344 10-03-2019 04:35:00 8.3 C 87 % 6.27 C
345 10-03-2019 04:40:00 8.3 C 87 % 6.27 C
346 10-03-2019 04:45:00 8.2 C 88 % 6.33 C
347 10-03-2019 04:50:00 8.1 C 88 % 6.24 C
348 10-03-2019 04:55:00 8.1 C 89 % 6.4 C
349 10-03-2019 05:00:00 8 C 89 % 6.3 C
350 10-03-2019 05:05:00 7.9 C 90 % 6.36 C
Sensor: Nr:Datum:Temp:Feuchte:Taupunkt:
Aussen-T/F 351 10-03-2019 05:10:00 7.9 C 90 % 6.36 C
352 10-03-2019 05:15:00 7.9 C 90 % 6.36 C
353 10-03-2019 05:20:00 7.9 C 90 % 6.36 C
354 10-03-2019 05:25:00 7.8 C 91 % 6.43 C
355 10-03-2019 05:30:00 7.8 C 91 % 6.43 C
356 10-03-2019 05:35:00 7.7 C 92 % 6.48 C
357 10-03-2019 05:40:00 7.7 C 92 % 6.48 C
358 10-03-2019 05:45:00 7.7 C 92 % 6.48 C
359 10-03-2019 05:50:00 7.7 C 92 % 6.48 C
360 10-03-2019 05:55:00 7.6 C 92 % 6.39 C
361 10-03-2019 06:00:00 7.6 C 93 % 6.54 C
362 10-03-2019 06:05:00 7.6 C 93 % 6.54 C
363 10-03-2019 06:10:00 7.6 C 93 % 6.54 C
364 10-03-2019 06:15:00 7.6 C 93 % 6.54 C
365 10-03-2019 06:20:00 7.5 C 93 % 6.44 C
366 10-03-2019 06:25:00 7.5 C 93 % 6.44 C
367 10-03-2019 06:30:00 7.4 C 94 % 6.5 C
368 10-03-2019 06:35:00 7.4 C 94 % 6.5 C
369 10-03-2019 06:40:00 7.4 C 94 % 6.5 C
370 10-03-2019 06:45:00 7.4 C 94 % 6.5 C
371 10-03-2019 06:50:00 7.4 C 94 % 6.5 C
372 10-03-2019 06:55:00 7.3 C 94 % 6.4 C
373 10-03-2019 07:00:00 7.3 C 94 % 6.4 C
374 10-03-2019 07:05:00 7.4 C 94 % 6.5 C
375 10-03-2019 07:10:00 7.4 C 95 % 6.65 C
Sensor: Nr:Datum:Temp:Feuchte:Taupunkt:
Aussen-T/F 376 10-03-2019 07:15:00 7.6 C 95 % 6.85 C
377 10-03-2019 07:20:00 7.6 C 95 % 6.85 C
378 10-03-2019 07:25:00 7.7 C 95 % 6.95 C
379 10-03-2019 07:30:00 7.7 C 95 % 6.95 C
380 10-03-2019 07:35:00 7.8 C 95 % 7.05 C
381 10-03-2019 07:40:00 7.8 C 95 % 7.05 C
382 10-03-2019 07:45:00 7.9 C 95 % 7.15 C
383 10-03-2019 07:50:00 7.9 C 95 % 7.15 C
384 10-03-2019 07:55:00 8 C 95 % 7.25 C
385 10-03-2019 08:00:00 8.1 C 95 % 7.35 C
386 10-03-2019 08:05:00 8.1 C 96 % 7.5 C
387 10-03-2019 08:10:00 8.2 C 96 % 7.6 C
388 10-03-2019 08:15:00 8.3 C 96 % 7.7 C
389 10-03-2019 08:20:00 8.4 C 96 % 7.8 C
390 10-03-2019 08:25:00 8.7 C 96 % 8.1 C
391 10-03-2019 08:30:00 8.9 C 96 % 8.3 C
392 10-03-2019 08:35:00 9.2 C 96 % 8.6 C
393 10-03-2019 08:40:00 9.4 C 96 % 8.8 C
394 10-03-2019 08:45:00 9.6 C 96 % 8.99 C
395 10-03-2019 08:50:00 9.7 C 96 % 9.09 C
396 10-03-2019 08:55:00 9.8 C 96 % 9.19 C
397 10-03-2019 09:00:00 9.9 C 96 % 9.29 C
398 10-03-2019 09:05:00 10.1 C 96 % 9.49 C
399 10-03-2019 09:10:00 10.2 C 95 % 9.44 C
400 10-03-2019 09:15:00 10.3 C 95 % 9.54 C
Sensor: Nr:Datum:Temp:Feuchte:Taupunkt:
Aussen-T/F 401 10-03-2019 09:20:00 10.4 C 95 % 9.63 C
402 10-03-2019 09:25:00 10.4 C 95 % 9.63 C
403 10-03-2019 09:30:00 10.6 C 95 % 9.83 C
404 10-03-2019 09:35:00 10.7 C 95 % 9.93 C
405 10-03-2019 09:40:00 10.8 C 95 % 10.03 C
406 10-03-2019 09:45:00 11.1 C 95 % 10.33 C
407 10-03-2019 09:50:00 11.2 C 95 % 10.43 C
408 10-03-2019 09:55:00 11.3 C 95 % 10.53 C
409 10-03-2019 10:00:00 11.4 C 94 % 10.47 C
410 10-03-2019 10:05:00 11.5 C 94 % 10.57 C
411 10-03-2019 10:10:00 11.6 C 94 % 10.67 C
412 10-03-2019 10:15:00 11.7 C 94 % 10.77 C
413 10-03-2019 10:20:00 11.8 C 94 % 10.87 C
414 10-03-2019 10:25:00 11.9 C 94 % 10.97 C
415 10-03-2019 10:30:00 12 C 94 % 11.07 C
416 10-03-2019 10:35:00 12.2 C 94 % 11.26 C
417 10-03-2019 10:40:00 12.2 C 93 % 11.1 C
418 10-03-2019 10:45:00 12.3 C 92 % 11.04 C
419 10-03-2019 10:50:00 12.4 C 92 % 11.14 C
420 10-03-2019 10:55:00 12.5 C 91 % 11.07 C
421 10-03-2019 11:00:00 12.6 C 90 % 11 C
422 10-03-2019 11:05:00 12.7 C 88 % 10.77 C
423 10-03-2019 11:10:00 12.8 C 85 % 10.34 C
424 10-03-2019 11:15:00 12.9 C 81 % 9.72 C
425 10-03-2019 11:20:00 13.2 C 79 % 9.64 C
Sensor: Nr:Datum:Temp:Feuchte:Taupunkt:
Aussen-T/F 426 10-03-2019 11:25:00 13.3 C 77 % 9.36 C
427 10-03-2019 11:30:00 13.3 C 75 % 8.97 C
428 10-03-2019 11:35:00 13.3 C 74 % 8.77 C
429 10-03-2019 11:40:00 13.3 C 74 % 8.77 C
430 10-03-2019 11:45:00 13.3 C 75 % 8.97 C
431 10-03-2019 11:50:00 13.4 C 74 % 8.87 C
432 10-03-2019 11:55:00 13.6 C 73 % 8.86 C
433 10-03-2019 12:00:00 13.7 C 75 % 9.35 C
434 10-03-2019 12:05:00 13.8 C 75 % 9.45 C
435 10-03-2019 12:10:00 13.9 C 73 % 9.15 C
436 10-03-2019 12:15:00 14.1 C 72 % 9.13 C
437 10-03-2019 12:20:00 14.1 C 71 % 8.93 C
438 10-03-2019 12:25:00 14.2 C 71 % 9.02 C
439 10-03-2019 12:30:00 14.3 C 71 % 9.12 C
440 10-03-2019 12:35:00 14.3 C 70 % 8.91 C
441 10-03-2019 12:40:00 14.3 C 72 % 9.33 C
442 10-03-2019 12:45:00 14.3 C 72 % 9.33 C
443 10-03-2019 12:50:00 14.3 C 73 % 9.53 C
444 10-03-2019 12:55:00 14.2 C 72 % 9.23 C
445 10-03-2019 13:00:00 14.1 C 72 % 9.13 C
446 10-03-2019 13:05:00 13.9 C 71 % 8.73 C
447 10-03-2019 13:10:00 13.9 C 69 % 8.31 C
448 10-03-2019 13:15:00 13.9 C 69 % 8.31 C
449 10-03-2019 13:20:00 14 C 69 % 8.41 C
450 10-03-2019 13:25:00 14.1 C 68 % 8.29 C
Sensor: Nr:Datum:Temp:Feuchte:Taupunkt:
Aussen-T/F 451 10-03-2019 13:30:00 14.2 C 68 % 8.39 C
452 10-03-2019 13:35:00 14.6 C 64 % 7.87 C
453 10-03-2019 13:40:00 14.9 C 59 % 6.97 C
454 10-03-2019 13:45:00 15.1 C 57 % 6.65 C
455 10-03-2019 13:50:00 15.1 C 56 % 6.4 C
456 10-03-2019 13:55:00 15 C 53 % 5.51 C
457 10-03-2019 14:00:00 14.9 C 52 % 5.14 C
458 10-03-2019 14:05:00 14.8 C 51 % 4.77 C
459 10-03-2019 14:10:00 14.8 C 52 % 5.05 C
460 10-03-2019 14:15:00 14.7 C 52 % 4.96 C
461 10-03-2019 14:20:00 14.6 C 53 % 5.14 C
462 10-03-2019 14:25:00 14.4 C 52 % 4.68 C
463 10-03-2019 14:30:00 14.3 C 52 % 4.59 C
464 10-03-2019 14:35:00 14.2 C 52 % 4.5 C
465 10-03-2019 14:40:00 14.2 C 52 % 4.5 C
466 10-03-2019 14:45:00 14.1 C 53 % 4.68 C
467 10-03-2019 14:50:00 14 C 51 % 4.04 C
468 10-03-2019 14:55:00 13.9 C 52 % 4.22 C
469 10-03-2019 15:00:00 13.9 C 52 % 4.22 C
470 10-03-2019 15:05:00 13.8 C 51 % 3.85 C
471 10-03-2019 15:10:00 13.7 C 52 % 4.03 C
472 10-03-2019 15:15:00 13.5 C 51 % 3.57 C
473 10-03-2019 15:20:00 13.4 C 50 % 3.2 C
474 10-03-2019 15:25:00 13.4 C 51 % 3.48 C
475 10-03-2019 15:30:00 13.4 C 48 % 2.63 C
Sensor: Nr:Datum:Temp:Feuchte:Taupunkt:
Aussen-T/F 476 10-03-2019 15:35:00 13.5 C 48 % 2.72 C
477 10-03-2019 15:40:00 13.6 C 50 % 3.39 C
478 10-03-2019 15:45:00 13.7 C 49 % 3.19 C
479 10-03-2019 15:50:00 13.5 C 51 % 3.57 C
480 10-03-2019 15:55:00 13.3 C 50 % 3.11 C
481 10-03-2019 16:00:00 13.2 C 50 % 3.02 C
482 10-03-2019 16:05:00 13 C 51 % 3.11 C
483 10-03-2019 16:10:00 12.8 C 51 % 2.93 C
484 10-03-2019 16:15:00 12.6 C 52 % 3.02 C
485 10-03-2019 16:20:00 12.5 C 51 % 2.65 C
486 10-03-2019 16:25:00 12.4 C 50 % 2.28 C
487 10-03-2019 16:30:00 12.4 C 50 % 2.28 C
488 10-03-2019 16:35:00 12.6 C 49 % 2.18 C
489 10-03-2019 16:40:00 12.4 C 48 % 1.71 C
490 10-03-2019 16:45:00 12.3 C 49 % 1.91 C
491 10-03-2019 16:50:00 12.2 C 50 % 2.1 C
492 10-03-2019 16:55:00 12 C 51 % 2.19 C
493 10-03-2019 17:00:00 11.9 C 51 % 2.1 C
494 10-03-2019 17:05:00 11.7 C 51 % 1.91 C
495 10-03-2019 17:10:00 11.6 C 51 % 1.82 C
496 10-03-2019 17:15:00 11.6 C 51 % 1.82 C
497 10-03-2019 17:20:00 11.4 C 59 % 3.68 C
498 10-03-2019 17:25:00 10.7 C 64 % 4.18 C
499 10-03-2019 17:30:00 9.9 C 69 % 4.49 C
500 10-03-2019 17:35:00 9.4 C 71 % 4.42 C
Sensor: Nr:Datum:Temp:Feuchte:Taupunkt:
Aussen-T/F 501 10-03-2019 17:40:00 9.2 C 71 % 4.22 C
502 10-03-2019 17:45:00 9.1 C 72 % 4.33 C
503 10-03-2019 17:50:00 9.1 C 73 % 4.52 C
504 10-03-2019 17:55:00 9 C 72 % 4.23 C
505 10-03-2019 18:00:00 9 C 72 % 4.23 C
506 10-03-2019 18:05:00 9.1 C 73 % 4.52 C
507 10-03-2019 18:10:00 8.7 C 76 % 4.71 C
508 10-03-2019 18:15:00 8 C 79 % 4.59 C
509 10-03-2019 18:20:00 7.7 C 81 % 4.65 C
510 10-03-2019 18:25:00 7.5 C 82 % 4.63 C
511 10-03-2019 18:30:00 7.3 C 83 % 4.61 C
512 10-03-2019 18:35:00 7.1 C 83 % 4.41 C
513 10-03-2019 18:40:00 7.1 C 84 % 4.58 C
514 10-03-2019 18:45:00 7 C 84 % 4.49 C
515 10-03-2019 18:50:00 6.9 C 83 % 4.22 C
516 10-03-2019 18:55:00 6.9 C 83 % 4.22 C
517 10-03-2019 19:00:00 6.9 C 81 % 3.87 C
518 10-03-2019 19:05:00 6.9 C 81 % 3.87 C
519 10-03-2019 19:10:00 6.8 C 81 % 3.77 C
520 10-03-2019 19:15:00 6.8 C 81 % 3.77 C
521 10-03-2019 19:20:00 6.8 C 81 % 3.77 C
522 10-03-2019 19:25:00 6.8 C 80 % 3.6 C
523 10-03-2019 19:30:00 6.8 C 79 % 3.42 C
524 10-03-2019 19:35:00 6.9 C 78 % 3.34 C
525 10-03-2019 19:40:00 7 C 77 % 3.25 C
Sensor: Nr:Datum:Temp:Feuchte:Taupunkt:
Aussen-T/F 526 10-03-2019 19:45:00 7.1 C 75 % 2.98 C
527 10-03-2019 19:50:00 7.2 C 75 % 3.07 C
528 10-03-2019 19:55:00 7.3 C 74 % 2.98 C
529 10-03-2019 20:00:00 7.3 C 73 % 2.79 C
530 10-03-2019 20:05:00 7.3 C 72 % 2.6 C
531 10-03-2019 20:10:00 7.2 C 73 % 2.69 C
532 10-03-2019 20:15:00 6.6 C 73 % 2.12 C
533 10-03-2019 20:20:00 6 C 74 % 1.73 C
534 10-03-2019 20:25:00 5.7 C 75 % 1.62 C
535 10-03-2019 20:30:00 5.6 C 76 % 1.71 C
536 10-03-2019 20:35:00 5.6 C 77 % 1.89 C
537 10-03-2019 20:40:00 5.4 C 77 % 1.7 C
538 10-03-2019 20:45:00 5.4 C 78 % 1.88 C
539 10-03-2019 20:50:00 5.4 C 78 % 1.88 C
540 10-03-2019 20:55:00 5.4 C 79 % 2.06 C
541 10-03-2019 21:00:00 5.3 C 79 % 1.96 C
542 10-03-2019 21:05:00 5.3 C 79 % 1.96 C
543 10-03-2019 21:10:00 5.2 C 79 % 1.86 C
544 10-03-2019 21:15:00 5.2 C 80 % 2.04 C
545 10-03-2019 21:20:00 5.2 C 80 % 2.04 C
546 10-03-2019 21:25:00 5.1 C 80 % 1.94 C
547 10-03-2019 21:30:00 5.1 C 80 % 1.94 C
548 10-03-2019 21:35:00 5.2 C 80 % 2.04 C
549 10-03-2019 21:40:00 5.3 C 79 % 1.96 C
550 10-03-2019 21:45:00 5.3 C 78 % 1.78 C
Sensor: Nr:Datum:Temp:Feuchte:Taupunkt:
Aussen-T/F 551 10-03-2019 21:50:00 5.2 C 78 % 1.69 C
552 10-03-2019 21:55:00 5.2 C 78 % 1.69 C
553 10-03-2019 22:00:00 5.1 C 78 % 1.59 C
554 10-03-2019 22:05:00 4.9 C 78 % 1.39 C
555 10-03-2019 22:10:00 4.9 C 79 % 1.57 C
556 10-03-2019 22:15:00 4.9 C 80 % 1.75 C
557 10-03-2019 22:20:00 5 C 80 % 1.84 C
558 10-03-2019 22:25:00 5.1 C 80 % 1.94 C
559 10-03-2019 22:30:00 5.2 C 80 % 2.04 C
560 10-03-2019 22:35:00 5.2 C 80 % 2.04 C
561 10-03-2019 22:40:00 5.2 C 81 % 2.21 C
562 10-03-2019 22:45:00 5.2 C 81 % 2.21 C
563 10-03-2019 22:50:00 5.1 C 81 % 2.12 C
564 10-03-2019 22:55:00 4.9 C 81 % 1.92 C
565 10-03-2019 23:00:00 4.9 C 81 % 1.92 C
566 10-03-2019 23:05:00 4.8 C 81 % 1.82 C
567 10-03-2019 23:10:00 4.8 C 81 % 1.82 C
568 10-03-2019 23:15:00 4.8 C 81 % 1.82 C
569 10-03-2019 23:20:00 4.9 C 81 % 1.92 C
570 10-03-2019 23:25:00 4.9 C 80 % 1.75 C
571 10-03-2019 23:30:00 5 C 80 % 1.84 C
572 10-03-2019 23:35:00 4.9 C 80 % 1.75 C
573 10-03-2019 23:40:00 4.9 C 80 % 1.75 C
574 10-03-2019 23:45:00 4.8 C 80 % 1.65 C
575 10-03-2019 23:50:00 4.8 C 80 % 1.65 C
Sensor: Nr:Datum:Temp:Feuchte:Taupunkt:
Aussen-T/F 576 10-03-2019 23:55:00 4.8 C 80 % 1.65 C
577 11-03-2019 00:00:00 4.7 C 80 % 1.55 C
578 11-03-2019 00:05:00 4.6 C 80 % 1.46 C
579 11-03-2019 00:10:00 4.5 C 80 % 1.36 C
580 11-03-2019 00:15:00 4.4 C 81 % 1.43 C
581 11-03-2019 00:20:00 4.3 C 81 % 1.34 C
582 11-03-2019 00:25:00 4.2 C 81 % 1.24 C
583 11-03-2019 00:30:00 4.2 C 81 % 1.24 C
584 11-03-2019 00:35:00 4.2 C 82 % 1.41 C
585 11-03-2019 00:40:00 4.2 C 82 % 1.41 C
586 11-03-2019 00:45:00 4.2 C 82 % 1.41 C
587 11-03-2019 00:50:00 4.3 C 82 % 1.51 C
588 11-03-2019 00:55:00 4.3 C 81 % 1.34 C
589 11-03-2019 01:00:00 4.3 C 81 % 1.34 C
590 11-03-2019 01:05:00 4.4 C 81 % 1.43 C
591 11-03-2019 01:10:00 4.4 C 80 % 1.26 C
592 11-03-2019 01:15:00 4.5 C 80 % 1.36 C
593 11-03-2019 01:20:00 4.5 C 80 % 1.36 C
594 11-03-2019 01:25:00 4.4 C 80 % 1.26 C
595 11-03-2019 01:30:00 4.3 C 80 % 1.16 C
596 11-03-2019 01:35:00 4.4 C 80 % 1.26 C
597 11-03-2019 01:40:00 4.5 C 79 % 1.18 C
598 11-03-2019 01:45:00 4.7 C 79 % 1.38 C
599 11-03-2019 01:50:00 4.8 C 78 % 1.3 C
600 11-03-2019 01:55:00 4.9 C 78 % 1.39 C
Sensor: Nr:Datum:Temp:Feuchte:Taupunkt:
Aussen-T/F 601 11-03-2019 02:00:00 5 C 78 % 1.49 C
602 11-03-2019 02:05:00 5.2 C 77 % 1.51 C
603 11-03-2019 02:10:00 5.4 C 77 % 1.7 C
604 11-03-2019 02:15:00 5.4 C 77 % 1.7 C
605 11-03-2019 02:20:00 5.3 C 78 % 1.78 C
606 11-03-2019 02:25:00 5.2 C 79 % 1.86 C
607 11-03-2019 02:30:00 5.1 C 80 % 1.94 C
608 11-03-2019 02:35:00 5 C 80 % 1.84 C
609 11-03-2019 02:40:00 4.9 C 80 % 1.75 C
610 11-03-2019 02:45:00 4.9 C 80 % 1.75 C
611 11-03-2019 02:50:00 4.9 C 80 % 1.75 C
612 11-03-2019 02:55:00 5 C 81 % 2.02 C
613 11-03-2019 03:00:00 5 C 81 % 2.02 C
614 11-03-2019 03:05:00 5 C 81 % 2.02 C
615 11-03-2019 03:10:00 5 C 82 % 2.19 C
616 11-03-2019 03:15:00 4.9 C 81 % 1.92 C
617 11-03-2019 03:20:00 4.3 C 83 % 1.67 C
618 11-03-2019 03:25:00 3.7 C 85 % 1.42 C
619 11-03-2019 03:30:00 3.3 C 86 % 1.19 C
620 11-03-2019 03:35:00 2.9 C 87 % 0.96 C
621 11-03-2019 03:40:00 2.6 C 88 % 0.82 C
622 11-03-2019 03:45:00 2.5 C 89 % 0.88 C
623 11-03-2019 03:50:00 2.4 C 90 % 0.93 C
624 11-03-2019 03:55:00 2.3 C 91 % 0.99 C
625 11-03-2019 04:00:00 2.3 C 91 % 0.99 C
Sensor: Nr:Datum:Temp:Feuchte:Taupunkt:
Aussen-T/F 626 11-03-2019 04:05:00 2.3 C 92 % 1.14 C
627 11-03-2019 04:10:00 2.3 C 92 % 1.14 C
628 11-03-2019 04:15:00 2.3 C 92 % 1.14 C
629 11-03-2019 04:20:00 2.3 C 93 % 1.29 C
630 11-03-2019 04:25:00 2.3 C 93 % 1.29 C
631 11-03-2019 04:30:00 2.4 C 93 % 1.39 C
632 11-03-2019 04:35:00 2.5 C 93 % 1.49 C
633 11-03-2019 04:40:00 2.5 C 93 % 1.49 C
634 11-03-2019 04:45:00 2.4 C 93 % 1.39 C
635 11-03-2019 04:50:00 2.4 C 93 % 1.39 C
636 11-03-2019 04:55:00 2.4 C 93 % 1.39 C
637 11-03-2019 05:00:00 2.4 C 94 % 1.54 C
638 11-03-2019 05:05:00 2.5 C 94 % 1.63 C
639 11-03-2019 05:10:00 2.4 C 93 % 1.39 C
640 11-03-2019 05:15:00 2.3 C 93 % 1.29 C
641 11-03-2019 05:20:00 2.2 C 93 % 1.19 C
642 11-03-2019 05:25:00 2.2 C 93 % 1.19 C
643 11-03-2019 05:30:00 2.2 C 93 % 1.19 C
644 11-03-2019 05:35:00 2.1 C 92 % 0.94 C
645 11-03-2019 05:40:00 2 C 92 % 0.84 C
646 11-03-2019 05:45:00 2 C 92 % 0.84 C
647 11-03-2019 05:50:00 2.1 C 92 % 0.94 C
648 11-03-2019 05:55:00 2.1 C 92 % 0.94 C
649 11-03-2019 06:00:00 2.2 C 92 % 1.04 C
650 11-03-2019 06:05:00 2.1 C 92 % 0.94 C
Sensor: Nr:Datum:Temp:Feuchte:Taupunkt:
Aussen-T/F 651 11-03-2019 06:10:00 1.9 C 92 % 0.74 C
652 11-03-2019 06:15:00 1.8 C 92 % 0.64 C
653 11-03-2019 06:20:00 1.8 C 92 % 0.64 C
654 11-03-2019 06:25:00 1.7 C 92 % 0.54 C
655 11-03-2019 06:30:00 1.7 C 93 % 0.69 C
656 11-03-2019 06:35:00 1.6 C 93 % 0.59 C
657 11-03-2019 06:40:00 1.6 C 93 % 0.59 C
658 11-03-2019 06:45:00 1.6 C 93 % 0.59 C
659 11-03-2019 06:50:00 1.5 C 93 % 0.49 C
660 11-03-2019 06:55:00 1.4 C 93 % 0.4 C
661 11-03-2019 07:00:00 1.4 C 93 % 0.4 C
662 11-03-2019 07:05:00 1.4 C 93 % 0.4 C
663 11-03-2019 07:10:00 1.4 C 94 % 0.54 C
664 11-03-2019 07:15:00 1.3 C 94 % 0.44 C
665 11-03-2019 07:20:00 1.3 C 94 % 0.44 C
666 11-03-2019 07:25:00 1.4 C 94 % 0.54 C
667 11-03-2019 07:30:00 1.4 C 94 % 0.54 C
668 11-03-2019 07:35:00 1.5 C 94 % 0.64 C
669 11-03-2019 07:40:00 1.7 C 95 % 0.99 C
670 11-03-2019 07:45:00 1.8 C 95 % 1.09 C
671 11-03-2019 07:50:00 1.8 C 95 % 1.09 C
672 11-03-2019 07:55:00 1.9 C 95 % 1.19 C
673 11-03-2019 08:00:00 1.9 C 95 % 1.19 C
674 11-03-2019 08:05:00 2 C 95 % 1.29 C
675 11-03-2019 08:10:00 2 C 95 % 1.29 C
Sensor: Nr:Datum:Temp:Feuchte:Taupunkt:
Aussen-T/F 676 11-03-2019 08:15:00 2 C 95 % 1.29 C
677 11-03-2019 08:20:00 2.1 C 95 % 1.38 C
678 11-03-2019 08:25:00 2.2 C 95 % 1.48 C
679 11-03-2019 08:30:00 2.3 C 95 % 1.58 C
680 11-03-2019 08:35:00 2.4 C 95 % 1.68 C
681 11-03-2019 08:40:00 2.5 C 95 % 1.78 C
682 11-03-2019 08:45:00 2.7 C 95 % 1.98 C
683 11-03-2019 08:50:00 2.8 C 95 % 2.08 C
684 11-03-2019 08:55:00 2.9 C 95 % 2.18 C
685 11-03-2019 09:00:00 3 C 94 % 2.13 C
686 11-03-2019 09:05:00 3 C 93 % 1.98 C
687 11-03-2019 09:10:00 3.2 C 91 % 1.88 C
688 11-03-2019 09:15:00 3.3 C 89 % 1.67 C
689 11-03-2019 09:20:00 3.4 C 89 % 1.76 C
690 11-03-2019 09:25:00 3.6 C 87 % 1.64 C
691 11-03-2019 09:30:00 3.7 C 86 % 1.58 C
692 11-03-2019 09:35:00 3.6 C 87 % 1.64 C
693 11-03-2019 09:40:00 3.4 C 88 % 1.61 C
694 11-03-2019 09:45:00 3.3 C 89 % 1.67 C
695 11-03-2019 09:50:00 3.3 C 90 % 1.82 C
696 11-03-2019 09:55:00 3.3 C 90 % 1.82 C
697 11-03-2019 10:00:00 3.4 C 91 % 2.07 C
698 11-03-2019 10:05:00 3.5 C 91 % 2.17 C
699 11-03-2019 10:10:00 3.6 C 91 % 2.27 C
700 11-03-2019 10:15:00 3.8 C 91 % 2.47 C
Sensor: Nr:Datum:Temp:Feuchte:Taupunkt:
Aussen-T/F 701 11-03-2019 10:20:00 3.9 C 91 % 2.57 C
702 11-03-2019 10:25:00 4.1 C 89 % 2.45 C
703 11-03-2019 10:30:00 4.1 C 88 % 2.3 C
704 11-03-2019 10:35:00 4.1 C 87 % 2.14 C
705 11-03-2019 10:40:00 4.2 C 86 % 2.07 C
706 11-03-2019 10:45:00 4.1 C 85 % 1.81 C
707 11-03-2019 10:50:00 4.1 C 85 % 1.81 C
708 11-03-2019 10:55:00 4.2 C 85 % 1.91 C
709 11-03-2019 11:00:00 4.3 C 86 % 2.17 C
710 11-03-2019 11:05:00 4.4 C 86 % 2.27 C
711 11-03-2019 11:10:00 4.6 C 85 % 2.3 C
712 11-03-2019 11:15:00 4.6 C 84 % 2.14 C
713 11-03-2019 11:20:00 4.6 C 83 % 1.97 C
714 11-03-2019 11:25:00 4.7 C 84 % 2.23 C
715 11-03-2019 11:30:00 4.9 C 83 % 2.26 C
716 11-03-2019 11:35:00 5.2 C 81 % 2.21 C
717 11-03-2019 11:40:00 5.3 C 79 % 1.96 C
718 11-03-2019 11:45:00 5.3 C 79 % 1.96 C
719 11-03-2019 11:50:00 5.3 C 79 % 1.96 C
720 11-03-2019 11:55:00 5.3 C 79 % 1.96 C
721 11-03-2019 12:00:00 5.3 C 79 % 1.96 C
722 11-03-2019 12:05:00 5.3 C 78 % 1.78 C
723 11-03-2019 12:10:00 5.3 C 77 % 1.6 C
724 11-03-2019 12:15:00 5.4 C 77 % 1.7 C
725 11-03-2019 12:20:00 5.5 C 76 % 1.62 C
Sensor: Nr:Datum:Temp:Feuchte:Taupunkt:
Aussen-T/F 726 11-03-2019 12:25:00 5.6 C 77 % 1.89 C
727 11-03-2019 12:30:00 5.6 C 76 % 1.71 C
728 11-03-2019 12:35:00 5.7 C 76 % 1.81 C
729 11-03-2019 12:40:00 5.8 C 75 % 1.72 C
730 11-03-2019 12:45:00 5.8 C 75 % 1.72 C
731 11-03-2019 12:50:00 5.9 C 76 % 2 C
732 11-03-2019 12:55:00 6.1 C 74 % 1.82 C
733 11-03-2019 13:00:00 6.1 C 73 % 1.63 C
734 11-03-2019 13:05:00 6.1 C 73 % 1.63 C
735 11-03-2019 13:10:00 6.1 C 72 % 1.44 C
736 11-03-2019 13:15:00 6.1 C 73 % 1.63 C
737 11-03-2019 13:20:00 6.1 C 73 % 1.63 C
738 11-03-2019 13:25:00 6.3 C 72 % 1.63 C
739 11-03-2019 13:30:00 6.3 C 72 % 1.63 C
740 11-03-2019 13:35:00 6.7 C 73 % 2.21 C
741 11-03-2019 13:40:00 7.2 C 71 % 2.3 C
742 11-03-2019 13:45:00 7.5 C 70 % 2.39 C
743 11-03-2019 13:50:00 7.4 C 69 % 2.1 C
744 11-03-2019 13:55:00 7 C 71 % 2.11 C
745 11-03-2019 14:00:00 6.8 C 72 % 2.12 C
746 11-03-2019 14:05:00 6.6 C 71 % 1.73 C
747 11-03-2019 14:10:00 6.7 C 73 % 2.21 C
748 11-03-2019 14:15:00 6.8 C 72 % 2.12 C
749 11-03-2019 14:20:00 6.8 C 72 % 2.12 C
750 11-03-2019 14:25:00 6.9 C 71 % 2.02 C
Sensor: Nr:Datum:Temp:Feuchte:Taupunkt:
Aussen-T/F 751 11-03-2019 14:30:00 7.1 C 71 % 2.21 C
752 11-03-2019 14:35:00 7.2 C 71 % 2.3 C
753 11-03-2019 14:40:00 7.4 C 67 % 1.69 C
754 11-03-2019 14:45:00 7.4 C 67 % 1.69 C
755 11-03-2019 14:50:00 7.4 C 68 % 1.89 C
756 11-03-2019 14:55:00 7.4 C 67 % 1.69 C
757 11-03-2019 15:00:00 7.4 C 67 % 1.69 C
758 11-03-2019 15:05:00 7.4 C 67 % 1.69 C
759 11-03-2019 15:10:00 7.5 C 67 % 1.78 C
760 11-03-2019 15:15:00 7.6 C 67 % 1.88 C
761 11-03-2019 15:20:00 7.5 C 66 % 1.57 C
762 11-03-2019 15:25:00 7.6 C 67 % 1.88 C
763 11-03-2019 15:30:00 7.8 C 67 % 2.07 C
764 11-03-2019 15:35:00 7.9 C 66 % 1.95 C
765 11-03-2019 15:40:00 7.8 C 66 % 1.86 C
766 11-03-2019 15:45:00 7.7 C 67 % 1.97 C
767 11-03-2019 15:50:00 7.7 C 67 % 1.97 C
768 11-03-2019 15:55:00 7.7 C 67 % 1.97 C
769 11-03-2019 16:00:00 7.5 C 67 % 1.78 C
770 11-03-2019 16:05:00 7.3 C 68 % 1.8 C
771 11-03-2019 16:10:00 7.3 C 68 % 1.8 C
772 11-03-2019 16:15:00 7.2 C 68 % 1.7 C
773 11-03-2019 16:20:00 7.2 C 68 % 1.7 C
774 11-03-2019 16:25:00 7.2 C 68 % 1.7 C
775 11-03-2019 16:30:00 7.3 C 68 % 1.8 C
Sensor: Nr:Datum:Temp:Feuchte:Taupunkt:
Aussen-T/F 776 11-03-2019 16:35:00 7.3 C 69 % 2 C
777 11-03-2019 16:40:00 7.3 C 68 % 1.8 C
778 11-03-2019 16:45:00 7.2 C 68 % 1.7 C
779 11-03-2019 16:50:00 7.2 C 68 % 1.7 C
780 11-03-2019 16:55:00 7.2 C 71 % 2.3 C
781 11-03-2019 17:00:00 7 C 71 % 2.11 C
782 11-03-2019 17:05:00 6.7 C 72 % 2.02 C
783 11-03-2019 17:10:00 6.6 C 73 % 2.12 C
784 11-03-2019 17:15:00 6.4 C 73 % 1.92 C
785 11-03-2019 17:20:00 6.6 C 75 % 2.49 C
786 11-03-2019 17:25:00 7 C 74 % 2.69 C
787 11-03-2019 17:30:00 7.3 C 70 % 2.2 C
788 11-03-2019 17:35:00 7.6 C 68 % 2.08 C
789 11-03-2019 17:40:00 7.7 C 66 % 1.76 C
790 11-03-2019 17:45:00 7.7 C 67 % 1.97 C
791 11-03-2019 17:50:00 7.7 C 67 % 1.97 C
792 11-03-2019 17:55:00 7.8 C 66 % 1.86 C
793 11-03-2019 18:00:00 7.8 C 66 % 1.86 C
794 11-03-2019 18:05:00 7.7 C 65 % 1.55 C
795 11-03-2019 18:10:00 7.7 C 66 % 1.76 C
796 11-03-2019 18:15:00 7.4 C 66 % 1.48 C
797 11-03-2019 18:20:00 7.1 C 67 % 1.4 C
798 11-03-2019 18:25:00 6.9 C 68 % 1.41 C
799 11-03-2019 18:30:00 6.7 C 70 % 1.63 C
800 11-03-2019 18:35:00 6.6 C 70 % 1.53 C
Sensor: Nr:Datum:Temp:Feuchte:Taupunkt:
Aussen-T/F 801 11-03-2019 18:40:00 6.4 C 71 % 1.54 C
802 11-03-2019 18:45:00 6.4 C 72 % 1.73 C
803 11-03-2019 18:50:00 6.3 C 71 % 1.44 C
804 11-03-2019 18:55:00 6.2 C 72 % 1.54 C
805 11-03-2019 19:00:00 6.1 C 72 % 1.44 C
806 11-03-2019 19:05:00 5.9 C 72 % 1.25 C
807 11-03-2019 19:10:00 5.9 C 72 % 1.25 C
808 11-03-2019 19:15:00 5.8 C 73 % 1.34 C
809 11-03-2019 19:20:00 5.8 C 73 % 1.34 C
810 11-03-2019 19:25:00 5.8 C 73 % 1.34 C
811 11-03-2019 19:30:00 5.8 C 73 % 1.34 C
812 11-03-2019 19:35:00 5.8 C 73 % 1.34 C
813 11-03-2019 19:40:00 5.8 C 72 % 1.15 C
814 11-03-2019 19:45:00 5.8 C 73 % 1.34 C
815 11-03-2019 19:50:00 5.8 C 73 % 1.34 C
816 11-03-2019 19:55:00 5.7 C 73 % 1.25 C
817 11-03-2019 20:00:00 5.7 C 73 % 1.25 C
818 11-03-2019 20:05:00 5.7 C 73 % 1.25 C
819 11-03-2019 20:10:00 5.7 C 73 % 1.25 C
820 11-03-2019 20:15:00 5.8 C 73 % 1.34 C
821 11-03-2019 20:20:00 5.7 C 73 % 1.25 C
822 11-03-2019 20:25:00 5.7 C 73 % 1.25 C
823 11-03-2019 20:30:00 5.7 C 73 % 1.25 C
824 11-03-2019 20:35:00 5.7 C 74 % 1.44 C
825 11-03-2019 20:40:00 5.7 C 74 % 1.44 C
Sensor: Nr:Datum:Temp:Feuchte:Taupunkt:
Aussen-T/F 826 11-03-2019 20:45:00 5.6 C 74 % 1.34 C
827 11-03-2019 20:50:00 5.6 C 74 % 1.34 C
828 11-03-2019 20:55:00 5.6 C 75 % 1.53 C
829 11-03-2019 21:00:00 5.5 C 75 % 1.43 C
830 11-03-2019 21:05:00 5.4 C 75 % 1.33 C
831 11-03-2019 21:10:00 5.3 C 76 % 1.42 C
832 11-03-2019 21:15:00 5.2 C 76 % 1.32 C
833 11-03-2019 21:20:00 5.2 C 76 % 1.32 C
834 11-03-2019 21:25:00 5.2 C 76 % 1.32 C
835 11-03-2019 21:30:00 5.2 C 75 % 1.14 C
836 11-03-2019 21:35:00 5.2 C 75 % 1.14 C
837 11-03-2019 21:40:00 5.2 C 74 % 0.95 C
838 11-03-2019 21:45:00 5.3 C 74 % 1.05 C
839 11-03-2019 21:50:00 5.3 C 74 % 1.05 C
840 11-03-2019 21:55:00 5.4 C 74 % 1.15 C
841 11-03-2019 22:00:00 5.4 C 74 % 1.15 C
842 11-03-2019 22:05:00 5.5 C 74 % 1.24 C
843 11-03-2019 22:10:00 5.5 C 74 % 1.24 C
844 11-03-2019 22:15:00 5.5 C 74 % 1.24 C
845 11-03-2019 22:20:00 5.5 C 74 % 1.24 C
846 11-03-2019 22:25:00 5.4 C 74 % 1.15 C
847 11-03-2019 22:30:00 5.3 C 74 % 1.05 C
848 11-03-2019 22:35:00 5.3 C 75 % 1.24 C
849 11-03-2019 22:40:00 5.2 C 75 % 1.14 C
850 11-03-2019 22:45:00 5.2 C 75 % 1.14 C
Sensor: Nr:Datum:Temp:Feuchte:Taupunkt:
Aussen-T/F 851 11-03-2019 22:50:00 5.2 C 75 % 1.14 C
852 11-03-2019 22:55:00 5.1 C 75 % 1.04 C
853 11-03-2019 23:00:00 5.1 C 75 % 1.04 C
854 11-03-2019 23:05:00 5 C 75 % 0.95 C
855 11-03-2019 23:10:00 4.9 C 75 % 0.85 C
856 11-03-2019 23:15:00 4.9 C 75 % 0.85 C
857 11-03-2019 23:20:00 4.8 C 75 % 0.75 C
858 11-03-2019 23:25:00 4.8 C 76 % 0.94 C
859 11-03-2019 23:30:00 4.8 C 76 % 0.94 C
860 11-03-2019 23:35:00 4.7 C 76 % 0.84 C
861 11-03-2019 23:40:00 4.6 C 77 % 0.92 C
862 11-03-2019 23:45:00 4.5 C 77 % 0.83 C
863 11-03-2019 23:50:00 4.5 C 77 % 0.83 C
864 11-03-2019 23:55:00 4.4 C 78 % 0.91 C
865 12-03-2019 00:00:00 4.5 C 78 % 1.01 C
866 12-03-2019 00:05:00 4.4 C 78 % 0.91 C
867 12-03-2019 00:10:00 4.4 C 79 % 1.09 C
868 12-03-2019 00:15:00 4.4 C 79 % 1.09 C
869 12-03-2019 00:20:00 4.3 C 79 % 0.99 C
870 12-03-2019 00:25:00 4.3 C 80 % 1.16 C
871 12-03-2019 00:30:00 4.2 C 80 % 1.07 C
872 12-03-2019 00:35:00 4.1 C 81 % 1.14 C
873 12-03-2019 00:40:00 4 C 81 % 1.04 C
874 12-03-2019 00:45:00 3.9 C 82 % 1.12 C
875 12-03-2019 00:50:00 3.9 C 82 % 1.12 C
Sensor: Nr:Datum:Temp:Feuchte:Taupunkt:
Aussen-T/F 876 12-03-2019 00:55:00 3.9 C 82 % 1.12 C
877 12-03-2019 01:00:00 3.8 C 82 % 1.02 C
878 12-03-2019 01:05:00 3.7 C 83 % 1.09 C
879 12-03-2019 01:10:00 3.6 C 82 % 0.82 C
880 12-03-2019 01:15:00 3.4 C 83 % 0.79 C
881 12-03-2019 01:20:00 3.3 C 84 % 0.86 C
882 12-03-2019 01:25:00 3.2 C 84 % 0.76 C
883 12-03-2019 01:30:00 3.1 C 85 % 0.83 C
884 12-03-2019 01:35:00 3.1 C 85 % 0.83 C
885 12-03-2019 01:40:00 3.1 C 85 % 0.83 C
886 12-03-2019 01:45:00 2.9 C 85 % 0.63 C
887 12-03-2019 01:50:00 2.8 C 85 % 0.54 C
888 12-03-2019 01:55:00 2.7 C 86 % 0.6 C
889 12-03-2019 02:00:00 2.7 C 86 % 0.6 C
890 12-03-2019 02:05:00 2.6 C 86 % 0.5 C
891 12-03-2019 02:10:00 2.4 C 86 % 0.3 C
892 12-03-2019 02:15:00 2.3 C 86 % 0.21 C
893 12-03-2019 02:20:00 2.2 C 86 % 0.11 C
894 12-03-2019 02:25:00 2.1 C 87 % 0.17 C
895 12-03-2019 02:30:00 2 C 87 % 0.07 C
896 12-03-2019 02:35:00 1.9 C 88 % 0.13 C
897 12-03-2019 02:40:00 1.9 C 88 % 0.13 C
898 12-03-2019 02:45:00 1.9 C 88 % 0.13 C
899 12-03-2019 02:50:00 2 C 88 % 0.23 C
900 12-03-2019 02:55:00 1.9 C 88 % 0.13 C
Sensor: Nr:Datum:Temp:Feuchte:Taupunkt:
Aussen-T/F 901 12-03-2019 03:00:00 1.9 C 88 % 0.13 C
902 12-03-2019 03:05:00 1.8 C 88 % 0.03 C
903 12-03-2019 03:10:00 1.7 C 89 % 0.09 C
904 12-03-2019 03:15:00 1.7 C 88 % -0.07 C
905 12-03-2019 03:20:00 1.7 C 89 % 0.09 C
906 12-03-2019 03:25:00 1.7 C 89 % 0.09 C
907 12-03-2019 03:30:00 1.6 C 89 % -0.01 C
908 12-03-2019 03:35:00 1.6 C 89 % -0.01 C
909 12-03-2019 03:40:00 1.5 C 89 % -0.11 C
910 12-03-2019 03:45:00 1.6 C 89 % -0.01 C
911 12-03-2019 03:50:00 1.6 C 89 % -0.01 C
912 12-03-2019 03:55:00 1.5 C 89 % -0.11 C
913 12-03-2019 04:00:00 1.5 C 89 % -0.11 C
914 12-03-2019 04:05:00 1.4 C 89 % -0.21 C
915 12-03-2019 04:10:00 1.4 C 89 % -0.21 C
916 12-03-2019 04:15:00 1.4 C 89 % -0.21 C
917 12-03-2019 04:20:00 1.4 C 90 % -0.06 C
918 12-03-2019 04:25:00 1.4 C 89 % -0.21 C
919 12-03-2019 04:30:00 1.3 C 89 % -0.31 C
920 12-03-2019 04:35:00 1.3 C 90 % -0.15 C
921 12-03-2019 04:40:00 1.2 C 89 % -0.41 C
922 12-03-2019 04:45:00 1.2 C 90 % -0.25 C
923 12-03-2019 04:50:00 1.2 C 90 % -0.25 C
924 12-03-2019 04:55:00 1.3 C 90 % -0.15 C
925 12-03-2019 05:00:00 1.3 C 90 % -0.15 C
Sensor: Nr:Datum:Temp:Feuchte:Taupunkt:
Aussen-T/F 926 12-03-2019 05:05:00 1.3 C 90 % -0.15 C
927 12-03-2019 05:10:00 1.4 C 90 % -0.06 C
928 12-03-2019 05:15:00 1.5 C 90 % 0.04 C
929 12-03-2019 05:20:00 1.6 C 90 % 0.14 C
930 12-03-2019 05:25:00 1.7 C 90 % 0.24 C
931 12-03-2019 05:30:00 1.7 C 90 % 0.24 C
932 12-03-2019 05:35:00 1.7 C 90 % 0.24 C
933 12-03-2019 05:40:00 1.8 C 90 % 0.34 C
934 12-03-2019 05:45:00 1.8 C 90 % 0.34 C
935 12-03-2019 05:50:00 1.8 C 90 % 0.34 C
936 12-03-2019 05:55:00 1.9 C 90 % 0.44 C
937 12-03-2019 06:00:00 1.9 C 90 % 0.44 C
938 12-03-2019 06:05:00 1.9 C 90 % 0.44 C
939 12-03-2019 06:10:00 1.9 C 90 % 0.44 C
940 12-03-2019 06:15:00 1.9 C 89 % 0.28 C
941 12-03-2019 06:20:00 1.8 C 89 % 0.19 C
942 12-03-2019 06:25:00 1.8 C 89 % 0.19 C
943 12-03-2019 06:30:00 1.8 C 89 % 0.19 C
944 12-03-2019 06:35:00 1.7 C 89 % 0.09 C
945 12-03-2019 06:40:00 1.7 C 90 % 0.24 C
946 12-03-2019 06:45:00 1.6 C 90 % 0.14 C
947 12-03-2019 06:50:00 1.6 C 90 % 0.14 C
948 12-03-2019 06:55:00 1.6 C 90 % 0.14 C
949 12-03-2019 07:00:00 1.7 C 90 % 0.24 C
950 12-03-2019 07:05:00 1.7 C 91 % 0.39 C
Sensor: Nr:Datum:Temp:Feuchte:Taupunkt:
Aussen-T/F 951 12-03-2019 07:10:00 1.7 C 91 % 0.39 C
952 12-03-2019 07:15:00 1.8 C 90 % 0.34 C
953 12-03-2019 07:20:00 1.8 C 90 % 0.34 C
954 12-03-2019 07:25:00 1.8 C 91 % 0.49 C
955 12-03-2019 07:30:00 1.8 C 91 % 0.49 C
956 12-03-2019 07:35:00 1.9 C 91 % 0.59 C
957 12-03-2019 07:40:00 2.1 C 91 % 0.79 C
958 12-03-2019 07:45:00 2.2 C 91 % 0.89 C
959 12-03-2019 07:50:00 2.3 C 91 % 0.99 C
960 12-03-2019 07:55:00 2.4 C 91 % 1.08 C
961 12-03-2019 08:00:00 2.6 C 91 % 1.28 C
962 12-03-2019 08:05:00 2.7 C 90 % 1.23 C
963 12-03-2019 08:10:00 2.7 C 90 % 1.23 C
964 12-03-2019 08:15:00 2.8 C 90 % 1.33 C
965 12-03-2019 08:20:00 2.9 C 90 % 1.43 C
966 12-03-2019 08:25:00 3.1 C 90 % 1.62 C
967 12-03-2019 08:30:00 3.2 C 90 % 1.72 C
968 12-03-2019 08:35:00 3.4 C 89 % 1.76 C
969 12-03-2019 08:40:00 3.6 C 88 % 1.8 C
970 12-03-2019 08:45:00 3.8 C 87 % 1.84 C
971 12-03-2019 08:50:00 4 C 86 % 1.88 C
972 12-03-2019 08:55:00 4.2 C 86 % 2.07 C
973 12-03-2019 09:00:00 4.4 C 85 % 2.11 C
974 12-03-2019 09:05:00 4.6 C 85 % 2.3 C
975 12-03-2019 09:10:00 4.7 C 84 % 2.23 C
Sensor: Nr:Datum:Temp:Feuchte:Taupunkt:
Aussen-T/F 976 12-03-2019 09:15:00 4.8 C 84 % 2.33 C
977 12-03-2019 09:20:00 4.9 C 84 % 2.43 C
978 12-03-2019 09:25:00 5.1 C 83 % 2.46 C
979 12-03-2019 09:30:00 5.2 C 83 % 2.56 C
980 12-03-2019 09:35:00 5.3 C 82 % 2.48 C
981 12-03-2019 09:40:00 5.6 C 81 % 2.6 C
982 12-03-2019 09:45:00 5.7 C 81 % 2.7 C
983 12-03-2019 09:50:00 6 C 79 % 2.64 C
984 12-03-2019 09:55:00 6.2 C 79 % 2.84 C
985 12-03-2019 10:00:00 6.4 C 77 % 2.67 C
986 12-03-2019 10:05:00 6.7 C 76 % 2.78 C
987 12-03-2019 10:10:00 6.9 C 76 % 2.97 C
988 12-03-2019 10:15:00 7.2 C 75 % 3.07 C
989 12-03-2019 10:20:00 7.3 C 74 % 2.98 C
990 12-03-2019 10:25:00 7.4 C 73 % 2.89 C
991 12-03-2019 10:30:00 7.4 C 72 % 2.69 C
992 12-03-2019 10:35:00 7.6 C 71 % 2.69 C
993 12-03-2019 10:40:00 7.7 C 69 % 2.38 C
994 12-03-2019 10:45:00 7.9 C 69 % 2.57 C
995 12-03-2019 10:50:00 8.1 C 69 % 2.77 C
996 12-03-2019 10:55:00 8.2 C 67 % 2.45 C
997 12-03-2019 11:00:00 8.2 C 66 % 2.24 C
998 12-03-2019 11:05:00 8.2 C 66 % 2.24 C
999 12-03-2019 11:10:00 8.3 C 66 % 2.33 C
1000 12-03-2019 11:15:00 8.4 C 65 % 2.21 C
Sensor: Nr:Datum:Temp:Feuchte:Taupunkt:
Aussen-T/F 1001 12-03-2019 11:20:00 8.6 C 65 % 2.4 C
1002 12-03-2019 11:25:00 8.8 C 64 % 2.38 C
1003 12-03-2019 11:30:00 9 C 63 % 2.35 C
1004 12-03-2019 11:35:00 9.1 C 63 % 2.44 C
1005 12-03-2019 11:40:00 9.2 C 61 % 2.08 C
1006 12-03-2019 11:45:00 9.2 C 61 % 2.08 C
1007 12-03-2019 11:50:00 9.2 C 62 % 2.31 C
1008 12-03-2019 11:55:00 9.2 C 61 % 2.08 C
1009 12-03-2019 12:00:00 9.2 C 61 % 2.08 C
1010 12-03-2019 12:05:00 9.2 C 63 % 2.53 C
1011 12-03-2019 12:10:00 9.2 C 62 % 2.31 C
1012 12-03-2019 12:15:00 9.2 C 62 % 2.31 C
1013 12-03-2019 12:20:00 9.2 C 61 % 2.08 C
1014 12-03-2019 12:25:00 9.3 C 62 % 2.4 C
1015 12-03-2019 12:30:00 9.4 C 60 % 2.04 C
1016 12-03-2019 12:35:00 9.5 C 61 % 2.37 C
1017 12-03-2019 12:40:00 9.6 C 60 % 2.23 C
1018 12-03-2019 12:45:00 9.7 C 61 % 2.55 C
1019 12-03-2019 12:50:00 9.7 C 61 % 2.55 C
1020 12-03-2019 12:55:00 9.7 C 60 % 2.32 C
1021 12-03-2019 13:00:00 9.7 C 60 % 2.32 C
1022 12-03-2019 13:05:00 9.6 C 60 % 2.23 C
1023 12-03-2019 13:10:00 9.6 C 60 % 2.23 C
1024 12-03-2019 13:15:00 9.6 C 59 % 1.99 C
1025 12-03-2019 13:20:00 9.7 C 61 % 2.55 C
Sensor: Nr:Datum:Temp:Feuchte:Taupunkt:
Aussen-T/F 1026 12-03-2019 13:25:00 9.7 C 59 % 2.09 C
1027 12-03-2019 13:30:00 9.8 C 60 % 2.42 C
1028 12-03-2019 13:35:00 9.9 C 60 % 2.51 C
1029 12-03-2019 13:40:00 9.9 C 58 % 2.04 C
1030 12-03-2019 13:45:00 9.8 C 59 % 2.18 C
1031 12-03-2019 13:50:00 9.8 C 58 % 1.94 C
1032 12-03-2019 13:55:00 9.8 C 59 % 2.18 C
1033 12-03-2019 14:00:00 9.8 C 59 % 2.18 C
1034 12-03-2019 14:05:00 9.9 C 59 % 2.27 C
1035 12-03-2019 14:10:00 10.1 C 60 % 2.7 C
1036 12-03-2019 14:15:00 10.1 C 59 % 2.46 C
1037 12-03-2019 14:20:00 10.1 C 58 % 2.22 C
1038 12-03-2019 14:25:00 10.2 C 57 % 2.07 C
1039 12-03-2019 14:30:00 10.2 C 56 % 1.83 C
1040 12-03-2019 14:35:00 10.2 C 57 % 2.07 C
1041 12-03-2019 14:40:00 10.3 C 58 % 2.41 C
1042 12-03-2019 14:45:00 10.3 C 56 % 1.92 C
1043 12-03-2019 14:50:00 10.4 C 57 % 2.26 C
1044 12-03-2019 14:55:00 10.6 C 56 % 2.2 C
1045 12-03-2019 15:00:00 10.8 C 55 % 2.13 C
1046 12-03-2019 15:05:00 10.8 C 55 % 2.13 C
1047 12-03-2019 15:10:00 10.8 C 55 % 2.13 C
1048 12-03-2019 15:15:00 10.8 C 54 % 1.88 C
1049 12-03-2019 15:20:00 10.6 C 53 % 1.43 C
1050 12-03-2019 15:25:00 10.6 C 54 % 1.69 C
Sensor: Nr:Datum:Temp:Feuchte:Taupunkt:
Aussen-T/F 1051 12-03-2019 15:30:00 10.4 C 54 % 1.51 C
1052 12-03-2019 15:35:00 10.4 C 53 % 1.25 C
1053 12-03-2019 15:40:00 10.3 C 53 % 1.15 C
1054 12-03-2019 15:45:00 10.3 C 54 % 1.41 C
1055 12-03-2019 15:50:00 10.4 C 53 % 1.25 C
1056 12-03-2019 15:55:00 10.6 C 55 % 1.95 C
1057 12-03-2019 16:00:00 10.6 C 54 % 1.69 C
1058 12-03-2019 16:05:00 10.6 C 52 % 1.17 C
1059 12-03-2019 16:10:00 10.6 C 52 % 1.17 C
1060 12-03-2019 16:15:00 10.6 C 49 % 0.35 C
1061 12-03-2019 16:20:00 10.5 C 52 % 1.07 C
1062 12-03-2019 16:25:00 10.4 C 49 % 0.16 C
1063 12-03-2019 16:30:00 10.3 C 48 % -0.21 C
1064 12-03-2019 16:35:00 10.2 C 49 % -0.02 C
1065 12-03-2019 16:40:00 10.2 C 50 % 0.26 C
1066 12-03-2019 16:45:00 10.1 C 50 % 0.16 C
1067 12-03-2019 16:50:00 10 C 49 % -0.21 C
1068 12-03-2019 16:55:00 9.9 C 49 % -0.3 C
1069 12-03-2019 17:00:00 9.9 C 52 % 0.52 C
1070 12-03-2019 17:05:00 9.8 C 52 % 0.43 C
1071 12-03-2019 17:10:00 9.8 C 51 % 0.16 C
1072 12-03-2019 17:15:00 9.7 C 51 % 0.07 C
1073 12-03-2019 17:20:00 9.6 C 54 % 0.76 C
1074 12-03-2019 17:25:00 9.5 C 53 % 0.41 C
1075 12-03-2019 17:30:00 9.3 C 59 % 1.71 C
Sensor: Nr:Datum:Temp:Feuchte:Taupunkt:
Aussen-T/F 1076 12-03-2019 17:35:00 9.2 C 56 % 0.89 C
1077 12-03-2019 17:40:00 9 C 57 % 0.95 C
1078 12-03-2019 17:45:00 8.9 C 58 % 1.1 C
1079 12-03-2019 17:50:00 8.8 C 61 % 1.71 C
1080 12-03-2019 17:55:00 8.6 C 62 % 1.74 C
1081 12-03-2019 18:00:00 8.4 C 62 % 1.55 C
1082 12-03-2019 18:05:00 8.3 C 62 % 1.46 C
1083 12-03-2019 18:10:00 8.2 C 61 % 1.14 C
1084 12-03-2019 18:15:00 8.1 C 62 % 1.27 C
1085 12-03-2019 18:20:00 8 C 63 % 1.4 C
1086 12-03-2019 18:25:00 7.9 C 61 % 0.86 C
1087 12-03-2019 18:30:00 7.9 C 62 % 1.08 C
1088 12-03-2019 18:35:00 7.9 C 63 % 1.3 C
1089 12-03-2019 18:40:00 8 C 58 % 0.25 C
1090 12-03-2019 18:45:00 8.1 C 59 % 0.58 C
1091 12-03-2019 18:50:00 8.2 C 62 % 1.37 C
1092 12-03-2019 18:55:00 8.2 C 60 % 0.91 C
1093 12-03-2019 19:00:00 8.4 C 56 % 0.15 C
1094 12-03-2019 19:05:00 8.5 C 59 % 0.96 C
1095 12-03-2019 19:10:00 8.5 C 54 % -0.26 C
1096 12-03-2019 19:15:00 8.6 C 59 % 1.05 C
1097 12-03-2019 19:20:00 8.6 C 52 % -0.68 C
1098 12-03-2019 19:25:00 8.8 C 55 % 0.27 C
1099 12-03-2019 19:30:00 8.8 C 58 % 1 C
1100 12-03-2019 19:35:00 8.9 C 51 % -0.67 C
Sensor: Nr:Datum:Temp:Feuchte:Taupunkt:
Aussen-T/F 1101 12-03-2019 19:40:00 9.1 C 52 % -0.22 C
1102 12-03-2019 19:45:00 8.9 C 53 % -0.15 C
1103 12-03-2019 19:50:00 8.8 C 52 % -0.5 C
1104 12-03-2019 19:55:00 8.8 C 49 % -1.31 C
1105 12-03-2019 20:00:00 8.8 C 48 % -1.59 C
1106 12-03-2019 20:05:00 9 C 46 % -1.98 C
1107 12-03-2019 20:10:00 9.3 C 46 % -1.71 C
1108 12-03-2019 20:15:00 9.4 C 46 % -1.62 C
1109 12-03-2019 20:20:00 9.4 C 50 % -0.48 C
1110 12-03-2019 20:25:00 9.4 C 45 % -1.91 C
1111 12-03-2019 20:30:00 9.4 C 46 % -1.62 C
1112 12-03-2019 20:35:00 9.5 C 46 % -1.53 C
1113 12-03-2019 20:40:00 9.6 C 46 % -1.43 C
1114 12-03-2019 20:45:00 9.7 C 47 % -1.05 C
1115 12-03-2019 20:50:00 9.8 C 46 % -1.25 C
1116 12-03-2019 20:55:00 9.8 C 46 % -1.25 C
1117 12-03-2019 21:00:00 10 C 45 % -1.37 C
1118 12-03-2019 21:05:00 10.2 C 46 % -0.89 C
1119 12-03-2019 21:10:00 10.3 C 46 % -0.8 C
1120 12-03-2019 21:15:00 10.4 C 46 % -0.7 C
1121 12-03-2019 21:20:00 10.6 C 45 % -0.82 C
1122 12-03-2019 21:25:00 10.8 C 44 % -0.95 C
1123 12-03-2019 21:30:00 11 C 45 % -0.46 C
1124 12-03-2019 21:35:00 11.1 C 45 % -0.37 C
1125 12-03-2019 21:40:00 11 C 46 % -0.16 C
Sensor: Nr:Datum:Temp:Feuchte:Taupunkt:
Aussen-T/F 1126 12-03-2019 21:45:00 11.1 C 46 % -0.07 C
1127 12-03-2019 21:50:00 11.2 C 47 % 0.32 C
1128 12-03-2019 21:55:00 11.2 C 47 % 0.32 C
1129 12-03-2019 22:00:00 11.3 C 49 % 0.99 C
1130 12-03-2019 22:05:00 11.3 C 49 % 0.99 C
1131 12-03-2019 22:10:00 11.3 C 50 % 1.27 C
1132 12-03-2019 22:15:00 11.3 C 51 % 1.54 C
1133 12-03-2019 22:20:00 11.3 C 51 % 1.54 C
1134 12-03-2019 22:25:00 11.3 C 52 % 1.81 C
1135 12-03-2019 22:30:00 11.3 C 53 % 2.08 C
1136 12-03-2019 22:35:00 11.2 C 54 % 2.25 C
1137 12-03-2019 22:40:00 11.2 C 54 % 2.25 C
1138 12-03-2019 22:45:00 11.1 C 57 % 2.92 C
1139 12-03-2019 22:50:00 10.8 C 62 % 3.82 C
1140 12-03-2019 22:55:00 10.3 C 65 % 4.02 C
1141 12-03-2019 23:00:00 9.9 C 69 % 4.49 C
1142 12-03-2019 23:05:00 9.6 C 71 % 4.61 C
1143 12-03-2019 23:10:00 9.3 C 73 % 4.72 C
1144 12-03-2019 23:15:00 9.1 C 74 % 4.72 C
1145 12-03-2019 23:20:00 8.9 C 76 % 4.91 C
1146 12-03-2019 23:25:00 8.8 C 76 % 4.81 C
1147 12-03-2019 23:30:00 8.7 C 78 % 5.08 C
1148 12-03-2019 23:35:00 8.5 C 79 % 5.07 C
1149 12-03-2019 23:40:00 8 C 79 % 4.59 C
1150 12-03-2019 23:45:00 7.5 C 80 % 4.28 C
Sensor: Nr:Datum:Temp:Feuchte:Taupunkt:
Aussen-T/F 1151 12-03-2019 23:50:00 7.2 C 82 % 4.34 C
1152 12-03-2019 23:55:00 6.9 C 83 % 4.22 C
1153 13-03-2019 00:00:00 6.8 C 83 % 4.12 C
1154 13-03-2019 00:05:00 6.8 C 83 % 4.12 C
1155 13-03-2019 00:10:00 6.8 C 82 % 3.95 C
1156 13-03-2019 00:15:00 6.7 C 80 % 3.5 C
1157 13-03-2019 00:20:00 6.6 C 80 % 3.4 C
1158 13-03-2019 00:25:00 6.6 C 80 % 3.4 C
1159 13-03-2019 00:30:00 6.4 C 80 % 3.21 C
1160 13-03-2019 00:35:00 6.4 C 80 % 3.21 C
1161 13-03-2019 00:40:00 6.3 C 80 % 3.11 C
1162 13-03-2019 00:45:00 6.3 C 79 % 2.93 C
1163 13-03-2019 00:50:00 6.4 C 80 % 3.21 C
1164 13-03-2019 00:55:00 6.3 C 80 % 3.11 C
1165 13-03-2019 01:00:00 6.2 C 79 % 2.84 C
1166 13-03-2019 01:05:00 6.2 C 79 % 2.84 C
1167 13-03-2019 01:10:00 6.1 C 79 % 2.74 C
1168 13-03-2019 01:15:00 5.9 C 79 % 2.54 C
1169 13-03-2019 01:20:00 5.8 C 79 % 2.45 C
1170 13-03-2019 01:25:00 5.7 C 80 % 2.53 C
1171 13-03-2019 01:30:00 5.6 C 80 % 2.43 C
1172 13-03-2019 01:35:00 5.6 C 80 % 2.43 C
1173 13-03-2019 01:40:00 5.4 C 80 % 2.23 C
1174 13-03-2019 01:45:00 5.4 C 80 % 2.23 C
1175 13-03-2019 01:50:00 5.5 C 79 % 2.16 C
Sensor: Nr:Datum:Temp:Feuchte:Taupunkt:
Aussen-T/F 1176 13-03-2019 01:55:00 5.5 C 79 % 2.16 C
1177 13-03-2019 02:00:00 5.5 C 80 % 2.33 C
1178 13-03-2019 02:05:00 5.4 C 80 % 2.23 C
1179 13-03-2019 02:10:00 5.3 C 81 % 2.31 C
1180 13-03-2019 02:15:00 5.2 C 81 % 2.21 C
1181 13-03-2019 02:20:00 5.2 C 82 % 2.39 C
1182 13-03-2019 02:25:00 5.2 C 82 % 2.39 C
1183 13-03-2019 02:30:00 5.3 C 82 % 2.48 C
1184 13-03-2019 02:35:00 5.4 C 81 % 2.41 C
1185 13-03-2019 02:40:00 5.5 C 79 % 2.16 C
1186 13-03-2019 02:45:00 5.6 C 78 % 2.07 C
1187 13-03-2019 02:50:00 5.7 C 78 % 2.17 C
1188 13-03-2019 02:55:00 5.8 C 78 % 2.27 C
1189 13-03-2019 03:00:00 5.8 C 78 % 2.27 C
1190 13-03-2019 03:05:00 5.7 C 77 % 1.99 C
1191 13-03-2019 03:10:00 5.7 C 77 % 1.99 C
1192 13-03-2019 03:15:00 5.6 C 76 % 1.71 C
1193 13-03-2019 03:20:00 5.6 C 77 % 1.89 C
1194 13-03-2019 03:25:00 5.6 C 77 % 1.89 C
1195 13-03-2019 03:30:00 5.7 C 77 % 1.99 C
1196 13-03-2019 03:35:00 5.8 C 77 % 2.09 C
1197 13-03-2019 03:40:00 5.8 C 77 % 2.09 C
1198 13-03-2019 03:45:00 5.9 C 77 % 2.19 C
1199 13-03-2019 03:50:00 5.9 C 78 % 2.37 C
1200 13-03-2019 03:55:00 5.8 C 78 % 2.27 C
Sensor: Nr:Datum:Temp:Feuchte:Taupunkt:
Aussen-T/F 1201 13-03-2019 04:00:00 5.8 C 78 % 2.27 C
1202 13-03-2019 04:05:00 5.7 C 79 % 2.35 C
1203 13-03-2019 04:10:00 5.6 C 79 % 2.25 C
1204 13-03-2019 04:15:00 5.7 C 79 % 2.35 C
1205 13-03-2019 04:20:00 5.6 C 79 % 2.25 C
1206 13-03-2019 04:25:00 5.6 C 80 % 2.43 C
1207 13-03-2019 04:30:00 5.6 C 80 % 2.43 C
1208 13-03-2019 04:35:00 5.5 C 80 % 2.33 C
1209 13-03-2019 04:40:00 5.4 C 80 % 2.23 C
1210 13-03-2019 04:45:00 5.3 C 81 % 2.31 C
1211 13-03-2019 04:50:00 5.3 C 81 % 2.31 C
1212 13-03-2019 04:55:00 5.3 C 81 % 2.31 C
1213 13-03-2019 05:00:00 5.4 C 83 % 2.75 C
1214 13-03-2019 05:05:00 5.4 C 83 % 2.75 C
1215 13-03-2019 05:10:00 5.4 C 83 % 2.75 C
1216 13-03-2019 05:15:00 5.3 C 83 % 2.65 C
1217 13-03-2019 05:20:00 5.3 C 83 % 2.65 C
1218 13-03-2019 05:25:00 5.2 C 83 % 2.56 C
1219 13-03-2019 05:30:00 5.2 C 84 % 2.72 C
1220 13-03-2019 05:35:00 5.3 C 83 % 2.65 C
1221 13-03-2019 05:40:00 5.4 C 83 % 2.75 C
1222 13-03-2019 05:45:00 5.5 C 83 % 2.85 C
1223 13-03-2019 05:50:00 5.4 C 83 % 2.75 C
1224 13-03-2019 05:55:00 5.3 C 83 % 2.65 C
1225 13-03-2019 06:00:00 5.3 C 83 % 2.65 C
Sensor: Nr:Datum:Temp:Feuchte:Taupunkt:
Aussen-T/F 1226 13-03-2019 06:05:00 5.2 C 83 % 2.56 C
1227 13-03-2019 06:10:00 5.1 C 83 % 2.46 C
1228 13-03-2019 06:15:00 4.9 C 83 % 2.26 C
1229 13-03-2019 06:20:00 4.8 C 83 % 2.16 C
1230 13-03-2019 06:25:00 4.9 C 84 % 2.43 C
1231 13-03-2019 06:30:00 5.1 C 84 % 2.63 C
1232 13-03-2019 06:35:00 5.2 C 83 % 2.56 C
1233 13-03-2019 06:40:00 5.3 C 83 % 2.65 C
1234 13-03-2019 06:45:00 5.4 C 82 % 2.58 C
1235 13-03-2019 06:50:00 5.4 C 81 % 2.41 C
1236 13-03-2019 06:55:00 5.4 C 81 % 2.41 C
1237 13-03-2019 07:00:00 5.4 C 81 % 2.41 C
1238 13-03-2019 07:05:00 5.4 C 81 % 2.41 C
1239 13-03-2019 07:10:00 5.4 C 81 % 2.41 C
1240 13-03-2019 07:15:00 5.4 C 81 % 2.41 C
1241 13-03-2019 07:20:00 5.4 C 80 % 2.23 C
1242 13-03-2019 07:25:00 5.4 C 80 % 2.23 C
1243 13-03-2019 07:30:00 5.4 C 80 % 2.23 C
1244 13-03-2019 07:35:00 5.4 C 80 % 2.23 C
1245 13-03-2019 07:40:00 5.5 C 80 % 2.33 C
1246 13-03-2019 07:45:00 5.6 C 80 % 2.43 C
1247 13-03-2019 07:50:00 5.6 C 81 % 2.6 C
1248 13-03-2019 07:55:00 5.7 C 82 % 2.87 C
1249 13-03-2019 08:00:00 5.6 C 81 % 2.6 C
1250 13-03-2019 08:05:00 5.6 C 81 % 2.6 C
Sensor: Nr:Datum:Temp:Feuchte:Taupunkt:
Aussen-T/F 1251 13-03-2019 08:10:00 5.8 C 81 % 2.8 C
1252 13-03-2019 08:15:00 5.9 C 80 % 2.72 C
1253 13-03-2019 08:20:00 6.1 C 80 % 2.92 C
1254 13-03-2019 08:25:00 6.2 C 80 % 3.01 C
1255 13-03-2019 08:30:00 6.3 C 80 % 3.11 C
1256 13-03-2019 08:35:00 6.3 C 80 % 3.11 C
1257 13-03-2019 08:40:00 6.3 C 79 % 2.93 C
1258 13-03-2019 08:45:00 6.3 C 80 % 3.11 C
1259 13-03-2019 08:50:00 6.3 C 80 % 3.11 C
1260 13-03-2019 08:55:00 6.3 C 80 % 3.11 C
1261 13-03-2019 09:00:00 6.3 C 80 % 3.11 C
1262 13-03-2019 09:05:00 6.3 C 80 % 3.11 C
1263 13-03-2019 09:10:00 6.3 C 80 % 3.11 C
1264 13-03-2019 09:15:00 6.4 C 79 % 3.03 C
1265 13-03-2019 09:20:00 6.6 C 77 % 2.86 C
1266 13-03-2019 09:25:00 6.7 C 77 % 2.96 C
1267 13-03-2019 09:30:00 6.8 C 77 % 3.06 C
1268 13-03-2019 09:35:00 6.7 C 77 % 2.96 C
1269 13-03-2019 09:40:00 6.6 C 76 % 2.68 C
1270 13-03-2019 09:45:00 6.5 C 77 % 2.77 C
1271 13-03-2019 09:50:00 6.4 C 77 % 2.67 C
1272 13-03-2019 09:55:00 6.4 C 77 % 2.67 C
1273 13-03-2019 10:00:00 6.4 C 78 % 2.85 C
1274 13-03-2019 10:05:00 6.6 C 78 % 3.05 C
1275 13-03-2019 10:10:00 6.7 C 78 % 3.14 C
Sensor: Nr:Datum:Temp:Feuchte:Taupunkt:
Aussen-T/F 1276 13-03-2019 10:15:00 6.8 C 77 % 3.06 C
1277 13-03-2019 10:20:00 6.9 C 77 % 3.16 C
1278 13-03-2019 10:25:00 6.9 C 77 % 3.16 C
1279 13-03-2019 10:30:00 6.9 C 78 % 3.34 C
1280 13-03-2019 10:35:00 7.1 C 77 % 3.35 C
1281 13-03-2019 10:40:00 7.1 C 77 % 3.35 C
1282 13-03-2019 10:45:00 7.2 C 77 % 3.45 C
1283 13-03-2019 10:50:00 7.3 C 77 % 3.54 C
1284 13-03-2019 10:55:00 7.4 C 76 % 3.45 C
1285 13-03-2019 11:00:00 7.4 C 76 % 3.45 C
1286 13-03-2019 11:05:00 7.6 C 76 % 3.65 C
1287 13-03-2019 11:10:00 7.7 C 75 % 3.56 C
1288 13-03-2019 11:15:00 7.8 C 75 % 3.65 C
1289 13-03-2019 11:20:00 7.8 C 74 % 3.46 C
1290 13-03-2019 11:25:00 7.8 C 75 % 3.65 C
1291 13-03-2019 11:30:00 7.8 C 74 % 3.46 C
1292 13-03-2019 11:35:00 7.9 C 74 % 3.56 C
1293 13-03-2019 11:40:00 8.1 C 76 % 4.13 C
1294 13-03-2019 11:45:00 8.1 C 75 % 3.94 C
1295 13-03-2019 11:50:00 8 C 76 % 4.04 C
1296 13-03-2019 11:55:00 7.8 C 76 % 3.84 C
1297 13-03-2019 12:00:00 7.8 C 77 % 4.03 C
1298 13-03-2019 12:05:00 7.9 C 76 % 3.94 C
1299 13-03-2019 12:10:00 8 C 75 % 3.85 C
1300 13-03-2019 12:15:00 8.2 C 75 % 4.04 C
Sensor: Nr:Datum:Temp:Feuchte:Taupunkt:
Aussen-T/F 1301 13-03-2019 12:20:00 8.3 C 74 % 3.95 C
1302 13-03-2019 12:25:00 8.3 C 74 % 3.95 C
1303 13-03-2019 12:30:00 8.3 C 73 % 3.75 C
1304 13-03-2019 12:35:00 8.3 C 73 % 3.75 C
1305 13-03-2019 12:40:00 8.3 C 73 % 3.75 C
1306 13-03-2019 12:45:00 8.2 C 74 % 3.85 C
1307 13-03-2019 12:50:00 8.2 C 74 % 3.85 C
1308 13-03-2019 12:55:00 8.1 C 75 % 3.94 C
1309 13-03-2019 13:00:00 8.2 C 75 % 4.04 C
1310 13-03-2019 13:05:00 8.2 C 75 % 4.04 C
1311 13-03-2019 13:10:00 8.1 C 75 % 3.94 C
1312 13-03-2019 13:15:00 8.1 C 75 % 3.94 C
1313 13-03-2019 13:20:00 8.1 C 75 % 3.94 C
1314 13-03-2019 13:25:00 8 C 75 % 3.85 C
1315 13-03-2019 13:30:00 7.8 C 76 % 3.84 C
1316 13-03-2019 13:35:00 7.8 C 78 % 4.21 C
1317 13-03-2019 13:40:00 7.8 C 79 % 4.39 C
1318 13-03-2019 13:45:00 7.8 C 79 % 4.39 C
1319 13-03-2019 13:50:00 7.8 C 78 % 4.21 C
1320 13-03-2019 13:55:00 7.8 C 78 % 4.21 C
1321 13-03-2019 14:00:00 7.9 C 78 % 4.31 C
1322 13-03-2019 14:05:00 8.1 C 78 % 4.5 C
1323 13-03-2019 14:10:00 8.2 C 77 % 4.42 C
1324 13-03-2019 14:15:00 8.2 C 77 % 4.42 C
1325 13-03-2019 14:20:00 8.2 C 78 % 4.6 C
Sensor: Nr:Datum:Temp:Feuchte:Taupunkt:
Aussen-T/F 1326 13-03-2019 14:25:00 8.1 C 78 % 4.5 C
1327 13-03-2019 14:30:00 8 C 79 % 4.59 C
1328 13-03-2019 14:35:00 7.9 C 78 % 4.31 C
1329 13-03-2019 14:40:00 7.9 C 79 % 4.49 C
1330 13-03-2019 14:45:00 8 C 79 % 4.59 C
1331 13-03-2019 14:50:00 8 C 78 % 4.41 C
1332 13-03-2019 14:55:00 8.1 C 78 % 4.5 C
1333 13-03-2019 15:00:00 8 C 78 % 4.41 C
1334 13-03-2019 15:05:00 7.9 C 79 % 4.49 C
1335 13-03-2019 15:10:00 7.9 C 79 % 4.49 C
1336 13-03-2019 15:15:00 7.9 C 80 % 4.67 C
1337 13-03-2019 15:20:00 7.8 C 80 % 4.57 C
1338 13-03-2019 15:25:00 7.9 C 80 % 4.67 C
1339 13-03-2019 15:30:00 7.9 C 80 % 4.67 C
1340 13-03-2019 15:35:00 7.8 C 80 % 4.57 C
1341 13-03-2019 15:40:00 7.7 C 81 % 4.65 C
1342 13-03-2019 15:45:00 7.6 C 81 % 4.55 C
1343 13-03-2019 15:50:00 7.6 C 81 % 4.55 C
1344 13-03-2019 15:55:00 7.5 C 83 % 4.81 C
1345 13-03-2019 16:00:00 7.4 C 84 % 4.88 C
1346 13-03-2019 16:05:00 7.3 C 85 % 4.95 C
1347 13-03-2019 16:10:00 7.1 C 86 % 4.92 C
1348 13-03-2019 16:15:00 7 C 87 % 4.99 C
1349 13-03-2019 16:20:00 6.8 C 87 % 4.79 C
1350 13-03-2019 16:25:00 6.7 C 88 % 4.86 C
Sensor: Nr:Datum:Temp:Feuchte:Taupunkt:
Aussen-T/F 1351 13-03-2019 16:30:00 6.6 C 88 % 4.76 C
1352 13-03-2019 16:35:00 6.6 C 88 % 4.76 C
1353 13-03-2019 16:40:00 6.6 C 88 % 4.76 C
1354 13-03-2019 16:45:00 6.6 C 89 % 4.92 C
1355 13-03-2019 16:50:00 6.6 C 89 % 4.92 C
1356 13-03-2019 16:55:00 6.6 C 89 % 4.92 C
1357 13-03-2019 17:00:00 6.6 C 89 % 4.92 C
1358 13-03-2019 17:05:00 6.6 C 89 % 4.92 C
1359 13-03-2019 17:10:00 6.7 C 89 % 5.02 C
1360 13-03-2019 17:15:00 6.6 C 88 % 4.76 C
1361 13-03-2019 17:20:00 6.7 C 88 % 4.86 C
1362 13-03-2019 17:25:00 6.7 C 87 % 4.69 C
1363 13-03-2019 17:30:00 6.7 C 88 % 4.86 C
1364 13-03-2019 17:35:00 6.6 C 88 % 4.76 C
1365 13-03-2019 17:40:00 6.6 C 87 % 4.6 C
1366 13-03-2019 17:45:00 6.7 C 87 % 4.69 C
1367 13-03-2019 17:50:00 6.7 C 87 % 4.69 C
1368 13-03-2019 17:55:00 6.7 C 87 % 4.69 C
1369 13-03-2019 18:00:00 6.8 C 87 % 4.79 C
1370 13-03-2019 18:05:00 6.8 C 86 % 4.63 C
1371 13-03-2019 18:10:00 6.9 C 86 % 4.72 C
1372 13-03-2019 18:15:00 6.9 C 86 % 4.72 C
1373 13-03-2019 18:20:00 6.9 C 86 % 4.72 C
1374 13-03-2019 18:25:00 6.8 C 88 % 4.96 C
1375 13-03-2019 18:30:00 6.7 C 88 % 4.86 C
Sensor: Nr:Datum:Temp:Feuchte:Taupunkt:
Aussen-T/F 1376 13-03-2019 18:35:00 6.6 C 89 % 4.92 C
1377 13-03-2019 18:40:00 6.6 C 89 % 4.92 C
1378 13-03-2019 18:45:00 6.3 C 89 % 4.62 C
1379 13-03-2019 18:50:00 5.9 C 89 % 4.23 C
1380 13-03-2019 18:55:00 5.4 C 89 % 3.74 C
1381 13-03-2019 19:00:00 5.3 C 90 % 3.8 C
1382 13-03-2019 19:05:00 5.1 C 91 % 3.76 C
1383 13-03-2019 19:10:00 5 C 91 % 3.66 C
1384 13-03-2019 19:15:00 4.9 C 91 % 3.56 C
1385 13-03-2019 19:20:00 4.9 C 92 % 3.71 C
1386 13-03-2019 19:25:00 4.9 C 92 % 3.71 C
1387 13-03-2019 19:30:00 4.9 C 92 % 3.71 C
1388 13-03-2019 19:35:00 4.9 C 92 % 3.71 C
1389 13-03-2019 19:40:00 4.9 C 93 % 3.87 C
1390 13-03-2019 19:45:00 4.9 C 93 % 3.87 C
1391 13-03-2019 19:50:00 4.9 C 93 % 3.87 C
1392 13-03-2019 19:55:00 4.9 C 93 % 3.87 C
1393 13-03-2019 20:00:00 5 C 93 % 3.96 C
1394 13-03-2019 20:05:00 5.1 C 93 % 4.06 C
1395 13-03-2019 20:10:00 5.1 C 93 % 4.06 C
1396 13-03-2019 20:15:00 5.1 C 92 % 3.91 C
1397 13-03-2019 20:20:00 5.1 C 92 % 3.91 C
1398 13-03-2019 20:25:00 5.1 C 92 % 3.91 C
1399 13-03-2019 20:30:00 5 C 92 % 3.81 C
1400 13-03-2019 20:35:00 4.9 C 92 % 3.71 C
Sensor: Nr:Datum:Temp:Feuchte:Taupunkt:
Aussen-T/F 1401 13-03-2019 20:40:00 4.8 C 92 % 3.61 C
1402 13-03-2019 20:45:00 4.7 C 92 % 3.51 C
1403 13-03-2019 20:50:00 4.7 C 92 % 3.51 C
1404 13-03-2019 20:55:00 4.7 C 92 % 3.51 C
1405 13-03-2019 21:00:00 4.7 C 92 % 3.51 C
1406 13-03-2019 21:05:00 4.8 C 92 % 3.61 C
1407 13-03-2019 21:10:00 4.8 C 92 % 3.61 C
1408 13-03-2019 21:15:00 4.9 C 92 % 3.71 C
1409 13-03-2019 21:20:00 4.9 C 92 % 3.71 C
1410 13-03-2019 21:25:00 5 C 93 % 3.96 C
1411 13-03-2019 21:30:00 5 C 93 % 3.96 C
1412 13-03-2019 21:35:00 5.1 C 93 % 4.06 C
1413 13-03-2019 21:40:00 5.1 C 93 % 4.06 C
1414 13-03-2019 21:45:00 5 C 93 % 3.96 C
1415 13-03-2019 21:50:00 5 C 93 % 3.96 C
1416 13-03-2019 21:55:00 5 C 93 % 3.96 C
1417 13-03-2019 22:00:00 5 C 93 % 3.96 C
1418 13-03-2019 22:05:00 5 C 93 % 3.96 C
1419 13-03-2019 22:10:00 5 C 93 % 3.96 C
1420 13-03-2019 22:15:00 5.1 C 93 % 4.06 C
1421 13-03-2019 22:20:00 5 C 93 % 3.96 C
1422 13-03-2019 22:25:00 5 C 93 % 3.96 C
1423 13-03-2019 22:30:00 4.9 C 93 % 3.87 C
1424 13-03-2019 22:35:00 5 C 93 % 3.96 C
1425 13-03-2019 22:40:00 5 C 93 % 3.96 C
Sensor: Nr:Datum:Temp:Feuchte:Taupunkt:
Aussen-T/F 1426 13-03-2019 22:45:00 5.1 C 93 % 4.06 C
1427 13-03-2019 22:50:00 5.2 C 93 % 4.16 C
1428 13-03-2019 22:55:00 5.2 C 93 % 4.16 C
1429 13-03-2019 23:00:00 5.2 C 92 % 4.01 C
1430 13-03-2019 23:05:00 5.1 C 92 % 3.91 C
1431 13-03-2019 23:10:00 5 C 92 % 3.81 C
1432 13-03-2019 23:15:00 4.8 C 92 % 3.61 C
1433 13-03-2019 23:20:00 4.7 C 92 % 3.51 C
1434 13-03-2019 23:25:00 4.6 C 93 % 3.57 C
1435 13-03-2019 23:30:00 4.6 C 93 % 3.57 C
1436 13-03-2019 23:35:00 4.5 C 93 % 3.47 C
1437 13-03-2019 23:40:00 4.5 C 93 % 3.47 C
1438 13-03-2019 23:45:00 4.5 C 93 % 3.47 C
1439 13-03-2019 23:50:00 4.6 C 93 % 3.57 C
1440 13-03-2019 23:55:00 4.6 C 94 % 3.72 C
1441 14-03-2019 00:00:00 4.6 C 93 % 3.57 C
1442 14-03-2019 00:05:00 4.6 C 93 % 3.57 C
1443 14-03-2019 00:10:00 4.6 C 93 % 3.57 C
1444 14-03-2019 00:15:00 4.6 C 93 % 3.57 C
1445 14-03-2019 00:20:00 4.6 C 93 % 3.57 C
1446 14-03-2019 00:25:00 4.6 C 93 % 3.57 C
1447 14-03-2019 00:30:00 4.6 C 92 % 3.42 C
1448 14-03-2019 00:35:00 4.6 C 92 % 3.42 C
1449 14-03-2019 00:40:00 4.6 C 92 % 3.42 C
1450 14-03-2019 00:45:00 4.7 C 92 % 3.51 C
Sensor: Nr:Datum:Temp:Feuchte:Taupunkt:
Aussen-T/F 1451 14-03-2019 00:50:00 4.8 C 92 % 3.61 C
1452 14-03-2019 00:55:00 4.9 C 91 % 3.56 C
1453 14-03-2019 01:00:00 5 C 91 % 3.66 C
1454 14-03-2019 01:05:00 5.1 C 90 % 3.6 C
1455 14-03-2019 01:10:00 5.2 C 90 % 3.7 C
1456 14-03-2019 01:15:00 5.2 C 91 % 3.85 C
1457 14-03-2019 01:20:00 5.2 C 90 % 3.7 C
1458 14-03-2019 01:25:00 5.2 C 90 % 3.7 C
1459 14-03-2019 01:30:00 5.2 C 90 % 3.7 C
1460 14-03-2019 01:35:00 5.2 C 91 % 3.85 C
1461 14-03-2019 01:40:00 5.1 C 91 % 3.76 C
1462 14-03-2019 01:45:00 5.1 C 91 % 3.76 C
1463 14-03-2019 01:50:00 5.1 C 91 % 3.76 C
1464 14-03-2019 01:55:00 5 C 91 % 3.66 C
1465 14-03-2019 02:00:00 5 C 91 % 3.66 C
1466 14-03-2019 02:05:00 5 C 92 % 3.81 C
1467 14-03-2019 02:10:00 4.9 C 92 % 3.71 C
1468 14-03-2019 02:15:00 4.9 C 92 % 3.71 C
1469 14-03-2019 02:20:00 4.9 C 92 % 3.71 C
1470 14-03-2019 02:25:00 4.9 C 92 % 3.71 C
1471 14-03-2019 02:30:00 4.8 C 92 % 3.61 C
1472 14-03-2019 02:35:00 4.8 C 92 % 3.61 C
1473 14-03-2019 02:40:00 4.7 C 92 % 3.51 C
1474 14-03-2019 02:45:00 4.7 C 92 % 3.51 C
1475 14-03-2019 02:50:00 4.6 C 92 % 3.42 C
Sensor: Nr:Datum:Temp:Feuchte:Taupunkt:
Aussen-T/F 1476 14-03-2019 02:55:00 4.6 C 92 % 3.42 C
1477 14-03-2019 03:00:00 4.4 C 92 % 3.22 C
1478 14-03-2019 03:05:00 4.4 C 92 % 3.22 C
1479 14-03-2019 03:10:00 4.4 C 92 % 3.22 C
1480 14-03-2019 03:15:00 4.4 C 93 % 3.37 C
1481 14-03-2019 03:20:00 4.4 C 93 % 3.37 C
1482 14-03-2019 03:25:00 4.3 C 93 % 3.27 C
1483 14-03-2019 03:30:00 4.4 C 93 % 3.37 C
1484 14-03-2019 03:35:00 4.4 C 93 % 3.37 C
1485 14-03-2019 03:40:00 4.4 C 93 % 3.37 C
1486 14-03-2019 03:45:00 4.6 C 94 % 3.72 C
1487 14-03-2019 03:50:00 4.7 C 94 % 3.82 C
1488 14-03-2019 03:55:00 4.8 C 94 % 3.92 C
1489 14-03-2019 04:00:00 4.8 C 94 % 3.92 C
1490 14-03-2019 04:05:00 4.8 C 94 % 3.92 C
1491 14-03-2019 04:10:00 4.9 C 93 % 3.87 C
1492 14-03-2019 04:15:00 4.9 C 94 % 4.02 C
1493 14-03-2019 04:20:00 4.9 C 93 % 3.87 C
1494 14-03-2019 04:25:00 5 C 94 % 4.12 C
1495 14-03-2019 04:30:00 5.1 C 93 % 4.06 C
1496 14-03-2019 04:35:00 5.2 C 93 % 4.16 C
1497 14-03-2019 04:40:00 5.2 C 93 % 4.16 C
1498 14-03-2019 04:45:00 5.2 C 93 % 4.16 C
1499 14-03-2019 04:50:00 5.3 C 93 % 4.26 C
1500 14-03-2019 04:55:00 5.3 C 93 % 4.26 C
Sensor: Nr:Datum:Temp:Feuchte:Taupunkt:
Aussen-T/F 1501 14-03-2019 05:00:00 5.4 C 93 % 4.36 C
1502 14-03-2019 05:05:00 5.5 C 93 % 4.46 C
1503 14-03-2019 05:10:00 5.6 C 93 % 4.56 C
1504 14-03-2019 05:15:00 5.6 C 92 % 4.41 C
1505 14-03-2019 05:20:00 5.6 C 92 % 4.41 C
1506 14-03-2019 05:25:00 5.7 C 92 % 4.5 C
1507 14-03-2019 05:30:00 5.8 C 92 % 4.6 C
1508 14-03-2019 05:35:00 5.8 C 91 % 4.45 C
1509 14-03-2019 05:40:00 5.9 C 91 % 4.55 C
1510 14-03-2019 05:45:00 5.9 C 91 % 4.55 C
1511 14-03-2019 05:50:00 6 C 90 % 4.49 C
1512 14-03-2019 05:55:00 6 C 90 % 4.49 C
1513 14-03-2019 06:00:00 6.1 C 90 % 4.59 C
1514 14-03-2019 06:05:00 6.1 C 90 % 4.59 C
1515 14-03-2019 06:10:00 6.1 C 90 % 4.59 C
1516 14-03-2019 06:15:00 6.1 C 89 % 4.43 C
1517 14-03-2019 06:20:00 6.1 C 89 % 4.43 C
1518 14-03-2019 06:25:00 6.1 C 90 % 4.59 C
1519 14-03-2019 06:30:00 6.1 C 89 % 4.43 C
1520 14-03-2019 06:35:00 6.1 C 89 % 4.43 C
1521 14-03-2019 06:40:00 6.2 C 89 % 4.53 C
1522 14-03-2019 06:45:00 6.2 C 89 % 4.53 C
1523 14-03-2019 06:50:00 6.2 C 89 % 4.53 C
1524 14-03-2019 06:55:00 6.2 C 88 % 4.36 C
1525 14-03-2019 07:00:00 6.2 C 88 % 4.36 C
Sensor: Nr:Datum:Temp:Feuchte:Taupunkt:
Aussen-T/F 1526 14-03-2019 07:05:00 6.3 C 88 % 4.46 C
1527 14-03-2019 07:10:00 6.3 C 88 % 4.46 C
1528 14-03-2019 07:15:00 6.3 C 88 % 4.46 C
1529 14-03-2019 07:20:00 6.3 C 88 % 4.46 C
1530 14-03-2019 07:25:00 6.3 C 88 % 4.46 C
1531 14-03-2019 07:30:00 6.3 C 87 % 4.3 C
1532 14-03-2019 07:35:00 6.3 C 87 % 4.3 C
1533 14-03-2019 07:40:00 6.4 C 87 % 4.4 C
1534 14-03-2019 07:45:00 6.4 C 86 % 4.23 C
1535 14-03-2019 07:50:00 6.5 C 86 % 4.33 C
1536 14-03-2019 07:55:00 6.6 C 86 % 4.43 C
1537 14-03-2019 08:00:00 6.6 C 86 % 4.43 C
1538 14-03-2019 08:05:00 6.6 C 86 % 4.43 C
1539 14-03-2019 08:10:00 6.7 C 85 % 4.36 C
1540 14-03-2019 08:15:00 6.7 C 85 % 4.36 C
1541 14-03-2019 08:20:00 6.7 C 85 % 4.36 C
1542 14-03-2019 08:25:00 6.7 C 85 % 4.36 C
1543 14-03-2019 08:30:00 6.8 C 85 % 4.46 C
1544 14-03-2019 08:35:00 6.8 C 85 % 4.46 C
1545 14-03-2019 08:40:00 6.8 C 85 % 4.46 C
1546 14-03-2019 08:45:00 6.7 C 86 % 4.53 C
1547 14-03-2019 08:50:00 6.7 C 87 % 4.69 C
1548 14-03-2019 08:55:00 6.7 C 87 % 4.69 C
1549 14-03-2019 09:00:00 6.6 C 88 % 4.76 C
1550 14-03-2019 09:05:00 6.5 C 88 % 4.66 C
Sensor: Nr:Datum:Temp:Feuchte:Taupunkt:
Aussen-T/F 1551 14-03-2019 09:10:00 6.5 C 89 % 4.82 C
1552 14-03-2019 09:15:00 6.4 C 89 % 4.72 C
1553 14-03-2019 09:20:00 6.4 C 89 % 4.72 C
1554 14-03-2019 09:25:00 6.4 C 89 % 4.72 C
1555 14-03-2019 09:30:00 6.3 C 89 % 4.62 C
1556 14-03-2019 09:35:00 6.3 C 89 % 4.62 C
1557 14-03-2019 09:40:00 6.4 C 89 % 4.72 C
1558 14-03-2019 09:45:00 6.4 C 89 % 4.72 C
1559 14-03-2019 09:50:00 6.4 C 89 % 4.72 C
1560 14-03-2019 09:55:00 6.4 C 89 % 4.72 C
1561 14-03-2019 10:00:00 6.5 C 89 % 4.82 C
1562 14-03-2019 10:05:00 6.5 C 89 % 4.82 C
1563 14-03-2019 10:10:00 6.5 C 89 % 4.82 C
1564 14-03-2019 10:15:00 6.5 C 88 % 4.66 C
1565 14-03-2019 10:20:00 6.5 C 88 % 4.66 C
1566 14-03-2019 10:25:00 6.6 C 88 % 4.76 C
1567 14-03-2019 10:30:00 6.6 C 88 % 4.76 C
1568 14-03-2019 10:35:00 6.6 C 88 % 4.76 C
1569 14-03-2019 10:40:00 6.6 C 88 % 4.76 C
1570 14-03-2019 10:45:00 6.6 C 88 % 4.76 C
1571 14-03-2019 10:50:00 6.6 C 88 % 4.76 C
1572 14-03-2019 10:55:00 6.5 C 88 % 4.66 C
1573 14-03-2019 11:00:00 6.5 C 89 % 4.82 C
1574 14-03-2019 11:05:00 6.5 C 89 % 4.82 C
1575 14-03-2019 11:10:00 6.4 C 89 % 4.72 C
Sensor: Nr:Datum:Temp:Feuchte:Taupunkt:
Aussen-T/F 1576 14-03-2019 11:15:00 6.4 C 89 % 4.72 C
1577 14-03-2019 11:20:00 6.5 C 89 % 4.82 C
1578 14-03-2019 11:25:00 6.5 C 89 % 4.82 C
1579 14-03-2019 11:30:00 6.5 C 89 % 4.82 C
1580 14-03-2019 11:35:00 6.6 C 89 % 4.92 C
1581 14-03-2019 11:40:00 6.6 C 89 % 4.92 C
1582 14-03-2019 11:45:00 6.7 C 90 % 5.18 C
1583 14-03-2019 11:50:00 6.7 C 89 % 5.02 C
1584 14-03-2019 11:55:00 6.8 C 89 % 5.12 C
1585 14-03-2019 12:00:00 6.9 C 89 % 5.22 C
1586 14-03-2019 12:05:00 7.1 C 89 % 5.41 C
1587 14-03-2019 12:10:00 7.1 C 88 % 5.25 C
1588 14-03-2019 12:15:00 7.2 C 88 % 5.35 C
1589 14-03-2019 12:20:00 7.2 C 88 % 5.35 C
1590 14-03-2019 12:25:00 7.2 C 88 % 5.35 C
1591 14-03-2019 12:30:00 7.2 C 88 % 5.35 C
1592 14-03-2019 12:35:00 7.1 C 88 % 5.25 C
1593 14-03-2019 12:40:00 7.1 C 89 % 5.41 C
1594 14-03-2019 12:45:00 7.2 C 90 % 5.67 C
1595 14-03-2019 12:50:00 7.2 C 90 % 5.67 C
1596 14-03-2019 12:55:00 7.3 C 90 % 5.77 C
1597 14-03-2019 13:00:00 7.3 C 90 % 5.77 C
1598 14-03-2019 13:05:00 7.3 C 89 % 5.61 C
1599 14-03-2019 13:10:00 7.3 C 90 % 5.77 C
1600 14-03-2019 13:15:00 7.3 C 90 % 5.77 C
Sensor: Nr:Datum:Temp:Feuchte:Taupunkt:
Aussen-T/F 1601 14-03-2019 13:20:00 7.3 C 89 % 5.61 C
1602 14-03-2019 13:25:00 7.3 C 89 % 5.61 C
1603 14-03-2019 13:30:00 7.3 C 88 % 5.45 C
1604 14-03-2019 13:35:00 7.3 C 88 % 5.45 C
1605 14-03-2019 13:40:00 7.3 C 88 % 5.45 C
1606 14-03-2019 13:45:00 7.3 C 87 % 5.28 C
1607 14-03-2019 13:50:00 7.3 C 87 % 5.28 C
1608 14-03-2019 13:55:00 7.4 C 87 % 5.38 C
1609 14-03-2019 14:00:00 7.4 C 87 % 5.38 C
1610 14-03-2019 14:05:00 7.4 C 87 % 5.38 C
1611 14-03-2019 14:10:00 7.4 C 87 % 5.38 C
1612 14-03-2019 14:15:00 7.4 C 87 % 5.38 C
1613 14-03-2019 14:20:00 7.4 C 88 % 5.55 C
1614 14-03-2019 14:25:00 7.4 C 88 % 5.55 C
1615 14-03-2019 14:30:00 7.3 C 88 % 5.45 C
1616 14-03-2019 14:35:00 7.3 C 87 % 5.28 C
1617 14-03-2019 14:40:00 7.3 C 88 % 5.45 C
1618 14-03-2019 14:45:00 7.3 C 89 % 5.61 C
1619 14-03-2019 14:50:00 7.2 C 89 % 5.51 C
1620 14-03-2019 14:55:00 7.2 C 90 % 5.67 C
1621 14-03-2019 15:00:00 7.3 C 90 % 5.77 C
1622 14-03-2019 15:05:00 7.3 C 91 % 5.93 C
1623 14-03-2019 15:10:00 7.5 C 90 % 5.97 C
1624 14-03-2019 15:15:00 7.7 C 90 % 6.17 C
1625 14-03-2019 15:20:00 7.8 C 90 % 6.27 C
Sensor: Nr:Datum:Temp:Feuchte:Taupunkt:
Aussen-T/F 1626 14-03-2019 15:25:00 7.8 C 89 % 6.1 C
1627 14-03-2019 15:30:00 7.8 C 89 % 6.1 C
1628 14-03-2019 15:35:00 7.8 C 90 % 6.27 C
1629 14-03-2019 15:40:00 7.8 C 90 % 6.27 C
1630 14-03-2019 15:45:00 7.8 C 91 % 6.43 C
1631 14-03-2019 15:50:00 7.8 C 91 % 6.43 C
1632 14-03-2019 15:55:00 7.9 C 91 % 6.52 C
1633 14-03-2019 16:00:00 8.1 C 90 % 6.56 C
1634 14-03-2019 16:05:00 8.3 C 89 % 6.6 C
1635 14-03-2019 16:10:00 8.6 C 88 % 6.73 C
1636 14-03-2019 16:15:00 8.8 C 87 % 6.76 C
1637 14-03-2019 16:20:00 8.9 C 85 % 6.52 C
1638 14-03-2019 16:25:00 9.1 C 85 % 6.72 C
1639 14-03-2019 16:30:00 9.1 C 85 % 6.72 C
1640 14-03-2019 16:35:00 9.2 C 85 % 6.81 C
1641 14-03-2019 16:40:00 9.1 C 85 % 6.72 C
1642 14-03-2019 16:45:00 9.1 C 85 % 6.72 C
1643 14-03-2019 16:50:00 9.1 C 85 % 6.72 C
1644 14-03-2019 16:55:00 9.1 C 85 % 6.72 C
1645 14-03-2019 17:00:00 9.2 C 87 % 7.15 C
1646 14-03-2019 17:05:00 9.2 C 87 % 7.15 C
1647 14-03-2019 17:10:00 9.2 C 87 % 7.15 C
1648 14-03-2019 17:15:00 9.2 C 87 % 7.15 C
1649 14-03-2019 17:20:00 9.4 C 87 % 7.35 C
1650 14-03-2019 17:25:00 9.8 C 85 % 7.4 C
Sensor: Nr:Datum:Temp:Feuchte:Taupunkt:
Aussen-T/F 1651 14-03-2019 17:30:00 10.2 C 84 % 7.62 C
1652 14-03-2019 17:35:00 10.4 C 83 % 7.64 C
1653 14-03-2019 17:40:00 10.6 C 82 % 7.66 C
1654 14-03-2019 17:45:00 10.5 C 82 % 7.56 C
1655 14-03-2019 17:50:00 10.3 C 82 % 7.37 C
1656 14-03-2019 17:55:00 10.3 C 83 % 7.54 C
1657 14-03-2019 18:00:00 10.2 C 83 % 7.45 C
1658 14-03-2019 18:05:00 10.1 C 84 % 7.52 C
1659 14-03-2019 18:10:00 10 C 84 % 7.43 C
1660 14-03-2019 18:15:00 9.9 C 85 % 7.5 C
1661 14-03-2019 18:20:00 9.8 C 84 % 7.23 C
1662 14-03-2019 18:25:00 9.7 C 84 % 7.13 C
1663 14-03-2019 18:30:00 9.7 C 83 % 6.96 C
1664 14-03-2019 18:35:00 9.8 C 83 % 7.05 C
1665 14-03-2019 18:40:00 9.8 C 81 % 6.7 C
1666 14-03-2019 18:45:00 9.8 C 81 % 6.7 C
1667 14-03-2019 18:50:00 9.8 C 80 % 6.52 C
1668 14-03-2019 18:55:00 9.9 C 79 % 6.43 C
1669 14-03-2019 19:00:00 9.9 C 80 % 6.62 C
1670 14-03-2019 19:05:00 9.8 C 76 % 5.78 C
1671 14-03-2019 19:10:00 9.9 C 76 % 5.87 C
1672 14-03-2019 19:15:00 9.9 C 75 % 5.68 C
1673 14-03-2019 19:20:00 9.9 C 73 % 5.29 C
1674 14-03-2019 19:25:00 9.9 C 73 % 5.29 C
1675 14-03-2019 19:30:00 9.9 C 74 % 5.49 C
Sensor: Nr:Datum:Temp:Feuchte:Taupunkt:
Aussen-T/F 1676 14-03-2019 19:35:00 9.8 C 77 % 5.97 C
1677 14-03-2019 19:40:00 9.3 C 79 % 5.85 C
1678 14-03-2019 19:45:00 8.9 C 81 % 5.82 C
1679 14-03-2019 19:50:00 8.7 C 82 % 5.8 C
1680 14-03-2019 19:55:00 8.6 C 83 % 5.88 C
1681 14-03-2019 20:00:00 8.3 C 84 % 5.76 C
1682 14-03-2019 20:05:00 8.3 C 85 % 5.93 C
1683 14-03-2019 20:10:00 8.2 C 85 % 5.83 C
1684 14-03-2019 20:15:00 8.1 C 86 % 5.9 C
1685 14-03-2019 20:20:00 7.9 C 85 % 5.54 C
1686 14-03-2019 20:25:00 7.9 C 85 % 5.54 C
1687 14-03-2019 20:30:00 7.9 C 86 % 5.71 C
1688 14-03-2019 20:35:00 7.8 C 86 % 5.61 C
1689 14-03-2019 20:40:00 7.8 C 85 % 5.44 C
1690 14-03-2019 20:45:00 7.8 C 85 % 5.44 C
1691 14-03-2019 20:50:00 7.8 C 85 % 5.44 C
1692 14-03-2019 20:55:00 7.8 C 84 % 5.27 C
1693 14-03-2019 21:00:00 7.9 C 84 % 5.37 C
1694 14-03-2019 21:05:00 7.9 C 84 % 5.37 C
1695 14-03-2019 21:10:00 8 C 84 % 5.47 C
1696 14-03-2019 21:15:00 8.1 C 83 % 5.39 C
1697 14-03-2019 21:20:00 8.2 C 83 % 5.49 C
1698 14-03-2019 21:25:00 8.3 C 83 % 5.59 C
1699 14-03-2019 21:30:00 8.3 C 82 % 5.41 C
1700 14-03-2019 21:35:00 8.4 C 82 % 5.51 C
Sensor: Nr:Datum:Temp:Feuchte:Taupunkt:
Aussen-T/F 1701 14-03-2019 21:40:00 8.4 C 82 % 5.51 C
1702 14-03-2019 21:45:00 8.4 C 83 % 5.69 C
1703 14-03-2019 21:50:00 8.3 C 83 % 5.59 C
1704 14-03-2019 21:55:00 8.2 C 83 % 5.49 C
1705 14-03-2019 22:00:00 8.2 C 82 % 5.32 C
1706 14-03-2019 22:05:00 8.3 C 82 % 5.41 C
1707 14-03-2019 22:10:00 8.4 C 81 % 5.33 C
1708 14-03-2019 22:15:00 8.4 C 80 % 5.16 C
1709 14-03-2019 22:20:00 8.5 C 79 % 5.07 C
1710 14-03-2019 22:25:00 8.6 C 79 % 5.17 C
1711 14-03-2019 22:30:00 8.6 C 79 % 5.17 C
1712 14-03-2019 22:35:00 8.4 C 79 % 4.98 C
1713 14-03-2019 22:40:00 8.4 C 79 % 4.98 C
1714 14-03-2019 22:45:00 8.3 C 79 % 4.88 C
1715 14-03-2019 22:50:00 8.3 C 79 % 4.88 C
1716 14-03-2019 22:55:00 8.2 C 79 % 4.78 C
1717 14-03-2019 23:00:00 8.2 C 79 % 4.78 C
1718 14-03-2019 23:05:00 8.2 C 79 % 4.78 C
1719 14-03-2019 23:10:00 8.2 C 79 % 4.78 C
1720 14-03-2019 23:15:00 8.2 C 79 % 4.78 C
1721 14-03-2019 23:20:00 8.2 C 79 % 4.78 C
1722 14-03-2019 23:25:00 8.2 C 79 % 4.78 C
1723 14-03-2019 23:30:00 8.2 C 79 % 4.78 C
1724 14-03-2019 23:35:00 8.2 C 79 % 4.78 C
1725 14-03-2019 23:40:00 8.1 C 79 % 4.68 C
Sensor: Nr:Datum:Temp:Feuchte:Taupunkt:
Aussen-T/F 1726 14-03-2019 23:45:00 8 C 80 % 4.77 C
1727 14-03-2019 23:50:00 7.9 C 80 % 4.67 C
1728 14-03-2019 23:55:00 7.8 C 80 % 4.57 C
1729 15-03-2019 00:00:00 7.8 C 80 % 4.57 C
1730 15-03-2019 00:05:00 7.7 C 81 % 4.65 C
1731 15-03-2019 00:10:00 7.6 C 82 % 4.73 C
1732 15-03-2019 00:15:00 7.4 C 82 % 4.53 C
1733 15-03-2019 00:20:00 7.2 C 82 % 4.34 C
1734 15-03-2019 00:25:00 7.1 C 83 % 4.41 C
1735 15-03-2019 00:30:00 6.9 C 84 % 4.39 C
1736 15-03-2019 00:35:00 6.9 C 84 % 4.39 C
1737 15-03-2019 00:40:00 6.8 C 84 % 4.29 C
1738 15-03-2019 00:45:00 6.7 C 84 % 4.19 C
1739 15-03-2019 00:50:00 6.7 C 85 % 4.36 C
1740 15-03-2019 00:55:00 6.6 C 85 % 4.26 C
1741 15-03-2019 01:00:00 6.4 C 85 % 4.07 C
1742 15-03-2019 01:05:00 6.3 C 85 % 3.97 C
1743 15-03-2019 01:10:00 6.3 C 86 % 4.14 C
1744 15-03-2019 01:15:00 6.3 C 86 % 4.14 C
1745 15-03-2019 01:20:00 6.3 C 86 % 4.14 C
1746 15-03-2019 01:25:00 6.3 C 86 % 4.14 C
1747 15-03-2019 01:30:00 6.3 C 86 % 4.14 C
1748 15-03-2019 01:35:00 6.4 C 86 % 4.23 C
1749 15-03-2019 01:40:00 6.4 C 86 % 4.23 C
1750 15-03-2019 01:45:00 6.4 C 86 % 4.23 C
Sensor: Nr:Datum:Temp:Feuchte:Taupunkt:
Aussen-T/F 1751 15-03-2019 01:50:00 6.6 C 86 % 4.43 C
1752 15-03-2019 01:55:00 6.6 C 86 % 4.43 C
1753 15-03-2019 02:00:00 6.6 C 86 % 4.43 C
1754 15-03-2019 02:05:00 6.7 C 86 % 4.53 C
1755 15-03-2019 02:10:00 6.7 C 86 % 4.53 C
1756 15-03-2019 02:15:00 6.8 C 86 % 4.63 C
1757 15-03-2019 02:20:00 6.8 C 86 % 4.63 C
1758 15-03-2019 02:25:00 6.9 C 86 % 4.72 C
1759 15-03-2019 02:30:00 6.9 C 86 % 4.72 C
1760 15-03-2019 02:35:00 7 C 85 % 4.66 C
1761 15-03-2019 02:40:00 7 C 85 % 4.66 C
1762 15-03-2019 02:45:00 7.1 C 85 % 4.75 C
1763 15-03-2019 02:50:00 7 C 85 % 4.66 C
1764 15-03-2019 02:55:00 6.9 C 85 % 4.56 C
1765 15-03-2019 03:00:00 6.8 C 85 % 4.46 C
1766 15-03-2019 03:05:00 6.7 C 86 % 4.53 C
1767 15-03-2019 03:10:00 6.5 C 86 % 4.33 C
1768 15-03-2019 03:15:00 6.4 C 87 % 4.4 C
1769 15-03-2019 03:20:00 6.4 C 87 % 4.4 C
1770 15-03-2019 03:25:00 6.4 C 87 % 4.4 C
1771 15-03-2019 03:30:00 6.4 C 87 % 4.4 C
1772 15-03-2019 03:35:00 6.3 C 87 % 4.3 C
1773 15-03-2019 03:40:00 6.3 C 88 % 4.46 C
1774 15-03-2019 03:45:00 6.3 C 88 % 4.46 C
1775 15-03-2019 03:50:00 6.2 C 88 % 4.36 C
Sensor: Nr:Datum:Temp:Feuchte:Taupunkt:
Aussen-T/F 1776 15-03-2019 03:55:00 6.2 C 88 % 4.36 C
1777 15-03-2019 04:00:00 6.1 C 88 % 4.27 C
1778 15-03-2019 04:05:00 6 C 88 % 4.17 C
1779 15-03-2019 04:10:00 5.9 C 89 % 4.23 C
1780 15-03-2019 04:15:00 5.9 C 89 % 4.23 C
1781 15-03-2019 04:20:00 5.9 C 89 % 4.23 C
1782 15-03-2019 04:25:00 5.8 C 89 % 4.13 C
1783 15-03-2019 04:30:00 5.9 C 90 % 4.39 C
1784 15-03-2019 04:35:00 6 C 90 % 4.49 C
1785 15-03-2019 04:40:00 6.1 C 90 % 4.59 C
1786 15-03-2019 04:45:00 6.2 C 90 % 4.69 C
1787 15-03-2019 04:50:00 6.3 C 90 % 4.78 C
1788 15-03-2019 04:55:00 6.4 C 90 % 4.88 C
1789 15-03-2019 05:00:00 6.6 C 89 % 4.92 C
1790 15-03-2019 05:05:00 6.7 C 89 % 5.02 C
1791 15-03-2019 05:10:00 6.8 C 88 % 4.96 C
1792 15-03-2019 05:15:00 6.9 C 88 % 5.05 C
1793 15-03-2019 05:20:00 7 C 88 % 5.15 C
1794 15-03-2019 05:25:00 7.1 C 87 % 5.09 C
1795 15-03-2019 05:30:00 7.1 C 87 % 5.09 C
1796 15-03-2019 05:35:00 7.1 C 87 % 5.09 C
1797 15-03-2019 05:40:00 7.1 C 87 % 5.09 C
1798 15-03-2019 05:45:00 7.2 C 87 % 5.19 C
1799 15-03-2019 05:50:00 7.2 C 87 % 5.19 C
1800 15-03-2019 05:55:00 7.3 C 87 % 5.28 C
Sensor: Nr:Datum:Temp:Feuchte:Taupunkt:
Aussen-T/F 1801 15-03-2019 06:00:00 7.3 C 88 % 5.45 C
1802 15-03-2019 06:05:00 7.3 C 88 % 5.45 C
1803 15-03-2019 06:10:00 7.3 C 89 % 5.61 C
1804 15-03-2019 06:15:00 7.3 C 89 % 5.61 C
1805 15-03-2019 06:20:00 7.3 C 90 % 5.77 C
1806 15-03-2019 06:25:00 7.3 C 90 % 5.77 C
1807 15-03-2019 06:30:00 7.2 C 90 % 5.67 C
1808 15-03-2019 06:35:00 7.2 C 91 % 5.83 C
1809 15-03-2019 06:40:00 7.2 C 91 % 5.83 C
1810 15-03-2019 06:45:00 7.1 C 91 % 5.73 C
1811 15-03-2019 06:50:00 7.1 C 91 % 5.73 C
1812 15-03-2019 06:55:00 7.1 C 92 % 5.89 C
1813 15-03-2019 07:00:00 7 C 92 % 5.79 C
1814 15-03-2019 07:05:00 7 C 92 % 5.79 C
1815 15-03-2019 07:10:00 7.1 C 93 % 6.05 C
1816 15-03-2019 07:15:00 7.1 C 93 % 6.05 C
1817 15-03-2019 07:20:00 7.1 C 93 % 6.05 C
1818 15-03-2019 07:25:00 7.1 C 93 % 6.05 C
1819 15-03-2019 07:30:00 7.1 C 93 % 6.05 C
1820 15-03-2019 07:35:00 7.1 C 93 % 6.05 C
1821 15-03-2019 07:40:00 7.2 C 93 % 6.15 C
1822 15-03-2019 07:45:00 7.2 C 93 % 6.15 C
1823 15-03-2019 07:50:00 7.2 C 93 % 6.15 C
1824 15-03-2019 07:55:00 7.3 C 93 % 6.25 C
1825 15-03-2019 08:00:00 7.3 C 94 % 6.4 C
Sensor: Nr:Datum:Temp:Feuchte:Taupunkt:
Aussen-T/F 1826 15-03-2019 08:05:00 7.3 C 94 % 6.4 C
1827 15-03-2019 08:10:00 7.3 C 94 % 6.4 C
1828 15-03-2019 08:15:00 7.3 C 94 % 6.4 C
1829 15-03-2019 08:20:00 7.4 C 94 % 6.5 C
1830 15-03-2019 08:25:00 7.4 C 94 % 6.5 C
1831 15-03-2019 08:30:00 7.5 C 94 % 6.6 C
1832 15-03-2019 08:35:00 7.6 C 94 % 6.7 C
1833 15-03-2019 08:40:00 7.6 C 94 % 6.7 C
1834 15-03-2019 08:45:00 7.7 C 94 % 6.8 C
1835 15-03-2019 08:50:00 7.7 C 94 % 6.8 C
1836 15-03-2019 08:55:00 7.8 C 94 % 6.9 C
1837 15-03-2019 09:00:00 7.8 C 94 % 6.9 C
1838 15-03-2019 09:05:00 7.8 C 94 % 6.9 C
1839 15-03-2019 09:10:00 7.9 C 94 % 7 C
1840 15-03-2019 09:15:00 7.9 C 94 % 7 C
1841 15-03-2019 09:20:00 8 C 94 % 7.09 C
1842 15-03-2019 09:25:00 8.1 C 94 % 7.19 C
1843 15-03-2019 09:30:00 8.2 C 94 % 7.29 C
1844 15-03-2019 09:35:00 8.3 C 94 % 7.39 C
1845 15-03-2019 09:40:00 8.4 C 94 % 7.49 C
1846 15-03-2019 09:45:00 8.5 C 94 % 7.59 C
1847 15-03-2019 09:50:00 8.7 C 94 % 7.79 C
1848 15-03-2019 09:55:00 8.8 C 94 % 7.89 C
1849 15-03-2019 10:00:00 8.8 C 94 % 7.89 C
1850 15-03-2019 10:05:00 8.9 C 94 % 7.99 C
Sensor: Nr:Datum:Temp:Feuchte:Taupunkt:
Aussen-T/F 1851 15-03-2019 10:10:00 9 C 94 % 8.09 C
1852 15-03-2019 10:15:00 9.1 C 94 % 8.19 C
1853 15-03-2019 10:20:00 9.2 C 94 % 8.29 C
1854 15-03-2019 10:25:00 9.3 C 94 % 8.39 C
1855 15-03-2019 10:30:00 9.5 C 94 % 8.58 C
1856 15-03-2019 10:35:00 9.6 C 94 % 8.68 C
1857 15-03-2019 10:40:00 9.7 C 94 % 8.78 C
1858 15-03-2019 10:45:00 9.7 C 94 % 8.78 C
1859 15-03-2019 10:50:00 9.8 C 94 % 8.88 C
1860 15-03-2019 10:55:00 9.9 C 94 % 8.98 C
1861 15-03-2019 11:00:00 10.1 C 94 % 9.18 C
1862 15-03-2019 11:05:00 10.2 C 93 % 9.12 C
1863 15-03-2019 11:10:00 10.4 C 93 % 9.32 C
1864 15-03-2019 11:15:00 10.7 C 93 % 9.62 C
1865 15-03-2019 11:20:00 10.8 C 92 % 9.55 C
1866 15-03-2019 11:25:00 10.9 C 92 % 9.65 C
1867 15-03-2019 11:30:00 11.1 C 91 % 9.69 C
1868 15-03-2019 11:35:00 11.3 C 91 % 9.89 C
1869 15-03-2019 11:40:00 11.6 C 91 % 10.18 C
1870 15-03-2019 11:45:00 11.7 C 90 % 10.12 C
1871 15-03-2019 11:50:00 11.8 C 89 % 10.05 C
1872 15-03-2019 11:55:00 12 C 90 % 10.41 C
1873 15-03-2019 12:00:00 12.1 C 89 % 10.34 C
1874 15-03-2019 12:05:00 12.2 C 89 % 10.44 C
1875 15-03-2019 12:10:00 12.2 C 89 % 10.44 C
Sensor: Nr:Datum:Temp:Feuchte:Taupunkt:
Aussen-T/F 1876 15-03-2019 12:15:00 12.2 C 88 % 10.27 C
1877 15-03-2019 12:20:00 12.2 C 89 % 10.44 C
1878 15-03-2019 12:25:00 12.2 C 89 % 10.44 C
1879 15-03-2019 12:30:00 12.3 C 89 % 10.54 C
1880 15-03-2019 12:35:00 12.4 C 89 % 10.64 C
1881 15-03-2019 12:40:00 12.6 C 89 % 10.84 C
1882 15-03-2019 12:45:00 12.7 C 88 % 10.77 C
1883 15-03-2019 12:50:00 12.7 C 87 % 10.59 C
1884 15-03-2019 12:55:00 12.8 C 87 % 10.69 C
1885 15-03-2019 13:00:00 12.8 C 87 % 10.69 C
1886 15-03-2019 13:05:00 12.8 C 87 % 10.69 C
1887 15-03-2019 13:10:00 12.9 C 86 % 10.62 C
1888 15-03-2019 13:15:00 12.9 C 85 % 10.44 C
1889 15-03-2019 13:20:00 13.1 C 86 % 10.81 C
1890 15-03-2019 13:25:00 13.1 C 85 % 10.64 C
1891 15-03-2019 13:30:00 13.1 C 84 % 10.46 C
1892 15-03-2019 13:35:00 13.2 C 84 % 10.56 C
1893 15-03-2019 13:40:00 13.3 C 84 % 10.66 C
1894 15-03-2019 13:45:00 13.3 C 83 % 10.48 C
1895 15-03-2019 13:50:00 13.4 C 82 % 10.39 C
1896 15-03-2019 13:55:00 13.5 C 82 % 10.49 C
1897 15-03-2019 14:00:00 13.6 C 81 % 10.4 C
1898 15-03-2019 14:05:00 13.7 C 81 % 10.5 C
1899 15-03-2019 14:10:00 13.8 C 81 % 10.6 C
1900 15-03-2019 14:15:00 13.8 C 80 % 10.41 C
Sensor: Nr:Datum:Temp:Feuchte:Taupunkt:
Aussen-T/F 1901 15-03-2019 14:20:00 13.8 C 81 % 10.6 C
1902 15-03-2019 14:25:00 13.7 C 80 % 10.32 C
1903 15-03-2019 14:30:00 13.7 C 80 % 10.32 C
1904 15-03-2019 14:35:00 13.7 C 81 % 10.5 C
1905 15-03-2019 14:40:00 13.6 C 81 % 10.4 C
1906 15-03-2019 14:45:00 13.6 C 81 % 10.4 C
1907 15-03-2019 14:50:00 13.5 C 82 % 10.49 C
1908 15-03-2019 14:55:00 13.5 C 82 % 10.49 C
1909 15-03-2019 15:00:00 13.6 C 83 % 10.77 C
1910 15-03-2019 15:05:00 13.6 C 83 % 10.77 C
1911 15-03-2019 15:10:00 13.7 C 83 % 10.87 C
1912 15-03-2019 15:15:00 13.7 C 83 % 10.87 C
1913 15-03-2019 15:20:00 13.7 C 83 % 10.87 C
1914 15-03-2019 15:25:00 13.6 C 82 % 10.59 C
1915 15-03-2019 15:30:00 13.5 C 82 % 10.49 C
1916 15-03-2019 15:35:00 13.4 C 82 % 10.39 C
1917 15-03-2019 15:40:00 13.4 C 83 % 10.57 C
1918 15-03-2019 15:45:00 13.4 C 83 % 10.57 C
1919 15-03-2019 15:50:00 13.3 C 83 % 10.48 C
1920 15-03-2019 15:55:00 13.3 C 83 % 10.48 C
1921 15-03-2019 16:00:00 13.3 C 83 % 10.48 C
1922 15-03-2019 16:05:00 13.4 C 82 % 10.39 C
1923 15-03-2019 16:10:00 13.4 C 82 % 10.39 C
1924 15-03-2019 16:15:00 13.4 C 82 % 10.39 C
1925 15-03-2019 16:20:00 13.4 C 82 % 10.39 C
Sensor: Nr:Datum:Temp:Feuchte:Taupunkt:
Aussen-T/F 1926 15-03-2019 16:25:00 13.4 C 82 % 10.39 C
1927 15-03-2019 16:30:00 13.4 C 82 % 10.39 C
1928 15-03-2019 16:35:00 13.4 C 81 % 10.21 C
1929 15-03-2019 16:40:00 13.4 C 82 % 10.39 C
1930 15-03-2019 16:45:00 13.4 C 82 % 10.39 C
1931 15-03-2019 16:50:00 13.4 C 82 % 10.39 C
1932 15-03-2019 16:55:00 13.3 C 82 % 10.3 C
1933 15-03-2019 17:00:00 13.3 C 82 % 10.3 C
1934 15-03-2019 17:05:00 13.2 C 81 % 10.01 C
1935 15-03-2019 17:10:00 13.2 C 82 % 10.2 C
1936 15-03-2019 17:15:00 13.2 C 82 % 10.2 C
1937 15-03-2019 17:20:00 13.2 C 82 % 10.2 C
1938 15-03-2019 17:25:00 13.1 C 82 % 10.1 C
1939 15-03-2019 17:30:00 13.1 C 83 % 10.28 C
1940 15-03-2019 17:35:00 12.9 C 83 % 10.09 C
1941 15-03-2019 17:40:00 12.9 C 84 % 10.26 C
1942 15-03-2019 17:45:00 12.8 C 84 % 10.17 C
1943 15-03-2019 17:50:00 12.8 C 84 % 10.17 C
1944 15-03-2019 17:55:00 12.7 C 84 % 10.07 C
1945 15-03-2019 18:00:00 12.7 C 84 % 10.07 C
1946 15-03-2019 18:05:00 12.7 C 85 % 10.25 C
1947 15-03-2019 18:10:00 12.7 C 85 % 10.25 C
1948 15-03-2019 18:15:00 12.7 C 85 % 10.25 C
1949 15-03-2019 18:20:00 12.7 C 85 % 10.25 C
1950 15-03-2019 18:25:00 12.7 C 84 % 10.07 C
Sensor: Nr:Datum:Temp:Feuchte:Taupunkt:
Aussen-T/F 1951 15-03-2019 18:30:00 12.7 C 84 % 10.07 C
1952 15-03-2019 18:35:00 12.7 C 84 % 10.07 C
1953 15-03-2019 18:40:00 12.7 C 84 % 10.07 C
1954 15-03-2019 18:45:00 12.7 C 84 % 10.07 C
1955 15-03-2019 18:50:00 12.7 C 84 % 10.07 C
1956 15-03-2019 18:55:00 12.8 C 83 % 9.99 C
1957 15-03-2019 19:00:00 12.8 C 83 % 9.99 C
1958 15-03-2019 19:05:00 12.8 C 83 % 9.99 C
1959 15-03-2019 19:10:00 12.8 C 84 % 10.17 C
1960 15-03-2019 19:15:00 12.7 C 84 % 10.07 C
1961 15-03-2019 19:20:00 12.7 C 84 % 10.07 C
1962 15-03-2019 19:25:00 12.6 C 85 % 10.15 C
1963 15-03-2019 19:30:00 12.6 C 85 % 10.15 C
1964 15-03-2019 19:35:00 12.6 C 85 % 10.15 C
1965 15-03-2019 19:40:00 12.6 C 85 % 10.15 C
1966 15-03-2019 19:45:00 12.6 C 85 % 10.15 C
1967 15-03-2019 19:50:00 12.5 C 86 % 10.22 C
1968 15-03-2019 19:55:00 12.4 C 86 % 10.13 C
1969 15-03-2019 20:00:00 12.4 C 86 % 10.13 C
1970 15-03-2019 20:05:00 12.4 C 86 % 10.13 C
1971 15-03-2019 20:10:00 12.4 C 87 % 10.3 C
1972 15-03-2019 20:15:00 12.3 C 88 % 10.37 C
1973 15-03-2019 20:20:00 12.2 C 88 % 10.27 C
1974 15-03-2019 20:25:00 12.1 C 88 % 10.17 C
1975 15-03-2019 20:30:00 12 C 89 % 10.25 C
Sensor: Nr:Datum:Temp:Feuchte:Taupunkt:
Aussen-T/F 1976 15-03-2019 20:35:00 11.9 C 89 % 10.15 C
1977 15-03-2019 20:40:00 11.9 C 89 % 10.15 C
1978 15-03-2019 20:45:00 11.9 C 89 % 10.15 C
1979 15-03-2019 20:50:00 11.9 C 89 % 10.15 C
1980 15-03-2019 20:55:00 11.9 C 89 % 10.15 C
1981 15-03-2019 21:00:00 12 C 88 % 10.08 C
1982 15-03-2019 21:05:00 12.1 C 88 % 10.17 C
1983 15-03-2019 21:10:00 12.2 C 87 % 10.1 C
1984 15-03-2019 21:15:00 12.2 C 87 % 10.1 C
1985 15-03-2019 21:20:00 12.2 C 87 % 10.1 C
1986 15-03-2019 21:25:00 12.2 C 87 % 10.1 C
1987 15-03-2019 21:30:00 12.3 C 86 % 10.03 C
1988 15-03-2019 21:35:00 12.3 C 86 % 10.03 C
1989 15-03-2019 21:40:00 12.3 C 86 % 10.03 C
1990 15-03-2019 21:45:00 12.4 C 86 % 10.13 C
1991 15-03-2019 21:50:00 12.4 C 86 % 10.13 C
1992 15-03-2019 21:55:00 12.4 C 86 % 10.13 C
1993 15-03-2019 22:00:00 12.4 C 86 % 10.13 C
1994 15-03-2019 22:05:00 12.4 C 85 % 9.95 C
1995 15-03-2019 22:10:00 12.4 C 86 % 10.13 C
1996 15-03-2019 22:15:00 12.4 C 86 % 10.13 C
1997 15-03-2019 22:20:00 12.3 C 86 % 10.03 C
1998 15-03-2019 22:25:00 12.4 C 85 % 9.95 C
1999 15-03-2019 22:30:00 12.4 C 85 % 9.95 C
2000 15-03-2019 22:35:00 12.3 C 85 % 9.85 C
Sensor: Nr:Datum:Temp:Feuchte:Taupunkt:
Aussen-T/F 2001 15-03-2019 22:40:00 12.3 C 85 % 9.85 C
2002 15-03-2019 22:45:00 12.4 C 84 % 9.78 C
2003 15-03-2019 22:50:00 12.6 C 84 % 9.97 C
2004 15-03-2019 22:55:00 12.5 C 85 % 10.05 C
2005 15-03-2019 23:00:00 12.3 C 85 % 9.85 C
2006 15-03-2019 23:05:00 12.1 C 86 % 9.83 C
2007 15-03-2019 23:10:00 11.9 C 87 % 9.81 C
2008 15-03-2019 23:15:00 11.8 C 87 % 9.71 C
2009 15-03-2019 23:20:00 11.9 C 87 % 9.81 C
2010 15-03-2019 23:25:00 11.9 C 88 % 9.98 C
2011 15-03-2019 23:30:00 11.8 C 88 % 9.88 C
2012 15-03-2019 23:35:00 11.8 C 89 % 10.05 C
2013 15-03-2019 23:40:00 11.8 C 89 % 10.05 C
2014 15-03-2019 23:45:00 11.7 C 89 % 9.95 C
2015 15-03-2019 23:50:00 11.7 C 89 % 9.95 C
2016 15-03-2019 23:55:00 11.6 C 90 % 10.02 C
2017 16-03-2019 00:00:00 11.6 C 90 % 10.02 C
2018 16-03-2019 00:05:00 11.6 C 90 % 10.02 C
2019 16-03-2019 00:10:00 11.7 C 89 % 9.95 C
2020 16-03-2019 00:15:00 11.7 C 89 % 9.95 C
2021 16-03-2019 00:20:00 11.7 C 89 % 9.95 C
2022 16-03-2019 00:25:00 11.7 C 88 % 9.78 C
2023 16-03-2019 00:30:00 11.7 C 88 % 9.78 C
2024 16-03-2019 00:35:00 11.8 C 88 % 9.88 C
2025 16-03-2019 00:40:00 11.8 C 88 % 9.88 C
Sensor: Nr:Datum:Temp:Feuchte:Taupunkt:
Aussen-T/F 2026 16-03-2019 00:45:00 11.7 C 87 % 9.61 C
2027 16-03-2019 00:50:00 11.1 C 87 % 9.02 C
2028 16-03-2019 00:55:00 10.8 C 89 % 9.06 C
2029 16-03-2019 01:00:00 10.5 C 90 % 8.93 C
2030 16-03-2019 01:05:00 10.3 C 91 % 8.9 C
2031 16-03-2019 01:10:00 10.2 C 91 % 8.8 C
2032 16-03-2019 01:15:00 10.1 C 92 % 8.86 C
2033 16-03-2019 01:20:00 10.1 C 92 % 8.86 C
2034 16-03-2019 01:25:00 10 C 92 % 8.76 C
2035 16-03-2019 01:30:00 9.8 C 93 % 8.72 C
2036 16-03-2019 01:35:00 9.6 C 92 % 8.37 C
2037 16-03-2019 01:40:00 9.3 C 92 % 8.07 C
2038 16-03-2019 01:45:00 9.3 C 92 % 8.07 C
2039 16-03-2019 01:50:00 9.2 C 92 % 7.97 C
2040 16-03-2019 01:55:00 9.1 C 92 % 7.87 C
2041 16-03-2019 02:00:00 9.1 C 93 % 8.03 C
2042 16-03-2019 02:05:00 9.1 C 93 % 8.03 C
2043 16-03-2019 02:10:00 9.1 C 92 % 7.87 C
2044 16-03-2019 02:15:00 9.1 C 92 % 7.87 C
2045 16-03-2019 02:20:00 9 C 92 % 7.77 C
2046 16-03-2019 02:25:00 9 C 92 % 7.77 C
2047 16-03-2019 02:30:00 8.9 C 92 % 7.67 C
2048 16-03-2019 02:35:00 8.9 C 92 % 7.67 C
2049 16-03-2019 02:40:00 8.8 C 92 % 7.57 C
2050 16-03-2019 02:45:00 8.8 C 92 % 7.57 C
Sensor: Nr:Datum:Temp:Feuchte:Taupunkt:
Aussen-T/F 2051 16-03-2019 02:50:00 8.7 C 92 % 7.47 C
2052 16-03-2019 02:55:00 8.7 C 92 % 7.47 C
2053 16-03-2019 03:00:00 8.7 C 93 % 7.63 C
2054 16-03-2019 03:05:00 8.6 C 93 % 7.53 C
2055 16-03-2019 03:10:00 8.5 C 93 % 7.43 C
2056 16-03-2019 03:15:00 8.5 C 93 % 7.43 C
2057 16-03-2019 03:20:00 8.4 C 94 % 7.49 C
2058 16-03-2019 03:25:00 8.4 C 94 % 7.49 C
2059 16-03-2019 03:30:00 8.4 C 94 % 7.49 C
2060 16-03-2019 03:35:00 8.3 C 94 % 7.39 C
2061 16-03-2019 03:40:00 8.3 C 94 % 7.39 C
2062 16-03-2019 03:45:00 8.3 C 94 % 7.39 C
2063 16-03-2019 03:50:00 8.3 C 94 % 7.39 C
2064 16-03-2019 03:55:00 8.3 C 95 % 7.55 C
2065 16-03-2019 04:00:00 8.3 C 95 % 7.55 C
2066 16-03-2019 04:05:00 8.3 C 95 % 7.55 C
2067 16-03-2019 04:10:00 8.3 C 95 % 7.55 C
2068 16-03-2019 04:15:00 8.3 C 95 % 7.55 C
2069 16-03-2019 04:20:00 8.3 C 95 % 7.55 C
2070 16-03-2019 04:25:00 8.3 C 95 % 7.55 C
2071 16-03-2019 04:30:00 8.3 C 95 % 7.55 C
2072 16-03-2019 04:35:00 8.3 C 95 % 7.55 C
2073 16-03-2019 04:40:00 8.3 C 95 % 7.55 C
2074 16-03-2019 04:45:00 8.3 C 95 % 7.55 C
2075 16-03-2019 04:50:00 8.3 C 95 % 7.55 C
Sensor: Nr:Datum:Temp:Feuchte:Taupunkt:
Aussen-T/F 2076 16-03-2019 04:55:00 8.3 C 95 % 7.55 C
2077 16-03-2019 05:00:00 8.3 C 95 % 7.55 C
2078 16-03-2019 05:05:00 8.3 C 95 % 7.55 C
2079 16-03-2019 05:10:00 8.3 C 95 % 7.55 C
2080 16-03-2019 05:15:00 8.3 C 95 % 7.55 C
2081 16-03-2019 05:20:00 8.3 C 95 % 7.55 C
2082 16-03-2019 05:25:00 8.3 C 95 % 7.55 C
2083 16-03-2019 05:30:00 8.3 C 95 % 7.55 C
2084 16-03-2019 05:35:00 8.3 C 95 % 7.55 C
2085 16-03-2019 05:40:00 8.3 C 95 % 7.55 C
2086 16-03-2019 05:45:00 8.3 C 95 % 7.55 C
2087 16-03-2019 05:50:00 8.3 C 95 % 7.55 C
2088 16-03-2019 05:55:00 8.3 C 96 % 7.7 C
2089 16-03-2019 06:00:00 8.3 C 96 % 7.7 C
2090 16-03-2019 06:05:00 8.3 C 96 % 7.7 C
2091 16-03-2019 06:10:00 8.3 C 96 % 7.7 C
2092 16-03-2019 06:15:00 8.3 C 96 % 7.7 C
2093 16-03-2019 06:20:00 8.3 C 96 % 7.7 C
2094 16-03-2019 06:25:00 8.4 C 96 % 7.8 C
2095 16-03-2019 06:30:00 8.7 C 96 % 8.1 C
2096 16-03-2019 06:35:00 8.8 C 96 % 8.2 C
2097 16-03-2019 06:40:00 9.1 C 97 % 8.65 C
2098 16-03-2019 06:45:00 9.3 C 97 % 8.85 C
2099 16-03-2019 06:50:00 9.4 C 97 % 8.95 C
2100 16-03-2019 06:55:00 9.6 C 97 % 9.15 C
Sensor: Nr:Datum:Temp:Feuchte:Taupunkt:
Aussen-T/F 2101 16-03-2019 07:00:00 9.7 C 96 % 9.09 C
2102 16-03-2019 07:05:00 9.7 C 96 % 9.09 C
2103 16-03-2019 07:10:00 9.7 C 96 % 9.09 C
2104 16-03-2019 07:15:00 9.8 C 96 % 9.19 C
2105 16-03-2019 07:20:00 9.8 C 96 % 9.19 C
2106 16-03-2019 07:25:00 9.8 C 95 % 9.04 C
2107 16-03-2019 07:30:00 9.9 C 95 % 9.14 C
2108 16-03-2019 07:35:00 9.9 C 95 % 9.14 C
2109 16-03-2019 07:40:00 10 C 94 % 9.08 C
2110 16-03-2019 07:45:00 10.1 C 94 % 9.18 C
2111 16-03-2019 07:50:00 10.1 C 94 % 9.18 C
2112 16-03-2019 07:55:00 10.1 C 94 % 9.18 C
2113 16-03-2019 08:00:00 10.2 C 94 % 9.28 C
2114 16-03-2019 08:05:00 10.2 C 94 % 9.28 C
2115 16-03-2019 08:10:00 10.2 C 93 % 9.12 C
2116 16-03-2019 08:15:00 10.3 C 93 % 9.22 C
2117 16-03-2019 08:20:00 10.3 C 93 % 9.22 C
2118 16-03-2019 08:25:00 10.3 C 93 % 9.22 C
2119 16-03-2019 08:30:00 10.4 C 93 % 9.32 C
2120 16-03-2019 08:35:00 10.4 C 93 % 9.32 C
2121 16-03-2019 08:40:00 10.5 C 93 % 9.42 C
2122 16-03-2019 08:45:00 10.5 C 93 % 9.42 C
2123 16-03-2019 08:50:00 10.6 C 93 % 9.52 C
2124 16-03-2019 08:55:00 10.6 C 93 % 9.52 C
2125 16-03-2019 09:00:00 10.7 C 93 % 9.62 C
Sensor: Nr:Datum:Temp:Feuchte:Taupunkt:
Aussen-T/F 2126 16-03-2019 09:05:00 10.7 C 92 % 9.45 C
2127 16-03-2019 09:10:00 10.7 C 92 % 9.45 C
2128 16-03-2019 09:15:00 10.7 C 92 % 9.45 C
2129 16-03-2019 09:20:00 10.7 C 92 % 9.45 C
2130 16-03-2019 09:25:00 10.7 C 92 % 9.45 C
2131 16-03-2019 09:30:00 10.7 C 92 % 9.45 C
2132 16-03-2019 09:35:00 10.7 C 92 % 9.45 C
2133 16-03-2019 09:40:00 10.7 C 92 % 9.45 C
2134 16-03-2019 09:45:00 10.7 C 91 % 9.29 C
2135 16-03-2019 09:50:00 10.8 C 91 % 9.39 C
2136 16-03-2019 09:55:00 10.8 C 90 % 9.23 C
2137 16-03-2019 10:00:00 10.8 C 90 % 9.23 C
2138 16-03-2019 10:05:00 10.9 C 90 % 9.33 C
2139 16-03-2019 10:10:00 10.9 C 90 % 9.33 C
2140 16-03-2019 10:15:00 10.9 C 90 % 9.33 C
2141 16-03-2019 10:20:00 10.9 C 90 % 9.33 C
2142 16-03-2019 10:25:00 10.8 C 90 % 9.23 C
2143 16-03-2019 10:30:00 10.9 C 90 % 9.33 C
2144 16-03-2019 10:35:00 10.9 C 89 % 9.16 C
2145 16-03-2019 10:40:00 10.9 C 90 % 9.33 C
2146 16-03-2019 10:45:00 10.8 C 90 % 9.23 C
2147 16-03-2019 10:50:00 10.7 C 90 % 9.13 C
2148 16-03-2019 10:55:00 10.7 C 91 % 9.29 C
2149 16-03-2019 11:00:00 10.7 C 91 % 9.29 C
2150 16-03-2019 11:05:00 10.7 C 91 % 9.29 C
Sensor: Nr:Datum:Temp:Feuchte:Taupunkt:
Aussen-T/F 2151 16-03-2019 11:10:00 10.7 C 91 % 9.29 C
2152 16-03-2019 11:15:00 10.7 C 91 % 9.29 C
2153 16-03-2019 11:20:00 10.7 C 90 % 9.13 C
2154 16-03-2019 11:25:00 10.7 C 90 % 9.13 C
2155 16-03-2019 11:30:00 10.8 C 89 % 9.06 C
2156 16-03-2019 11:35:00 10.8 C 88 % 8.89 C
2157 16-03-2019 11:40:00 10.9 C 88 % 8.99 C
2158 16-03-2019 11:45:00 11 C 88 % 9.09 C
2159 16-03-2019 11:50:00 11.1 C 87 % 9.02 C
2160 16-03-2019 11:55:00 11.1 C 87 % 9.02 C
2161 16-03-2019 12:00:00 11.1 C 87 % 9.02 C
2162 16-03-2019 12:05:00 11.2 C 86 % 8.95 C
2163 16-03-2019 12:10:00 11.2 C 86 % 8.95 C
2164 16-03-2019 12:15:00 11.2 C 85 % 8.77 C
2165 16-03-2019 12:20:00 11.3 C 85 % 8.87 C
2166 16-03-2019 12:25:00 11.4 C 84 % 8.8 C
2167 16-03-2019 12:30:00 11.6 C 84 % 8.99 C
2168 16-03-2019 12:35:00 11.7 C 83 % 8.91 C
2169 16-03-2019 12:40:00 11.8 C 82 % 8.83 C
2170 16-03-2019 12:45:00 11.8 C 82 % 8.83 C
2171 16-03-2019 12:50:00 11.7 C 82 % 8.73 C
2172 16-03-2019 12:55:00 11.6 C 82 % 8.64 C
2173 16-03-2019 13:00:00 11.5 C 81 % 8.36 C
2174 16-03-2019 13:05:00 11.5 C 81 % 8.36 C
2175 16-03-2019 13:10:00 11.7 C 80 % 8.37 C
Sensor: Nr:Datum:Temp:Feuchte:Taupunkt:
Aussen-T/F 2176 16-03-2019 13:15:00 11.8 C 80 % 8.47 C
2177 16-03-2019 13:20:00 11.8 C 79 % 8.28 C
2178 16-03-2019 13:25:00 11.8 C 79 % 8.28 C
2179 16-03-2019 13:30:00 11.9 C 79 % 8.38 C
2180 16-03-2019 13:35:00 11.9 C 79 % 8.38 C
2181 16-03-2019 13:40:00 11.8 C 80 % 8.47 C
2182 16-03-2019 13:45:00 11.8 C 80 % 8.47 C
2183 16-03-2019 13:50:00 11.8 C 81 % 8.65 C
2184 16-03-2019 13:55:00 11.8 C 81 % 8.65 C
2185 16-03-2019 14:00:00 11.7 C 81 % 8.55 C
2186 16-03-2019 14:05:00 11.6 C 80 % 8.27 C
2187 16-03-2019 14:10:00 11.4 C 81 % 8.26 C
2188 16-03-2019 14:15:00 11.3 C 81 % 8.16 C
2189 16-03-2019 14:20:00 11.1 C 81 % 7.97 C
2190 16-03-2019 14:25:00 11.1 C 82 % 8.15 C
2191 16-03-2019 14:30:00 10.9 C 82 % 7.95 C
2192 16-03-2019 14:35:00 10.9 C 81 % 7.77 C
2193 16-03-2019 14:40:00 10.9 C 81 % 7.77 C
2194 16-03-2019 14:45:00 10.9 C 80 % 7.59 C
2195 16-03-2019 14:50:00 10.9 C 80 % 7.59 C
2196 16-03-2019 14:55:00 10.8 C 80 % 7.49 C
2197 16-03-2019 15:00:00 10.8 C 80 % 7.49 C
2198 16-03-2019 15:05:00 10.8 C 79 % 7.31 C
2199 16-03-2019 15:10:00 10.8 C 80 % 7.49 C
2200 16-03-2019 15:15:00 10.8 C 80 % 7.49 C
Sensor: Nr:Datum:Temp:Feuchte:Taupunkt:
Aussen-T/F 2201 16-03-2019 15:20:00 10.9 C 80 % 7.59 C
2202 16-03-2019 15:25:00 10.9 C 79 % 7.41 C
2203 16-03-2019 15:30:00 10.9 C 78 % 7.22 C
2204 16-03-2019 15:35:00 11 C 78 % 7.32 C
2205 16-03-2019 15:40:00 11.1 C 78 % 7.41 C
2206 16-03-2019 15:45:00 11.1 C 77 % 7.23 C
2207 16-03-2019 15:50:00 11.1 C 77 % 7.23 C
2208 16-03-2019 15:55:00 11.1 C 77 % 7.23 C
2209 16-03-2019 16:00:00 11.1 C 78 % 7.41 C
2210 16-03-2019 16:05:00 11 C 78 % 7.32 C
2211 16-03-2019 16:10:00 10.9 C 78 % 7.22 C
2212 16-03-2019 16:15:00 11 C 78 % 7.32 C
2213 16-03-2019 16:20:00 11.1 C 78 % 7.41 C
2214 16-03-2019 16:25:00 11.1 C 77 % 7.23 C
2215 16-03-2019 16:30:00 11 C 78 % 7.32 C
2216 16-03-2019 16:35:00 11 C 77 % 7.13 C
2217 16-03-2019 16:40:00 11 C 77 % 7.13 C
2218 16-03-2019 16:45:00 10.9 C 77 % 7.03 C
2219 16-03-2019 16:50:00 10.9 C 77 % 7.03 C
2220 16-03-2019 16:55:00 10.9 C 76 % 6.84 C
2221 16-03-2019 17:00:00 10.9 C 77 % 7.03 C
2222 16-03-2019 17:05:00 10.9 C 77 % 7.03 C
2223 16-03-2019 17:10:00 10.9 C 76 % 6.84 C
2224 16-03-2019 17:15:00 10.9 C 76 % 6.84 C
2225 16-03-2019 17:20:00 10.9 C 76 % 6.84 C
Sensor: Nr:Datum:Temp:Feuchte:Taupunkt:
Aussen-T/F 2226 16-03-2019 17:25:00 10.9 C 76 % 6.84 C
2227 16-03-2019 17:30:00 10.9 C 76 % 6.84 C
2228 16-03-2019 17:35:00 10.9 C 76 % 6.84 C
2229 16-03-2019 17:40:00 10.9 C 77 % 7.03 C
2230 16-03-2019 17:45:00 10.9 C 76 % 6.84 C
2231 16-03-2019 17:50:00 10.9 C 76 % 6.84 C
2232 16-03-2019 17:55:00 10.9 C 76 % 6.84 C
2233 16-03-2019 18:00:00 10.9 C 76 % 6.84 C
2234 16-03-2019 18:05:00 10.8 C 76 % 6.75 C
2235 16-03-2019 18:10:00 10.8 C 77 % 6.94 C
2236 16-03-2019 18:15:00 10.8 C 77 % 6.94 C
2237 16-03-2019 18:20:00 10.7 C 76 % 6.65 C
2238 16-03-2019 18:25:00 10.7 C 76 % 6.65 C
2239 16-03-2019 18:30:00 10.7 C 77 % 6.84 C
2240 16-03-2019 18:35:00 10.7 C 77 % 6.84 C
2241 16-03-2019 18:40:00 10.6 C 77 % 6.74 C
2242 16-03-2019 18:45:00 10.6 C 76 % 6.55 C
2243 16-03-2019 18:50:00 10.5 C 76 % 6.45 C
2244 16-03-2019 18:55:00 10.5 C 76 % 6.45 C
2245 16-03-2019 19:00:00 10.5 C 76 % 6.45 C
2246 16-03-2019 19:05:00 10.5 C 76 % 6.45 C
2247 16-03-2019 19:10:00 10.5 C 76 % 6.45 C
2248 16-03-2019 19:15:00 10.5 C 76 % 6.45 C
2249 16-03-2019 19:20:00 10.4 C 76 % 6.36 C
2250 16-03-2019 19:25:00 10.4 C 76 % 6.36 C
Sensor: Nr:Datum:Temp:Feuchte:Taupunkt:
Aussen-T/F 2251 16-03-2019 19:30:00 10.4 C 76 % 6.36 C
2252 16-03-2019 19:35:00 10.4 C 76 % 6.36 C
2253 16-03-2019 19:40:00 10.4 C 76 % 6.36 C
2254 16-03-2019 19:45:00 10.4 C 76 % 6.36 C
2255 16-03-2019 19:50:00 10.4 C 76 % 6.36 C
2256 16-03-2019 19:55:00 10.4 C 76 % 6.36 C
2257 16-03-2019 20:00:00 10.4 C 76 % 6.36 C
2258 16-03-2019 20:05:00 10.4 C 76 % 6.36 C
2259 16-03-2019 20:10:00 10.4 C 76 % 6.36 C
2260 16-03-2019 20:15:00 10.3 C 76 % 6.26 C
2261 16-03-2019 20:20:00 10.3 C 75 % 6.07 C
2262 16-03-2019 20:25:00 10.4 C 75 % 6.17 C
2263 16-03-2019 20:30:00 10.4 C 75 % 6.17 C
2264 16-03-2019 20:35:00 10.3 C 75 % 6.07 C
2265 16-03-2019 20:40:00 10.3 C 75 % 6.07 C
2266 16-03-2019 20:45:00 10.3 C 75 % 6.07 C
2267 16-03-2019 20:50:00 10.2 C 76 % 6.16 C
2268 16-03-2019 20:55:00 10.1 C 76 % 6.07 C
2269 16-03-2019 21:00:00 10.1 C 77 % 6.26 C
2270 16-03-2019 21:05:00 9.9 C 78 % 6.25 C
2271 16-03-2019 21:10:00 9.9 C 78 % 6.25 C
2272 16-03-2019 21:15:00 10.1 C 78 % 6.44 C
2273 16-03-2019 21:20:00 10.1 C 78 % 6.44 C
2274 16-03-2019 21:25:00 10.2 C 78 % 6.54 C
2275 16-03-2019 21:30:00 10.2 C 78 % 6.54 C
Sensor: Nr:Datum:Temp:Feuchte:Taupunkt:
Aussen-T/F 2276 16-03-2019 21:35:00 10.3 C 78 % 6.64 C
2277 16-03-2019 21:40:00 10.2 C 78 % 6.54 C
2278 16-03-2019 21:45:00 10.2 C 78 % 6.54 C
2279 16-03-2019 21:50:00 10.1 C 79 % 6.63 C
2280 16-03-2019 21:55:00 10 C 79 % 6.53 C
2281 16-03-2019 22:00:00 10 C 79 % 6.53 C
2282 16-03-2019 22:05:00 10 C 79 % 6.53 C
2283 16-03-2019 22:10:00 10.1 C 79 % 6.63 C
2284 16-03-2019 22:15:00 10 C 80 % 6.71 C
2285 16-03-2019 22:20:00 10 C 79 % 6.53 C
2286 16-03-2019 22:25:00 10.1 C 79 % 6.63 C
2287 16-03-2019 22:30:00 10.1 C 79 % 6.63 C
2288 16-03-2019 22:35:00 10.1 C 79 % 6.63 C
2289 16-03-2019 22:40:00 10.1 C 79 % 6.63 C
2290 16-03-2019 22:45:00 10.2 C 79 % 6.73 C
2291 16-03-2019 22:50:00 10.2 C 79 % 6.73 C
2292 16-03-2019 22:55:00 10.2 C 79 % 6.73 C
2293 16-03-2019 23:00:00 10.2 C 79 % 6.73 C
2294 16-03-2019 23:05:00 10.1 C 79 % 6.63 C
2295 16-03-2019 23:10:00 10.1 C 79 % 6.63 C
2296 16-03-2019 23:15:00 10.1 C 79 % 6.63 C
2297 16-03-2019 23:20:00 10.1 C 80 % 6.81 C
2298 16-03-2019 23:25:00 10 C 80 % 6.71 C
2299 16-03-2019 23:30:00 10.1 C 79 % 6.63 C
2300 16-03-2019 23:35:00 10.1 C 79 % 6.63 C
Sensor: Nr:Datum:Temp:Feuchte:Taupunkt:
Aussen-T/F 2301 16-03-2019 23:40:00 10.1 C 79 % 6.63 C
2302 16-03-2019 23:45:00 10.1 C 79 % 6.63 C
2303 16-03-2019 23:50:00 10.2 C 78 % 6.54 C
2304 16-03-2019 23:55:00 10.2 C 78 % 6.54 C
2305 17-03-2019 00:00:00 10.2 C 78 % 6.54 C
2306 17-03-2019 00:05:00 10.2 C 78 % 6.54 C
2307 17-03-2019 00:10:00 10.2 C 78 % 6.54 C
2308 17-03-2019 00:15:00 10.2 C 78 % 6.54 C
2309 17-03-2019 00:20:00 10.2 C 78 % 6.54 C
2310 17-03-2019 00:25:00 10.3 C 78 % 6.64 C
2311 17-03-2019 00:30:00 10.3 C 78 % 6.64 C
2312 17-03-2019 00:35:00 10.3 C 78 % 6.64 C
2313 17-03-2019 00:40:00 10.4 C 78 % 6.74 C
2314 17-03-2019 00:45:00 10.4 C 77 % 6.55 C
2315 17-03-2019 00:50:00 10.4 C 78 % 6.74 C
2316 17-03-2019 00:55:00 10.4 C 77 % 6.55 C
2317 17-03-2019 01:00:00 10.4 C 77 % 6.55 C
2318 17-03-2019 01:05:00 10.4 C 77 % 6.55 C
2319 17-03-2019 01:10:00 10.4 C 77 % 6.55 C
2320 17-03-2019 01:15:00 10.4 C 77 % 6.55 C
2321 17-03-2019 01:20:00 10.4 C 77 % 6.55 C
2322 17-03-2019 01:25:00 10.5 C 77 % 6.64 C
2323 17-03-2019 01:30:00 10.5 C 77 % 6.64 C
2324 17-03-2019 01:35:00 10.5 C 77 % 6.64 C
2325 17-03-2019 01:40:00 10.4 C 77 % 6.55 C
Sensor: Nr:Datum:Temp:Feuchte:Taupunkt:
Aussen-T/F 2326 17-03-2019 01:45:00 10.5 C 77 % 6.64 C
2327 17-03-2019 01:50:00 10.4 C 77 % 6.55 C
2328 17-03-2019 01:55:00 10.3 C 77 % 6.45 C
2329 17-03-2019 02:00:00 10.3 C 77 % 6.45 C
2330 17-03-2019 02:05:00 10.2 C 77 % 6.35 C
2331 17-03-2019 02:10:00 10.2 C 77 % 6.35 C
2332 17-03-2019 02:15:00 10.2 C 78 % 6.54 C
2333 17-03-2019 02:20:00 10.2 C 78 % 6.54 C
2334 17-03-2019 02:25:00 10.2 C 78 % 6.54 C
2335 17-03-2019 02:30:00 10.2 C 78 % 6.54 C
2336 17-03-2019 02:35:00 10.2 C 78 % 6.54 C
2337 17-03-2019 02:40:00 10.2 C 78 % 6.54 C
2338 17-03-2019 02:45:00 10.2 C 77 % 6.35 C
2339 17-03-2019 02:50:00 10.2 C 78 % 6.54 C
2340 17-03-2019 02:55:00 10.2 C 77 % 6.35 C
2341 17-03-2019 03:00:00 10.2 C 77 % 6.35 C
2342 17-03-2019 03:05:00 10.2 C 77 % 6.35 C
2343 17-03-2019 03:10:00 10.2 C 77 % 6.35 C
2344 17-03-2019 03:15:00 10.2 C 77 % 6.35 C
2345 17-03-2019 03:20:00 10.2 C 77 % 6.35 C
2346 17-03-2019 03:25:00 10.2 C 77 % 6.35 C
2347 17-03-2019 03:30:00 10.2 C 77 % 6.35 C
2348 17-03-2019 03:35:00 10.2 C 77 % 6.35 C
2349 17-03-2019 03:40:00 10.1 C 77 % 6.26 C
2350 17-03-2019 03:45:00 10.2 C 77 % 6.35 C
Sensor: Nr:Datum:Temp:Feuchte:Taupunkt:
Aussen-T/F 2351 17-03-2019 03:50:00 10.2 C 77 % 6.35 C
2352 17-03-2019 03:55:00 10.2 C 77 % 6.35 C
2353 17-03-2019 04:00:00 10.2 C 77 % 6.35 C
2354 17-03-2019 04:05:00 10.1 C 76 % 6.07 C
2355 17-03-2019 04:10:00 10.1 C 76 % 6.07 C
2356 17-03-2019 04:15:00 10.1 C 76 % 6.07 C
2357 17-03-2019 04:20:00 10.1 C 76 % 6.07 C
2358 17-03-2019 04:25:00 10.1 C 76 % 6.07 C
2359 17-03-2019 04:30:00 10.1 C 76 % 6.07 C
2360 17-03-2019 04:35:00 10.1 C 76 % 6.07 C
2361 17-03-2019 04:40:00 10.1 C 76 % 6.07 C
2362 17-03-2019 04:45:00 10.1 C 76 % 6.07 C
2363 17-03-2019 04:50:00 10.1 C 76 % 6.07 C
2364 17-03-2019 04:55:00 10.2 C 76 % 6.16 C
2365 17-03-2019 05:00:00 10.2 C 76 % 6.16 C
2366 17-03-2019 05:05:00 10.2 C 76 % 6.16 C
2367 17-03-2019 05:10:00 10.3 C 75 % 6.07 C
2368 17-03-2019 05:15:00 10.3 C 75 % 6.07 C
2369 17-03-2019 05:20:00 10.3 C 75 % 6.07 C
2370 17-03-2019 05:25:00 10.3 C 75 % 6.07 C
2371 17-03-2019 05:30:00 10.3 C 74 % 5.88 C
2372 17-03-2019 05:35:00 10.3 C 74 % 5.88 C
2373 17-03-2019 05:40:00 10.3 C 74 % 5.88 C
2374 17-03-2019 05:45:00 10.3 C 74 % 5.88 C
2375 17-03-2019 05:50:00 10.3 C 74 % 5.88 C
Sensor: Nr:Datum:Temp:Feuchte:Taupunkt:
Aussen-T/F 2376 17-03-2019 05:55:00 10.3 C 75 % 6.07 C
2377 17-03-2019 06:00:00 10.2 C 75 % 5.97 C
2378 17-03-2019 06:05:00 10.2 C 74 % 5.78 C
2379 17-03-2019 06:10:00 10.2 C 74 % 5.78 C
2380 17-03-2019 06:15:00 10.2 C 74 % 5.78 C
2381 17-03-2019 06:20:00 10.2 C 74 % 5.78 C
2382 17-03-2019 06:25:00 10.2 C 74 % 5.78 C
2383 17-03-2019 06:30:00 10.2 C 74 % 5.78 C
2384 17-03-2019 06:35:00 10.2 C 74 % 5.78 C
2385 17-03-2019 06:40:00 10.3 C 74 % 5.88 C
2386 17-03-2019 06:45:00 10.3 C 74 % 5.88 C
2387 17-03-2019 06:50:00 10.3 C 75 % 6.07 C
2388 17-03-2019 06:55:00 10.3 C 75 % 6.07 C
2389 17-03-2019 07:00:00 10.3 C 75 % 6.07 C
2390 17-03-2019 07:05:00 10.2 C 75 % 5.97 C
2391 17-03-2019 07:10:00 10.3 C 76 % 6.26 C
2392 17-03-2019 07:15:00 10.3 C 75 % 6.07 C
2393 17-03-2019 07:20:00 10.3 C 76 % 6.26 C
2394 17-03-2019 07:25:00 10.3 C 76 % 6.26 C
2395 17-03-2019 07:30:00 10.2 C 76 % 6.16 C
2396 17-03-2019 07:35:00 10.2 C 76 % 6.16 C
2397 17-03-2019 07:40:00 10.2 C 76 % 6.16 C
2398 17-03-2019 07:45:00 10.2 C 77 % 6.35 C
2399 17-03-2019 07:50:00 10.2 C 77 % 6.35 C
2400 17-03-2019 07:55:00 10.2 C 77 % 6.35 C
Sensor: Nr:Datum:Temp:Feuchte:Taupunkt:
Aussen-T/F 2401 17-03-2019 08:00:00 10.2 C 77 % 6.35 C
2402 17-03-2019 08:05:00 10.3 C 77 % 6.45 C
2403 17-03-2019 08:10:00 10.3 C 78 % 6.64 C
2404 17-03-2019 08:15:00 10.3 C 78 % 6.64 C
2405 17-03-2019 08:20:00 10.2 C 78 % 6.54 C
2406 17-03-2019 08:25:00 10.2 C 79 % 6.73 C
2407 17-03-2019 08:30:00 10.2 C 79 % 6.73 C
2408 17-03-2019 08:35:00 10.1 C 80 % 6.81 C
2409 17-03-2019 08:40:00 10.1 C 80 % 6.81 C
2410 17-03-2019 08:45:00 10.1 C 80 % 6.81 C
2411 17-03-2019 08:50:00 10.2 C 80 % 6.91 C
2412 17-03-2019 08:55:00 10.2 C 80 % 6.91 C
2413 17-03-2019 09:00:00 10.2 C 80 % 6.91 C
2414 17-03-2019 09:05:00 10.2 C 80 % 6.91 C
2415 17-03-2019 09:10:00 10.2 C 80 % 6.91 C
2416 17-03-2019 09:15:00 10.2 C 80 % 6.91 C
2417 17-03-2019 09:20:00 10.3 C 80 % 7.01 C
2418 17-03-2019 09:25:00 10.3 C 79 % 6.82 C
2419 17-03-2019 09:30:00 10.3 C 79 % 6.82 C
2420 17-03-2019 09:35:00 10.3 C 80 % 7.01 C
2421 17-03-2019 09:40:00 10.3 C 79 % 6.82 C
2422 17-03-2019 09:45:00 10.3 C 79 % 6.82 C
2423 17-03-2019 09:50:00 10.3 C 80 % 7.01 C
2424 17-03-2019 09:55:00 10.3 C 80 % 7.01 C
2425 17-03-2019 10:00:00 10.3 C 80 % 7.01 C
Sensor: Nr:Datum:Temp:Feuchte:Taupunkt:
Aussen-T/F 2426 17-03-2019 10:05:00 10.2 C 81 % 7.09 C
2427 17-03-2019 10:10:00 10.2 C 82 % 7.27 C
2428 17-03-2019 10:15:00 10.1 C 82 % 7.17 C
2429 17-03-2019 10:20:00 10.1 C 82 % 7.17 C
2430 17-03-2019 10:25:00 10.1 C 82 % 7.17 C
2431 17-03-2019 10:30:00 9.9 C 82 % 6.98 C
2432 17-03-2019 10:35:00 9.8 C 83 % 7.05 C
2433 17-03-2019 10:40:00 9.7 C 84 % 7.13 C
2434 17-03-2019 10:45:00 9.6 C 84 % 7.03 C
2435 17-03-2019 10:50:00 9.5 C 85 % 7.11 C
2436 17-03-2019 10:55:00 9.2 C 84 % 6.64 C
2437 17-03-2019 11:00:00 8.8 C 84 % 6.25 C
2438 17-03-2019 11:05:00 8.3 C 85 % 5.93 C
2439 17-03-2019 11:10:00 8.1 C 85 % 5.73 C
2440 17-03-2019 11:15:00 7.9 C 85 % 5.54 C
2441 17-03-2019 11:20:00 7.8 C 85 % 5.44 C
2442 17-03-2019 11:25:00 7.8 C 85 % 5.44 C
2443 17-03-2019 11:30:00 7.9 C 84 % 5.37 C
2444 17-03-2019 11:35:00 7.9 C 84 % 5.37 C
2445 17-03-2019 11:40:00 7.9 C 83 % 5.2 C
2446 17-03-2019 11:45:00 8 C 83 % 5.29 C
2447 17-03-2019 11:50:00 8.2 C 83 % 5.49 C
2448 17-03-2019 11:55:00 8.3 C 82 % 5.41 C
2449 17-03-2019 12:00:00 8.3 C 81 % 5.24 C
2450 17-03-2019 12:05:00 8.4 C 81 % 5.33 C
Sensor: Nr:Datum:Temp:Feuchte:Taupunkt:
Aussen-T/F 2451 17-03-2019 12:10:00 8.6 C 81 % 5.53 C
2452 17-03-2019 12:15:00 8.7 C 80 % 5.45 C
2453 17-03-2019 12:20:00 8.8 C 79 % 5.36 C
2454 17-03-2019 12:25:00 8.9 C 79 % 5.46 C
2455 17-03-2019 12:30:00 9 C 78 % 5.38 C
2456 17-03-2019 12:35:00 9 C 79 % 5.56 C
2457 17-03-2019 12:40:00 9 C 78 % 5.38 C
2458 17-03-2019 12:45:00 8.9 C 77 % 5.09 C
2459 17-03-2019 12:50:00 8.9 C 77 % 5.09 C
2460 17-03-2019 12:55:00 8.9 C 78 % 5.28 C
2461 17-03-2019 13:00:00 9.1 C 78 % 5.47 C
2462 17-03-2019 13:05:00 9.2 C 77 % 5.38 C
2463 17-03-2019 13:10:00 9.4 C 77 % 5.58 C
2464 17-03-2019 13:15:00 9.7 C 76 % 5.68 C
2465 17-03-2019 13:20:00 9.8 C 76 % 5.78 C
2466 17-03-2019 13:25:00 9.8 C 76 % 5.78 C
2467 17-03-2019 13:30:00 9.9 C 76 % 5.87 C
2468 17-03-2019 13:35:00 10.1 C 75 % 5.88 C
2469 17-03-2019 13:40:00 10.1 C 74 % 5.68 C
2470 17-03-2019 13:45:00 10.2 C 75 % 5.97 C
2471 17-03-2019 13:50:00 10.2 C 74 % 5.78 C
2472 17-03-2019 13:55:00 10.2 C 75 % 5.97 C
2473 17-03-2019 14:00:00 10.3 C 73 % 5.68 C
2474 17-03-2019 14:05:00 10.6 C 72 % 5.77 C
2475 17-03-2019 14:10:00 10.7 C 68 % 5.04 C
Sensor: Nr:Datum:Temp:Feuchte:Taupunkt:
Aussen-T/F 2476 17-03-2019 14:15:00 10.9 C 65 % 4.59 C
2477 17-03-2019 14:20:00 10.7 C 63 % 3.95 C
2478 17-03-2019 14:25:00 10.6 C 63 % 3.86 C
2479 17-03-2019 14:30:00 10.7 C 67 % 4.83 C
2480 17-03-2019 14:35:00 10.8 C 63 % 4.05 C
2481 17-03-2019 14:40:00 10.9 C 59 % 3.21 C
2482 17-03-2019 14:45:00 10.9 C 60 % 3.45 C
2483 17-03-2019 14:50:00 10.8 C 60 % 3.36 C
2484 17-03-2019 14:55:00 10.7 C 62 % 3.73 C
2485 17-03-2019 15:00:00 10.8 C 63 % 4.05 C
2486 17-03-2019 15:05:00 10.9 C 64 % 4.37 C
2487 17-03-2019 15:10:00 11.1 C 67 % 5.21 C
2488 17-03-2019 15:15:00 11.3 C 66 % 5.19 C
2489 17-03-2019 15:20:00 11.4 C 65 % 5.06 C
2490 17-03-2019 15:25:00 11.6 C 62 % 4.58 C
2491 17-03-2019 15:30:00 11.4 C 61 % 4.16 C
2492 17-03-2019 15:35:00 11.2 C 64 % 4.65 C
2493 17-03-2019 15:40:00 10.9 C 65 % 4.59 C
2494 17-03-2019 15:45:00 10.7 C 68 % 5.04 C
2495 17-03-2019 15:50:00 10.5 C 69 % 5.06 C
2496 17-03-2019 15:55:00 10.4 C 71 % 5.38 C
2497 17-03-2019 16:00:00 10.3 C 72 % 5.48 C
2498 17-03-2019 16:05:00 10.4 C 72 % 5.58 C
2499 17-03-2019 16:10:00 10.5 C 69 % 5.06 C
2500 17-03-2019 16:15:00 10.5 C 65 % 4.21 C
Sensor: Nr:Datum:Temp:Feuchte:Taupunkt:
Aussen-T/F 2501 17-03-2019 16:20:00 10.4 C 63 % 3.67 C
2502 17-03-2019 16:25:00 10.3 C 61 % 3.12 C
2503 17-03-2019 16:30:00 10.2 C 60 % 2.79 C
2504 17-03-2019 16:35:00 10 C 61 % 2.84 C
2505 17-03-2019 16:40:00 9.8 C 64 % 3.32 C
2506 17-03-2019 16:45:00 9.6 C 62 % 2.69 C
2507 17-03-2019 16:50:00 9.4 C 63 % 2.72 C
2508 17-03-2019 16:55:00 9.2 C 63 % 2.53 C
2509 17-03-2019 17:00:00 8.6 C 65 % 2.4 C
2510 17-03-2019 17:05:00 8.2 C 68 % 2.66 C
2511 17-03-2019 17:10:00 7.9 C 68 % 2.37 C
2512 17-03-2019 17:15:00 7.9 C 68 % 2.37 C
2513 17-03-2019 17:20:00 7.9 C 68 % 2.37 C
2514 17-03-2019 17:25:00 8 C 67 % 2.26 C
2515 17-03-2019 17:30:00 8 C 67 % 2.26 C
2516 17-03-2019 17:35:00 7.9 C 69 % 2.57 C
2517 17-03-2019 17:40:00 7.8 C 71 % 2.88 C
2518 17-03-2019 17:45:00 7.6 C 73 % 3.08 C
2519 17-03-2019 17:50:00 7.5 C 74 % 3.17 C
2520 17-03-2019 17:55:00 7.4 C 75 % 3.27 C
2521 17-03-2019 18:00:00 7.3 C 75 % 3.17 C
2522 17-03-2019 18:05:00 7.2 C 76 % 3.26 C
2523 17-03-2019 18:10:00 7.2 C 75 % 3.07 C
2524 17-03-2019 18:15:00 7.2 C 75 % 3.07 C
2525 17-03-2019 18:20:00 7.2 C 75 % 3.07 C
Sensor: Nr:Datum:Temp:Feuchte:Taupunkt:
Aussen-T/F 2526 17-03-2019 18:25:00 7.3 C 74 % 2.98 C
2527 17-03-2019 18:30:00 7.2 C 74 % 2.89 C
2528 17-03-2019 18:35:00 7 C 74 % 2.69 C
2529 17-03-2019 18:40:00 6.8 C 76 % 2.87 C
2530 17-03-2019 18:45:00 6.7 C 77 % 2.96 C
2531 17-03-2019 18:50:00 6.6 C 78 % 3.05 C
2532 17-03-2019 18:55:00 6.5 C 78 % 2.95 C
2533 17-03-2019 19:00:00 6.4 C 79 % 3.03 C
2534 17-03-2019 19:05:00 6.4 C 79 % 3.03 C
2535 17-03-2019 19:10:00 6.3 C 79 % 2.93 C
2536 17-03-2019 19:15:00 6.2 C 80 % 3.01 C
2537 17-03-2019 19:20:00 6.1 C 80 % 2.92 C
2538 17-03-2019 19:25:00 5.9 C 80 % 2.72 C
2539 17-03-2019 19:30:00 5.9 C 80 % 2.72 C
2540 17-03-2019 19:35:00 5.8 C 81 % 2.8 C
2541 17-03-2019 19:40:00 5.8 C 81 % 2.8 C
2542 17-03-2019 19:45:00 5.9 C 81 % 2.9 C
2543 17-03-2019 19:50:00 5.6 C 82 % 2.78 C
2544 17-03-2019 19:55:00 5.2 C 85 % 2.89 C
2545 17-03-2019 20:00:00 5 C 87 % 3.02 C
2546 17-03-2019 20:05:00 4.9 C 88 % 3.08 C
2547 17-03-2019 20:10:00 4.7 C 89 % 3.05 C
2548 17-03-2019 20:15:00 4.7 C 89 % 3.05 C
2549 17-03-2019 20:20:00 4.6 C 89 % 2.95 C
2550 17-03-2019 20:25:00 4.6 C 89 % 2.95 C
Sensor: Nr:Datum:Temp:Feuchte:Taupunkt:
Aussen-T/F 2551 17-03-2019 20:30:00 4.5 C 88 % 2.69 C
2552 17-03-2019 20:35:00 4.4 C 89 % 2.75 C
2553 17-03-2019 20:40:00 4.3 C 89 % 2.65 C
2554 17-03-2019 20:45:00 4.2 C 89 % 2.55 C
2555 17-03-2019 20:50:00 4.2 C 90 % 2.71 C
2556 17-03-2019 20:55:00 4.1 C 90 % 2.61 C
2557 17-03-2019 21:00:00 4.2 C 90 % 2.71 C
2558 17-03-2019 21:05:00 4.1 C 90 % 2.61 C
2559 17-03-2019 21:10:00 4.1 C 91 % 2.77 C
2560 17-03-2019 21:15:00 4.1 C 90 % 2.61 C
2561 17-03-2019 21:20:00 4.1 C 91 % 2.77 C
2562 17-03-2019 21:25:00 4.1 C 90 % 2.61 C
2563 17-03-2019 21:30:00 4.1 C 91 % 2.77 C
2564 17-03-2019 21:35:00 4 C 91 % 2.67 C
2565 17-03-2019 21:40:00 4 C 90 % 2.51 C
2566 17-03-2019 21:45:00 3.9 C 90 % 2.41 C
2567 17-03-2019 21:50:00 3.8 C 90 % 2.31 C
2568 17-03-2019 21:55:00 3.8 C 91 % 2.47 C
2569 17-03-2019 22:00:00 3.8 C 91 % 2.47 C
2570 17-03-2019 22:05:00 3.8 C 91 % 2.47 C
2571 17-03-2019 22:10:00 3.8 C 91 % 2.47 C
2572 17-03-2019 22:15:00 3.9 C 90 % 2.41 C
2573 17-03-2019 22:20:00 3.9 C 90 % 2.41 C
2574 17-03-2019 22:25:00 3.9 C 90 % 2.41 C
2575 17-03-2019 22:30:00 3.9 C 90 % 2.41 C
Sensor: Nr:Datum:Temp:Feuchte:Taupunkt:
Aussen-T/F 2576 17-03-2019 22:35:00 3.9 C 90 % 2.41 C
2577 17-03-2019 22:40:00 3.9 C 90 % 2.41 C
2578 17-03-2019 22:45:00 3.9 C 89 % 2.26 C
2579 17-03-2019 22:50:00 3.9 C 88 % 2.1 C
2580 17-03-2019 22:55:00 3.9 C 88 % 2.1 C
2581 17-03-2019 23:00:00 3.9 C 88 % 2.1 C
2582 17-03-2019 23:05:00 3.9 C 88 % 2.1 C
2583 17-03-2019 23:10:00 4 C 88 % 2.2 C
2584 17-03-2019 23:15:00 4 C 88 % 2.2 C
2585 17-03-2019 23:20:00 3.9 C 88 % 2.1 C
2586 17-03-2019 23:25:00 3.9 C 88 % 2.1 C
2587 17-03-2019 23:30:00 3.9 C 88 % 2.1 C
2588 17-03-2019 23:35:00 3.9 C 88 % 2.1 C
2589 17-03-2019 23:40:00 3.8 C 88 % 2 C
2590 17-03-2019 23:45:00 3.7 C 88 % 1.9 C
2591 17-03-2019 23:50:00 3.6 C 88 % 1.8 C
2592 17-03-2019 23:55:00 3.5 C 88 % 1.7 C
2593 18-03-2019 00:00:00 3.4 C 89 % 1.76 C
2594 18-03-2019 00:05:00 3.3 C 89 % 1.67 C
2595 18-03-2019 00:10:00 3.2 C 89 % 1.57 C
2596 18-03-2019 00:15:00 3.1 C 89 % 1.47 C
2597 18-03-2019 00:20:00 3 C 89 % 1.37 C
2598 18-03-2019 00:25:00 2.9 C 90 % 1.43 C
2599 18-03-2019 00:30:00 2.8 C 90 % 1.33 C
2600 18-03-2019 00:35:00 2.7 C 90 % 1.23 C
Sensor: Nr:Datum:Temp:Feuchte:Taupunkt:
Aussen-T/F 2601 18-03-2019 00:40:00 2.7 C 91 % 1.38 C
2602 18-03-2019 00:45:00 2.7 C 92 % 1.53 C
2603 18-03-2019 00:50:00 2.8 C 91 % 1.48 C
2604 18-03-2019 00:55:00 2.8 C 91 % 1.48 C
2605 18-03-2019 01:00:00 2.7 C 91 % 1.38 C
2606 18-03-2019 01:05:00 2.6 C 91 % 1.28 C
2607 18-03-2019 01:10:00 2.6 C 92 % 1.43 C
2608 18-03-2019 01:15:00 2.6 C 92 % 1.43 C
2609 18-03-2019 01:20:00 2.7 C 92 % 1.53 C
2610 18-03-2019 01:25:00 2.7 C 92 % 1.53 C
2611 18-03-2019 01:30:00 2.6 C 92 % 1.43 C
2612 18-03-2019 01:35:00 2.5 C 91 % 1.18 C
2613 18-03-2019 01:40:00 2.4 C 91 % 1.08 C
2614 18-03-2019 01:45:00 2.3 C 92 % 1.14 C
2615 18-03-2019 01:50:00 2.4 C 92 % 1.24 C
2616 18-03-2019 01:55:00 2.5 C 92 % 1.34 C
2617 18-03-2019 02:00:00 2.7 C 93 % 1.68 C
2618 18-03-2019 02:05:00 2.8 C 93 % 1.78 C
2619 18-03-2019 02:10:00 2.9 C 92 % 1.73 C
2620 18-03-2019 02:15:00 2.9 C 92 % 1.73 C
2621 18-03-2019 02:20:00 2.9 C 92 % 1.73 C
2622 18-03-2019 02:25:00 2.9 C 92 % 1.73 C
2623 18-03-2019 02:30:00 3.1 C 92 % 1.93 C
2624 18-03-2019 02:35:00 3.3 C 91 % 1.98 C
2625 18-03-2019 02:40:00 3.6 C 90 % 2.12 C
Sensor: Nr:Datum:Temp:Feuchte:Taupunkt:
Aussen-T/F 2626 18-03-2019 02:45:00 3.8 C 89 % 2.16 C
2627 18-03-2019 02:50:00 3.9 C 88 % 2.1 C
2628 18-03-2019 02:55:00 3.9 C 88 % 2.1 C
2629 18-03-2019 03:00:00 3.9 C 88 % 2.1 C
2630 18-03-2019 03:05:00 3.9 C 88 % 2.1 C
2631 18-03-2019 03:10:00 3.8 C 87 % 1.84 C
2632 18-03-2019 03:15:00 3.8 C 87 % 1.84 C
2633 18-03-2019 03:20:00 3.8 C 88 % 2 C
2634 18-03-2019 03:25:00 3.7 C 88 % 1.9 C
2635 18-03-2019 03:30:00 3.6 C 88 % 1.8 C
2636 18-03-2019 03:35:00 3.4 C 89 % 1.76 C
2637 18-03-2019 03:40:00 3.4 C 89 % 1.76 C
2638 18-03-2019 03:45:00 3.3 C 89 % 1.67 C
2639 18-03-2019 03:50:00 3.4 C 89 % 1.76 C
2640 18-03-2019 03:55:00 3.4 C 90 % 1.92 C
2641 18-03-2019 04:00:00 3.4 C 89 % 1.76 C
2642 18-03-2019 04:05:00 3.4 C 89 % 1.76 C
2643 18-03-2019 04:10:00 3.4 C 90 % 1.92 C
2644 18-03-2019 04:15:00 3.4 C 89 % 1.76 C
2645 18-03-2019 04:20:00 3.4 C 89 % 1.76 C
2646 18-03-2019 04:25:00 3.3 C 89 % 1.67 C
2647 18-03-2019 04:30:00 3.2 C 89 % 1.57 C
2648 18-03-2019 04:35:00 3.2 C 90 % 1.72 C
2649 18-03-2019 04:40:00 3.1 C 90 % 1.62 C
2650 18-03-2019 04:45:00 3.1 C 90 % 1.62 C
Sensor: Nr:Datum:Temp:Feuchte:Taupunkt:
Aussen-T/F 2651 18-03-2019 04:50:00 3.1 C 90 % 1.62 C
2652 18-03-2019 04:55:00 3 C 90 % 1.52 C
2653 18-03-2019 05:00:00 2.9 C 90 % 1.43 C
2654 18-03-2019 05:05:00 2.9 C 90 % 1.43 C
2655 18-03-2019 05:10:00 2.9 C 90 % 1.43 C
2656 18-03-2019 05:15:00 2.9 C 90 % 1.43 C
2657 18-03-2019 05:20:00 3.1 C 90 % 1.62 C
2658 18-03-2019 05:25:00 3.1 C 90 % 1.62 C
2659 18-03-2019 05:30:00 3.2 C 90 % 1.72 C
2660 18-03-2019 05:35:00 3.2 C 89 % 1.57 C
2661 18-03-2019 05:40:00 3.2 C 89 % 1.57 C
2662 18-03-2019 05:45:00 3.2 C 89 % 1.57 C
2663 18-03-2019 05:50:00 3.3 C 89 % 1.67 C
2664 18-03-2019 05:55:00 3.4 C 89 % 1.76 C
2665 18-03-2019 06:00:00 3.5 C 88 % 1.7 C
2666 18-03-2019 06:05:00 3.6 C 88 % 1.8 C
2667 18-03-2019 06:10:00 3.7 C 87 % 1.74 C
2668 18-03-2019 06:15:00 3.8 C 87 % 1.84 C
2669 18-03-2019 06:20:00 4 C 86 % 1.88 C
2670 18-03-2019 06:25:00 4.1 C 86 % 1.97 C
2671 18-03-2019 06:30:00 4.2 C 86 % 2.07 C
2672 18-03-2019 06:35:00 4.2 C 86 % 2.07 C
2673 18-03-2019 06:40:00 4.1 C 86 % 1.97 C
2674 18-03-2019 06:45:00 4.1 C 86 % 1.97 C
2675 18-03-2019 06:50:00 4.1 C 86 % 1.97 C
Sensor: Nr:Datum:Temp:Feuchte:Taupunkt:
Aussen-T/F 2676 18-03-2019 06:55:00 4.1 C 86 % 1.97 C
2677 18-03-2019 07:00:00 4 C 86 % 1.88 C
2678 18-03-2019 07:05:00 3.9 C 86 % 1.78 C
2679 18-03-2019 07:10:00 3.9 C 87 % 1.94 C
2680 18-03-2019 07:15:00 3.9 C 87 % 1.94 C
2681 18-03-2019 07:20:00 3.9 C 88 % 2.1 C
2682 18-03-2019 07:25:00 4.1 C 87 % 2.14 C
2683 18-03-2019 07:30:00 4.3 C 87 % 2.33 C
2684 18-03-2019 07:35:00 4.3 C 87 % 2.33 C
2685 18-03-2019 07:40:00 4.4 C 86 % 2.27 C
2686 18-03-2019 07:45:00 4.6 C 86 % 2.47 C
2687 18-03-2019 07:50:00 4.7 C 85 % 2.4 C
2688 18-03-2019 07:55:00 4.7 C 85 % 2.4 C
2689 18-03-2019 08:00:00 4.8 C 85 % 2.5 C
2690 18-03-2019 08:05:00 4.8 C 85 % 2.5 C
2691 18-03-2019 08:10:00 4.8 C 85 % 2.5 C
2692 18-03-2019 08:15:00 4.9 C 85 % 2.6 C
2693 18-03-2019 08:20:00 4.9 C 86 % 2.76 C
2694 18-03-2019 08:25:00 5 C 86 % 2.86 C
2695 18-03-2019 08:30:00 5.1 C 86 % 2.96 C
2696 18-03-2019 08:35:00 5.1 C 86 % 2.96 C
2697 18-03-2019 08:40:00 5.2 C 86 % 3.05 C
2698 18-03-2019 08:45:00 5.3 C 86 % 3.15 C
2699 18-03-2019 08:50:00 5.3 C 86 % 3.15 C
2700 18-03-2019 08:55:00 5.3 C 87 % 3.32 C
Sensor: Nr:Datum:Temp:Feuchte:Taupunkt:
Aussen-T/F 2701 18-03-2019 09:00:00 5.2 C 88 % 3.38 C
2702 18-03-2019 09:05:00 5.1 C 89 % 3.44 C
2703 18-03-2019 09:10:00 5 C 89 % 3.34 C
2704 18-03-2019 09:15:00 5 C 90 % 3.5 C
2705 18-03-2019 09:20:00 5.1 C 90 % 3.6 C
2706 18-03-2019 09:25:00 5.1 C 90 % 3.6 C
2707 18-03-2019 09:30:00 5.2 C 91 % 3.85 C
2708 18-03-2019 09:35:00 5.1 C 89 % 3.44 C
2709 18-03-2019 09:40:00 4.9 C 89 % 3.24 C
2710 18-03-2019 09:45:00 4.9 C 90 % 3.4 C
2711 18-03-2019 09:50:00 5 C 90 % 3.5 C
2712 18-03-2019 09:55:00 5.2 C 90 % 3.7 C
2713 18-03-2019 10:00:00 5.3 C 90 % 3.8 C
2714 18-03-2019 10:05:00 5.6 C 90 % 4.09 C
2715 18-03-2019 10:10:00 5.9 C 89 % 4.23 C
2716 18-03-2019 10:15:00 6.2 C 88 % 4.36 C
2717 18-03-2019 10:20:00 6.3 C 87 % 4.3 C
2718 18-03-2019 10:25:00 6.4 C 85 % 4.07 C
2719 18-03-2019 10:30:00 6.4 C 84 % 3.9 C
2720 18-03-2019 10:35:00 6.5 C 84 % 4 C
2721 18-03-2019 10:40:00 6.7 C 84 % 4.19 C
2722 18-03-2019 10:45:00 6.9 C 84 % 4.39 C
2723 18-03-2019 10:50:00 7.1 C 82 % 4.24 C
2724 18-03-2019 10:55:00 7.1 C 81 % 4.07 C
2725 18-03-2019 11:00:00 7 C 81 % 3.97 C
Sensor: Nr:Datum:Temp:Feuchte:Taupunkt:
Aussen-T/F 2726 18-03-2019 11:05:00 7 C 82 % 4.14 C
2727 18-03-2019 11:10:00 7.2 C 82 % 4.34 C
2728 18-03-2019 11:15:00 7.4 C 81 % 4.36 C
2729 18-03-2019 11:20:00 7.7 C 80 % 4.47 C
2730 18-03-2019 11:25:00 7.7 C 78 % 4.11 C
2731 18-03-2019 11:30:00 7.7 C 78 % 4.11 C
2732 18-03-2019 11:35:00 7.9 C 77 % 4.12 C
2733 18-03-2019 11:40:00 8.1 C 74 % 3.75 C
2734 18-03-2019 11:45:00 8.2 C 72 % 3.46 C
2735 18-03-2019 11:50:00 8.4 C 72 % 3.65 C
2736 18-03-2019 11:55:00 8.6 C 72 % 3.85 C
2737 18-03-2019 12:00:00 8.7 C 70 % 3.54 C
2738 18-03-2019 12:05:00 8.6 C 68 % 3.04 C
2739 18-03-2019 12:10:00 8.5 C 70 % 3.35 C
2740 18-03-2019 12:15:00 8.8 C 68 % 3.23 C
2741 18-03-2019 12:20:00 9.1 C 68 % 3.52 C
2742 18-03-2019 12:25:00 9.1 C 65 % 2.88 C
2743 18-03-2019 12:30:00 8.8 C 66 % 2.81 C
2744 18-03-2019 12:35:00 8.6 C 70 % 3.45 C
2745 18-03-2019 12:40:00 7.5 C 75 % 3.36 C
2746 18-03-2019 12:45:00 6.7 C 79 % 3.32 C
2747 18-03-2019 12:50:00 6.3 C 81 % 3.29 C
2748 18-03-2019 12:55:00 6.1 C 83 % 3.44 C
2749 18-03-2019 13:00:00 6.1 C 85 % 3.77 C
2750 18-03-2019 13:05:00 6 C 85 % 3.67 C
Sensor: Nr:Datum:Temp:Feuchte:Taupunkt:
Aussen-T/F 2751 18-03-2019 13:10:00 6 C 86 % 3.84 C
2752 18-03-2019 13:15:00 6.1 C 86 % 3.94 C
2753 18-03-2019 13:20:00 6.2 C 86 % 4.04 C
2754 18-03-2019 13:25:00 6.4 C 87 % 4.4 C
2755 18-03-2019 13:30:00 6.7 C 87 % 4.69 C
2756 18-03-2019 13:35:00 6.8 C 85 % 4.46 C
2757 18-03-2019 13:40:00 7.1 C 85 % 4.75 C
2758 18-03-2019 13:45:00 7.3 C 84 % 4.78 C
2759 18-03-2019 13:50:00 7.5 C 82 % 4.63 C
2760 18-03-2019 13:55:00 7.8 C 80 % 4.57 C
2761 18-03-2019 14:00:00 8.2 C 78 % 4.6 C
2762 18-03-2019 14:05:00 8.6 C 78 % 4.99 C
2763 18-03-2019 14:10:00 8.7 C 76 % 4.71 C
2764 18-03-2019 14:15:00 8.6 C 77 % 4.8 C
2765 18-03-2019 14:20:00 8.2 C 72 % 3.46 C
2766 18-03-2019 14:25:00 8 C 74 % 3.66 C
2767 18-03-2019 14:30:00 8.2 C 72 % 3.46 C
2768 18-03-2019 14:35:00 8.4 C 71 % 3.46 C
2769 18-03-2019 14:40:00 8.7 C 69 % 3.34 C
2770 18-03-2019 14:45:00 8.8 C 67 % 3.02 C
2771 18-03-2019 14:50:00 8.7 C 66 % 2.71 C
2772 18-03-2019 14:55:00 8.1 C 73 % 3.56 C
2773 18-03-2019 15:00:00 7.3 C 79 % 3.91 C
2774 18-03-2019 15:05:00 6.8 C 82 % 3.95 C
2775 18-03-2019 15:10:00 6.4 C 85 % 4.07 C
Sensor: Nr:Datum:Temp:Feuchte:Taupunkt:
Aussen-T/F 2776 18-03-2019 15:15:00 6.3 C 86 % 4.14 C
2777 18-03-2019 15:20:00 6.3 C 88 % 4.46 C
2778 18-03-2019 15:25:00 6.3 C 86 % 4.14 C
2779 18-03-2019 15:30:00 6.5 C 88 % 4.66 C
2780 18-03-2019 15:35:00 6.7 C 88 % 4.86 C
2781 18-03-2019 15:40:00 6.8 C 88 % 4.96 C
2782 18-03-2019 15:45:00 6.9 C 86 % 4.72 C
2783 18-03-2019 15:50:00 7.1 C 88 % 5.25 C
2784 18-03-2019 15:55:00 7.2 C 87 % 5.19 C
2785 18-03-2019 16:00:00 7.3 C 87 % 5.28 C
2786 18-03-2019 16:05:00 7.2 C 87 % 5.19 C
2787 18-03-2019 16:10:00 7.1 C 87 % 5.09 C
2788 18-03-2019 16:15:00 6.8 C 87 % 4.79 C
2789 18-03-2019 16:20:00 6.7 C 88 % 4.86 C
2790 18-03-2019 16:25:00 6.6 C 88 % 4.76 C
2791 18-03-2019 16:30:00 6.6 C 89 % 4.92 C
2792 18-03-2019 16:35:00 6.6 C 89 % 4.92 C
2793 18-03-2019 16:40:00 6.7 C 85 % 4.36 C
2794 18-03-2019 16:45:00 6.8 C 83 % 4.12 C
2795 18-03-2019 16:50:00 7 C 83 % 4.32 C
2796 18-03-2019 16:55:00 7.1 C 81 % 4.07 C
2797 18-03-2019 17:00:00 7.3 C 82 % 4.44 C
2798 18-03-2019 17:05:00 7.7 C 79 % 4.3 C
2799 18-03-2019 17:10:00 8.2 C 78 % 4.6 C
2800 18-03-2019 17:15:00 8.5 C 75 % 4.33 C
Sensor: Nr:Datum:Temp:Feuchte:Taupunkt:
Aussen-T/F 2801 18-03-2019 17:20:00 8.5 C 73 % 3.95 C
2802 18-03-2019 17:25:00 8.3 C 73 % 3.75 C
2803 18-03-2019 17:30:00 8.1 C 74 % 3.75 C
2804 18-03-2019 17:35:00 7.9 C 72 % 3.17 C
2805 18-03-2019 17:40:00 7.8 C 72 % 3.08 C
2806 18-03-2019 17:45:00 7.8 C 72 % 3.08 C
2807 18-03-2019 17:50:00 7.7 C 70 % 2.58 C
2808 18-03-2019 17:55:00 7.7 C 72 % 2.98 C
2809 18-03-2019 18:00:00 7.6 C 70 % 2.49 C
2810 18-03-2019 18:05:00 7.5 C 72 % 2.79 C
2811 18-03-2019 18:10:00 7.4 C 72 % 2.69 C
2812 18-03-2019 18:15:00 7.6 C 75 % 3.46 C
2813 18-03-2019 18:20:00 7.7 C 73 % 3.18 C
2814 18-03-2019 18:25:00 7.9 C 74 % 3.56 C
2815 18-03-2019 18:30:00 7.9 C 75 % 3.75 C
2816 18-03-2019 18:35:00 7.8 C 76 % 3.84 C
2817 18-03-2019 18:40:00 7.6 C 77 % 3.83 C
2818 18-03-2019 18:45:00 7.3 C 79 % 3.91 C
2819 18-03-2019 18:50:00 7 C 80 % 3.79 C
2820 18-03-2019 18:55:00 6.6 C 81 % 3.58 C
2821 18-03-2019 19:00:00 6.3 C 82 % 3.46 C
2822 18-03-2019 19:05:00 5.9 C 82 % 3.07 C
2823 18-03-2019 19:10:00 5.6 C 83 % 2.95 C
2824 18-03-2019 19:15:00 5.4 C 85 % 3.09 C
2825 18-03-2019 19:20:00 5.2 C 85 % 2.89 C
Sensor: Nr:Datum:Temp:Feuchte:Taupunkt:
Aussen-T/F 2826 18-03-2019 19:25:00 5.1 C 86 % 2.96 C
2827 18-03-2019 19:30:00 4.9 C 86 % 2.76 C
2828 18-03-2019 19:35:00 4.9 C 87 % 2.92 C
2829 18-03-2019 19:40:00 4.9 C 87 % 2.92 C
2830 18-03-2019 19:45:00 4.8 C 87 % 2.82 C
2831 18-03-2019 19:50:00 4.8 C 87 % 2.82 C
2832 18-03-2019 19:55:00 4.7 C 87 % 2.73 C
2833 18-03-2019 20:00:00 4.6 C 86 % 2.47 C
2834 18-03-2019 20:05:00 4.4 C 86 % 2.27 C
2835 18-03-2019 20:10:00 4.3 C 86 % 2.17 C
2836 18-03-2019 20:15:00 4.2 C 86 % 2.07 C
2837 18-03-2019 20:20:00 4.1 C 85 % 1.81 C
2838 18-03-2019 20:25:00 4.1 C 86 % 1.97 C
2839 18-03-2019 20:30:00 4 C 86 % 1.88 C
2840 18-03-2019 20:35:00 3.9 C 86 % 1.78 C
2841 18-03-2019 20:40:00 3.8 C 86 % 1.68 C
2842 18-03-2019 20:45:00 3.7 C 86 % 1.58 C
2843 18-03-2019 20:50:00 3.6 C 86 % 1.48 C
2844 18-03-2019 20:55:00 3.5 C 87 % 1.55 C
2845 18-03-2019 21:00:00 3.4 C 87 % 1.45 C
2846 18-03-2019 21:05:00 3.3 C 87 % 1.35 C
2847 18-03-2019 21:10:00 3.2 C 87 % 1.25 C
2848 18-03-2019 21:15:00 3.2 C 87 % 1.25 C
2849 18-03-2019 21:20:00 3.2 C 88 % 1.41 C
2850 18-03-2019 21:25:00 3.1 C 88 % 1.31 C
Sensor: Nr:Datum:Temp:Feuchte:Taupunkt:
Aussen-T/F 2851 18-03-2019 21:30:00 3.1 C 88 % 1.31 C
2852 18-03-2019 21:35:00 3.1 C 88 % 1.31 C
2853 18-03-2019 21:40:00 3 C 88 % 1.21 C
2854 18-03-2019 21:45:00 2.9 C 89 % 1.27 C
2855 18-03-2019 21:50:00 2.8 C 89 % 1.17 C
2856 18-03-2019 21:55:00 2.8 C 89 % 1.17 C
2857 18-03-2019 22:00:00 2.7 C 89 % 1.07 C
2858 18-03-2019 22:05:00 2.6 C 89 % 0.97 C
2859 18-03-2019 22:10:00 2.4 C 89 % 0.78 C
2860 18-03-2019 22:15:00 2.3 C 89 % 0.68 C
2861 18-03-2019 22:20:00 2.1 C 89 % 0.48 C
2862 18-03-2019 22:25:00 1.9 C 89 % 0.28 C
2863 18-03-2019 22:30:00 1.8 C 90 % 0.34 C
2864 18-03-2019 22:35:00 1.8 C 90 % 0.34 C
2865 18-03-2019 22:40:00 1.8 C 90 % 0.34 C
2866 18-03-2019 22:45:00 1.7 C 91 % 0.39 C
2867 18-03-2019 22:50:00 1.7 C 91 % 0.39 C
2868 18-03-2019 22:55:00 1.7 C 91 % 0.39 C
2869 18-03-2019 23:00:00 1.6 C 91 % 0.29 C
2870 18-03-2019 23:05:00 1.6 C 91 % 0.29 C
2871 18-03-2019 23:10:00 1.6 C 92 % 0.44 C
2872 18-03-2019 23:15:00 1.6 C 92 % 0.44 C
2873 18-03-2019 23:20:00 1.6 C 92 % 0.44 C
2874 18-03-2019 23:25:00 1.6 C 92 % 0.44 C
2875 18-03-2019 23:30:00 1.5 C 92 % 0.35 C
Sensor: Nr:Datum:Temp:Feuchte:Taupunkt:
Aussen-T/F 2876 18-03-2019 23:35:00 1.4 C 92 % 0.25 C
2877 18-03-2019 23:40:00 1.4 C 92 % 0.25 C
2878 18-03-2019 23:45:00 1.3 C 92 % 0.15 C
2879 18-03-2019 23:50:00 1.3 C 92 % 0.15 C
2880 18-03-2019 23:55:00 1.3 C 92 % 0.15 C
2881 19-03-2019 00:00:00 1.2 C 92 % 0.05 C
2882 19-03-2019 00:05:00 1.1 C 92 % -0.05 C
2883 19-03-2019 00:10:00 1.1 C 92 % -0.05 C
2884 19-03-2019 00:15:00 1.1 C 93 % 0.1 C
2885 19-03-2019 00:20:00 1.1 C 92 % -0.05 C
2886 19-03-2019 00:25:00 1.1 C 93 % 0.1 C
2887 19-03-2019 00:30:00 1 C 93 % 0 C
2888 19-03-2019 00:35:00 0.9 C 92 % -0.25 C
2889 19-03-2019 00:40:00 0.8 C 92 % -0.35 C
2890 19-03-2019 00:45:00 0.7 C 92 % -0.45 C
2891 19-03-2019 00:50:00 0.6 C 92 % -0.55 C
2892 19-03-2019 00:55:00 0.5 C 93 % -0.5 C
2893 19-03-2019 01:00:00 0.5 C 93 % -0.5 C
2894 19-03-2019 01:05:00 0.5 C 93 % -0.5 C
2895 19-03-2019 01:10:00 0.5 C 93 % -0.5 C
2896 19-03-2019 01:15:00 0.4 C 93 % -0.6 C
2897 19-03-2019 01:20:00 0.4 C 93 % -0.6 C
2898 19-03-2019 01:25:00 0.3 C 93 % -0.7 C
2899 19-03-2019 01:30:00 0.3 C 93 % -0.7 C
2900 19-03-2019 01:35:00 0.3 C 93 % -0.7 C
Sensor: Nr:Datum:Temp:Feuchte:Taupunkt:
Aussen-T/F 2901 19-03-2019 01:40:00 0.4 C 93 % -0.6 C
2902 19-03-2019 01:45:00 0.3 C 93 % -0.7 C
2903 19-03-2019 01:50:00 0.2 C 93 % -0.79 C
2904 19-03-2019 01:55:00 0.2 C 93 % -0.79 C
2905 19-03-2019 02:00:00 0.1 C 93 % -0.89 C
2906 19-03-2019 02:05:00 0.1 C 93 % -0.89 C
2907 19-03-2019 02:10:00 -0.1 C 93 % -1.09 C
2908 19-03-2019 02:15:00 -0.1 C 93 % -1.09 C
2909 19-03-2019 02:20:00 -0.1 C 94 % -0.95 C
2910 19-03-2019 02:25:00 -0.1 C 94 % -0.95 C
2911 19-03-2019 02:30:00 -0.1 C 94 % -0.95 C
2912 19-03-2019 02:35:00 0 C 94 % -0.85 C
2913 19-03-2019 02:40:00 -0.1 C 94 % -0.95 C
2914 19-03-2019 02:45:00 -0.1 C 94 % -0.95 C
2915 19-03-2019 02:50:00 -0.1 C 94 % -0.95 C
2916 19-03-2019 02:55:00 0.1 C 94 % -0.75 C
2917 19-03-2019 03:00:00 0 C 94 % -0.85 C
2918 19-03-2019 03:05:00 -0.1 C 94 % -0.95 C
2919 19-03-2019 03:10:00 -0.2 C 94 % -1.05 C
2920 19-03-2019 03:15:00 -0.2 C 94 % -1.05 C
2921 19-03-2019 03:20:00 -0.2 C 94 % -1.05 C
2922 19-03-2019 03:25:00 -0.3 C 94 % -1.15 C
2923 19-03-2019 03:30:00 -0.3 C 94 % -1.15 C
2924 19-03-2019 03:35:00 -0.4 C 94 % -1.25 C
2925 19-03-2019 03:40:00 -0.4 C 94 % -1.25 C
Sensor: Nr:Datum:Temp:Feuchte:Taupunkt:
Aussen-T/F 2926 19-03-2019 03:45:00 -0.4 C 94 % -1.25 C
2927 19-03-2019 03:50:00 -0.5 C 94 % -1.34 C
2928 19-03-2019 03:55:00 -0.6 C 94 % -1.44 C
2929 19-03-2019 04:00:00 -0.7 C 94 % -1.54 C
2930 19-03-2019 04:05:00 -0.7 C 94 % -1.54 C
2931 19-03-2019 04:10:00 -0.7 C 94 % -1.54 C
2932 19-03-2019 04:15:00 -0.7 C 94 % -1.54 C
2933 19-03-2019 04:20:00 -0.6 C 94 % -1.44 C
2934 19-03-2019 04:25:00 -0.6 C 94 % -1.44 C
2935 19-03-2019 04:30:00 -0.6 C 94 % -1.44 C
2936 19-03-2019 04:35:00 -0.7 C 94 % -1.54 C
2937 19-03-2019 04:40:00 -0.8 C 94 % -1.64 C
2938 19-03-2019 04:45:00 -0.8 C 94 % -1.64 C
2939 19-03-2019 04:50:00 -0.8 C 94 % -1.64 C
2940 19-03-2019 04:55:00 -0.8 C 94 % -1.64 C
2941 19-03-2019 05:00:00 -0.9 C 94 % -1.74 C
2942 19-03-2019 05:05:00 -1 C 94 % -1.84 C
2943 19-03-2019 05:10:00 -1 C 94 % -1.84 C
2944 19-03-2019 05:15:00 -1.1 C 94 % -1.94 C
2945 19-03-2019 05:20:00 -1.1 C 94 % -1.94 C
2946 19-03-2019 05:25:00 -1.1 C 94 % -1.94 C
2947 19-03-2019 05:30:00 -1.1 C 94 % -1.94 C
2948 19-03-2019 05:35:00 -1 C 95 % -1.7 C
2949 19-03-2019 05:40:00 -0.9 C 95 % -1.6 C
2950 19-03-2019 05:45:00 -0.9 C 95 % -1.6 C
Sensor: Nr:Datum:Temp:Feuchte:Taupunkt:
Aussen-T/F 2951 19-03-2019 05:50:00 -1.1 C 94 % -1.94 C
2952 19-03-2019 05:55:00 -1.2 C 94 % -2.04 C
2953 19-03-2019 06:00:00 -1.2 C 94 % -2.04 C
2954 19-03-2019 06:05:00 -1.3 C 94 % -2.14 C
2955 19-03-2019 06:10:00 -1.3 C 94 % -2.14 C
2956 19-03-2019 06:15:00 -1.3 C 95 % -2 C
2957 19-03-2019 06:20:00 -1.3 C 95 % -2 C
2958 19-03-2019 06:25:00 -1.3 C 94 % -2.14 C
2959 19-03-2019 06:30:00 -1.1 C 95 % -1.8 C
2960 19-03-2019 06:35:00 -1.1 C 95 % -1.8 C
2961 19-03-2019 06:40:00 -1.1 C 95 % -1.8 C
2962 19-03-2019 06:45:00 -1.1 C 95 % -1.8 C
2963 19-03-2019 06:50:00 -1.2 C 95 % -1.9 C
2964 19-03-2019 06:55:00 -1.1 C 95 % -1.8 C
2965 19-03-2019 07:00:00 -1 C 95 % -1.7 C
2966 19-03-2019 07:05:00 -0.9 C 95 % -1.6 C
2967 19-03-2019 07:10:00 -0.8 C 95 % -1.5 C
2968 19-03-2019 07:15:00 -0.7 C 95 % -1.4 C
2969 19-03-2019 07:20:00 -0.5 C 95 % -1.2 C
2970 19-03-2019 07:25:00 -0.4 C 95 % -1.1 C
2971 19-03-2019 07:30:00 -0.3 C 96 % -0.86 C
2972 19-03-2019 07:35:00 -0.2 C 95 % -0.9 C
2973 19-03-2019 07:40:00 -0.1 C 95 % -0.8 C
2974 19-03-2019 07:45:00 0.1 C 96 % -0.46 C
2975 19-03-2019 07:50:00 0.1 C 95 % -0.6 C
Sensor: Nr:Datum:Temp:Feuchte:Taupunkt:
Aussen-T/F 2976 19-03-2019 07:55:00 0.2 C 95 % -0.5 C
2977 19-03-2019 08:00:00 0.2 C 95 % -0.5 C
2978 19-03-2019 08:05:00 0.1 C 95 % -0.6 C
2979 19-03-2019 08:10:00 0.1 C 95 % -0.6 C
2980 19-03-2019 08:15:00 -0.1 C 95 % -0.8 C
2981 19-03-2019 08:20:00 -0.2 C 95 % -0.9 C
2982 19-03-2019 08:25:00 -0.2 C 95 % -0.9 C
2983 19-03-2019 08:30:00 -0.2 C 95 % -0.9 C
2984 19-03-2019 08:35:00 -0.2 C 95 % -0.9 C
2985 19-03-2019 08:40:00 -0.2 C 95 % -0.9 C
2986 19-03-2019 08:45:00 -0.1 C 95 % -0.8 C
2987 19-03-2019 08:50:00 0.1 C 95 % -0.6 C
2988 19-03-2019 08:55:00 0.2 C 95 % -0.5 C
2989 19-03-2019 09:00:00 0.2 C 95 % -0.5 C
2990 19-03-2019 09:05:00 0.3 C 95 % -0.4 C
2991 19-03-2019 09:10:00 0.4 C 95 % -0.31 C
2992 19-03-2019 09:15:00 0.5 C 95 % -0.21 C
2993 19-03-2019 09:20:00 0.6 C 95 % -0.11 C
2994 19-03-2019 09:25:00 0.6 C 95 % -0.11 C
2995 19-03-2019 09:30:00 0.7 C 95 % -0.01 C
2996 19-03-2019 09:35:00 0.7 C 95 % -0.01 C
2997 19-03-2019 09:40:00 0.8 C 95 % 0.09 C
2998 19-03-2019 09:45:00 0.9 C 95 % 0.19 C
2999 19-03-2019 09:50:00 1.1 C 95 % 0.39 C
3000 19-03-2019 09:55:00 1.3 C 96 % 0.73 C
Sensor: Nr:Datum:Temp:Feuchte:Taupunkt:
Aussen-T/F 3001 19-03-2019 10:00:00 1.5 C 95 % 0.79 C
3002 19-03-2019 10:05:00 1.7 C 95 % 0.99 C
3003 19-03-2019 10:10:00 1.8 C 95 % 1.09 C
3004 19-03-2019 10:15:00 1.9 C 95 % 1.19 C
3005 19-03-2019 10:20:00 2.2 C 95 % 1.48 C
3006 19-03-2019 10:25:00 2.3 C 95 % 1.58 C
3007 19-03-2019 10:30:00 2.5 C 95 % 1.78 C
3008 19-03-2019 10:35:00 2.6 C 94 % 1.73 C
3009 19-03-2019 10:40:00 2.7 C 94 % 1.83 C
3010 19-03-2019 10:45:00 2.8 C 94 % 1.93 C
3011 19-03-2019 10:50:00 3.1 C 94 % 2.23 C
3012 19-03-2019 10:55:00 3.3 C 94 % 2.43 C
3013 19-03-2019 11:00:00 3.7 C 94 % 2.83 C
3014 19-03-2019 11:05:00 3.8 C 94 % 2.93 C
3015 19-03-2019 11:10:00 4.1 C 94 % 3.22 C
3016 19-03-2019 11:15:00 4.3 C 94 % 3.42 C
3017 19-03-2019 11:20:00 4.6 C 92 % 3.42 C
3018 19-03-2019 11:25:00 4.9 C 91 % 3.56 C
3019 19-03-2019 11:30:00 5.3 C 88 % 3.48 C
3020 19-03-2019 11:35:00 5.6 C 81 % 2.6 C
3021 19-03-2019 11:40:00 5.9 C 80 % 2.72 C
3022 19-03-2019 11:45:00 6.3 C 79 % 2.93 C
3023 19-03-2019 11:50:00 6.4 C 76 % 2.49 C
3024 19-03-2019 11:55:00 6.6 C 73 % 2.12 C
3025 19-03-2019 12:00:00 6.7 C 73 % 2.21 C
Sensor: Nr:Datum:Temp:Feuchte:Taupunkt:
Aussen-T/F 3026 19-03-2019 12:05:00 6.8 C 72 % 2.12 C
3027 19-03-2019 12:10:00 6.9 C 72 % 2.21 C
3028 19-03-2019 12:15:00 7.1 C 72 % 2.4 C
3029 19-03-2019 12:20:00 7.1 C 69 % 1.81 C
3030 19-03-2019 12:25:00 7.2 C 69 % 1.9 C
3031 19-03-2019 12:30:00 7.4 C 68 % 1.89 C
3032 19-03-2019 12:35:00 7.5 C 66 % 1.57 C
3033 19-03-2019 12:40:00 7.6 C 65 % 1.45 C
3034 19-03-2019 12:45:00 7.6 C 65 % 1.45 C
3035 19-03-2019 12:50:00 7.7 C 67 % 1.97 C
3036 19-03-2019 12:55:00 7.9 C 66 % 1.95 C
3037 19-03-2019 13:00:00 8.2 C 64 % 1.81 C
3038 19-03-2019 13:05:00 8.3 C 62 % 1.46 C
3039 19-03-2019 13:10:00 8.5 C 61 % 1.42 C
3040 19-03-2019 13:15:00 8.7 C 61 % 1.61 C
3041 19-03-2019 13:20:00 8.8 C 59 % 1.24 C
3042 19-03-2019 13:25:00 9 C 57 % 0.95 C
3043 19-03-2019 13:30:00 9.1 C 57 % 1.04 C
3044 19-03-2019 13:35:00 9.1 C 56 % 0.8 C
3045 19-03-2019 13:40:00 9.2 C 57 % 1.14 C
3046 19-03-2019 13:45:00 9.3 C 56 % 0.99 C
3047 19-03-2019 13:50:00 9.4 C 55 % 0.83 C
3048 19-03-2019 13:55:00 9.6 C 57 % 1.51 C
3049 19-03-2019 14:00:00 9.8 C 57 % 1.7 C
3050 19-03-2019 14:05:00 9.8 C 57 % 1.7 C
Sensor: Nr:Datum:Temp:Feuchte:Taupunkt:
Aussen-T/F 3051 19-03-2019 14:10:00 9.8 C 58 % 1.94 C
3052 19-03-2019 14:15:00 9.9 C 56 % 1.55 C
3053 19-03-2019 14:20:00 9.9 C 57 % 1.79 C
3054 19-03-2019 14:25:00 10 C 56 % 1.64 C
3055 19-03-2019 14:30:00 10.1 C 57 % 1.98 C
3056 19-03-2019 14:35:00 10.2 C 58 % 2.32 C
3057 19-03-2019 14:40:00 10.2 C 55 % 1.58 C
3058 19-03-2019 14:45:00 10.1 C 55 % 1.48 C
3059 19-03-2019 14:50:00 10 C 55 % 1.39 C
3060 19-03-2019 14:55:00 9.9 C 57 % 1.79 C
3061 19-03-2019 15:00:00 9.9 C 59 % 2.27 C
3062 19-03-2019 15:05:00 9.9 C 57 % 1.79 C
3063 19-03-2019 15:10:00 9.9 C 55 % 1.3 C
3064 19-03-2019 15:15:00 9.9 C 57 % 1.79 C
3065 19-03-2019 15:20:00 9.9 C 53 % 0.78 C
3066 19-03-2019 15:25:00 9.9 C 53 % 0.78 C
3067 19-03-2019 15:30:00 10.1 C 51 % 0.44 C
3068 19-03-2019 15:35:00 10.3 C 52 % 0.89 C
3069 19-03-2019 15:40:00 10.4 C 51 % 0.71 C
3070 19-03-2019 15:45:00 10.5 C 50 % 0.53 C
3071 19-03-2019 15:50:00 10.5 C 51 % 0.81 C
3072 19-03-2019 15:55:00 10.6 C 50 % 0.62 C
3073 19-03-2019 16:00:00 10.7 C 50 % 0.72 C
3074 19-03-2019 16:05:00 10.8 C 50 % 0.81 C
3075 19-03-2019 16:10:00 10.9 C 50 % 0.9 C
Sensor: Nr:Datum:Temp:Feuchte:Taupunkt:
Aussen-T/F 3076 19-03-2019 16:15:00 11.1 C 52 % 1.63 C
3077 19-03-2019 16:20:00 11.2 C 49 % 0.9 C
3078 19-03-2019 16:25:00 11.3 C 53 % 2.08 C
3079 19-03-2019 16:30:00 11.7 C 51 % 1.91 C
3080 19-03-2019 16:35:00 12 C 47 % 1.05 C
3081 19-03-2019 16:40:00 12.1 C 46 % 0.85 C
3082 19-03-2019 16:45:00 12.1 C 46 % 0.85 C
3083 19-03-2019 16:50:00 12.2 C 44 % 0.32 C
3084 19-03-2019 16:55:00 12.1 C 44 % 0.23 C
3085 19-03-2019 17:00:00 11.9 C 43 % -0.27 C
3086 19-03-2019 17:05:00 11.8 C 45 % 0.27 C
3087 19-03-2019 17:10:00 11.9 C 44 % 0.05 C
3088 19-03-2019 17:15:00 12.1 C 47 % 1.14 C
3089 19-03-2019 17:20:00 12.2 C 46 % 0.94 C
3090 19-03-2019 17:25:00 12.3 C 44 % 0.41 C
3091 19-03-2019 17:30:00 12.3 C 45 % 0.72 C
3092 19-03-2019 17:35:00 12.2 C 45 % 0.63 C
3093 19-03-2019 17:40:00 11.9 C 45 % 0.36 C
3094 19-03-2019 17:45:00 11.8 C 47 % 0.87 C
3095 19-03-2019 17:50:00 11.9 C 45 % 0.36 C
3096 19-03-2019 17:55:00 11.8 C 48 % 1.16 C
3097 19-03-2019 18:00:00 11.8 C 47 % 0.87 C
3098 19-03-2019 18:05:00 11.7 C 53 % 2.45 C
3099 19-03-2019 18:10:00 11.6 C 56 % 3.13 C
3100 19-03-2019 18:15:00 11.4 C 56 % 2.95 C
Sensor: Nr:Datum:Temp:Feuchte:Taupunkt:
Aussen-T/F 3101 19-03-2019 18:20:00 11 C 54 % 2.06 C
3102 19-03-2019 18:25:00 10.3 C 57 % 2.17 C
3103 19-03-2019 18:30:00 9.5 C 60 % 2.13 C
3104 19-03-2019 18:35:00 8.8 C 64 % 2.38 C
3105 19-03-2019 18:40:00 8.2 C 67 % 2.45 C
3106 19-03-2019 18:45:00 7.6 C 70 % 2.49 C
3107 19-03-2019 18:50:00 7.1 C 72 % 2.4 C
3108 19-03-2019 18:55:00 6.8 C 73 % 2.31 C
3109 19-03-2019 19:00:00 6.5 C 73 % 2.02 C
3110 19-03-2019 19:05:00 6.2 C 74 % 1.92 C
3111 19-03-2019 19:10:00 6.1 C 75 % 2.01 C
3112 19-03-2019 19:15:00 5.9 C 76 % 2 C
3113 19-03-2019 19:20:00 5.7 C 77 % 1.99 C
3114 19-03-2019 19:25:00 5.6 C 78 % 2.07 C
3115 19-03-2019 19:30:00 5.4 C 78 % 1.88 C
3116 19-03-2019 19:35:00 5.3 C 79 % 1.96 C
3117 19-03-2019 19:40:00 5.2 C 79 % 1.86 C
3118 19-03-2019 19:45:00 5.1 C 79 % 1.77 C
3119 19-03-2019 19:50:00 5.1 C 79 % 1.77 C
3120 19-03-2019 19:55:00 5.1 C 79 % 1.77 C
3121 19-03-2019 20:00:00 5 C 79 % 1.67 C
3122 19-03-2019 20:05:00 4.8 C 79 % 1.47 C
3123 19-03-2019 20:10:00 4.8 C 80 % 1.65 C
3124 19-03-2019 20:15:00 4.7 C 80 % 1.55 C
3125 19-03-2019 20:20:00 4.6 C 81 % 1.63 C
Sensor: Nr:Datum:Temp:Feuchte:Taupunkt:
Aussen-T/F 3126 19-03-2019 20:25:00 4.4 C 81 % 1.43 C
3127 19-03-2019 20:30:00 4.3 C 82 % 1.51 C
3128 19-03-2019 20:35:00 4.2 C 82 % 1.41 C
3129 19-03-2019 20:40:00 4.2 C 83 % 1.58 C
3130 19-03-2019 20:45:00 4.1 C 84 % 1.65 C
3131 19-03-2019 20:50:00 3.9 C 83 % 1.28 C
3132 19-03-2019 20:55:00 3.8 C 84 % 1.35 C
3133 19-03-2019 21:00:00 3.7 C 85 % 1.42 C
3134 19-03-2019 21:05:00 3.6 C 85 % 1.32 C
3135 19-03-2019 21:10:00 3.6 C 85 % 1.32 C
3136 19-03-2019 21:15:00 3.4 C 85 % 1.12 C
3137 19-03-2019 21:20:00 3.3 C 85 % 1.03 C
3138 19-03-2019 21:25:00 3.3 C 85 % 1.03 C
3139 19-03-2019 21:30:00 3.1 C 85 % 0.83 C
3140 19-03-2019 21:35:00 2.9 C 85 % 0.63 C
3141 19-03-2019 21:40:00 2.8 C 85 % 0.54 C
3142 19-03-2019 21:45:00 2.6 C 84 % 0.18 C
3143 19-03-2019 21:50:00 2.5 C 85 % 0.24 C
3144 19-03-2019 21:55:00 2.4 C 86 % 0.3 C
3145 19-03-2019 22:00:00 2.4 C 86 % 0.3 C
3146 19-03-2019 22:05:00 2.3 C 86 % 0.21 C
3147 19-03-2019 22:10:00 2.2 C 86 % 0.11 C
3148 19-03-2019 22:15:00 2.1 C 86 % 0.01 C
3149 19-03-2019 22:20:00 2.1 C 87 % 0.17 C
3150 19-03-2019 22:25:00 1.9 C 87 % -0.03 C
Sensor: Nr:Datum:Temp:Feuchte:Taupunkt:
Aussen-T/F 3151 19-03-2019 22:30:00 1.8 C 87 % -0.13 C
3152 19-03-2019 22:35:00 1.9 C 87 % -0.03 C
3153 19-03-2019 22:40:00 1.9 C 88 % 0.13 C
3154 19-03-2019 22:45:00 1.9 C 88 % 0.13 C
3155 19-03-2019 22:50:00 1.9 C 88 % 0.13 C
3156 19-03-2019 22:55:00 1.9 C 88 % 0.13 C
3157 19-03-2019 23:00:00 1.8 C 88 % 0.03 C
3158 19-03-2019 23:05:00 1.8 C 88 % 0.03 C
3159 19-03-2019 23:10:00 1.7 C 88 % -0.07 C
3160 19-03-2019 23:15:00 1.7 C 88 % -0.07 C
3161 19-03-2019 23:20:00 1.8 C 88 % 0.03 C
3162 19-03-2019 23:25:00 1.9 C 88 % 0.13 C
3163 19-03-2019 23:30:00 1.8 C 87 % -0.13 C
3164 19-03-2019 23:35:00 1.7 C 87 % -0.23 C
3165 19-03-2019 23:40:00 1.7 C 87 % -0.23 C
3166 19-03-2019 23:45:00 1.6 C 88 % -0.17 C
3167 19-03-2019 23:50:00 1.4 C 88 % -0.36 C
3168 19-03-2019 23:55:00 1.3 C 88 % -0.46 C
3169 20-03-2019 00:00:00 1.2 C 88 % -0.56 C
3170 20-03-2019 00:05:00 1.2 C 89 % -0.41 C
3171 20-03-2019 00:10:00 1.2 C 89 % -0.41 C
3172 20-03-2019 00:15:00 1.1 C 89 % -0.51 C
3173 20-03-2019 00:20:00 0.9 C 88 % -0.86 C
3174 20-03-2019 00:25:00 0.8 C 89 % -0.8 C
3175 20-03-2019 00:30:00 0.7 C 89 % -0.9 C
Sensor: Nr:Datum:Temp:Feuchte:Taupunkt:
Aussen-T/F 3176 20-03-2019 00:35:00 0.6 C 89 % -1 C
3177 20-03-2019 00:40:00 0.6 C 90 % -0.85 C
3178 20-03-2019 00:45:00 0.5 C 90 % -0.95 C
3179 20-03-2019 00:50:00 0.4 C 90 % -1.04 C
3180 20-03-2019 00:55:00 0.4 C 90 % -1.04 C
3181 20-03-2019 01:00:00 0.4 C 90 % -1.04 C
3182 20-03-2019 01:05:00 0.4 C 91 % -0.89 C
3183 20-03-2019 01:10:00 0.5 C 91 % -0.79 C
3184 20-03-2019 01:15:00 0.5 C 91 % -0.79 C
3185 20-03-2019 01:20:00 0.4 C 91 % -0.89 C
3186 20-03-2019 01:25:00 0.4 C 91 % -0.89 C
3187 20-03-2019 01:30:00 0.4 C 91 % -0.89 C
3188 20-03-2019 01:35:00 0.4 C 91 % -0.89 C
3189 20-03-2019 01:40:00 0.3 C 91 % -0.99 C
3190 20-03-2019 01:45:00 0.3 C 91 % -0.99 C
3191 20-03-2019 01:50:00 0.2 C 91 % -1.09 C
3192 20-03-2019 01:55:00 0.1 C 90 % -1.34 C
3193 20-03-2019 02:00:00 -0.1 C 91 % -1.39 C
3194 20-03-2019 02:05:00 -0.1 C 91 % -1.39 C
3195 20-03-2019 02:10:00 -0.1 C 91 % -1.39 C
3196 20-03-2019 02:15:00 0 C 92 % -1.14 C
3197 20-03-2019 02:20:00 -0.1 C 91 % -1.39 C
3198 20-03-2019 02:25:00 -0.2 C 91 % -1.49 C
3199 20-03-2019 02:30:00 -0.2 C 91 % -1.49 C
3200 20-03-2019 02:35:00 -0.3 C 91 % -1.59 C
Sensor: Nr:Datum:Temp:Feuchte:Taupunkt:
Aussen-T/F 3201 20-03-2019 02:40:00 -0.3 C 92 % -1.44 C
3202 20-03-2019 02:45:00 -0.2 C 92 % -1.34 C
3203 20-03-2019 02:50:00 -0.2 C 92 % -1.34 C
3204 20-03-2019 02:55:00 -0.2 C 92 % -1.34 C
3205 20-03-2019 03:00:00 -0.3 C 92 % -1.44 C
3206 20-03-2019 03:05:00 -0.4 C 92 % -1.54 C
3207 20-03-2019 03:10:00 -0.4 C 92 % -1.54 C
3208 20-03-2019 03:15:00 -0.4 C 92 % -1.54 C
3209 20-03-2019 03:20:00 -0.4 C 92 % -1.54 C
3210 20-03-2019 03:25:00 -0.5 C 92 % -1.64 C
3211 20-03-2019 03:30:00 -0.6 C 92 % -1.74 C
3212 20-03-2019 03:35:00 -0.7 C 92 % -1.83 C
3213 20-03-2019 03:40:00 -0.7 C 92 % -1.83 C
3214 20-03-2019 03:45:00 -0.7 C 92 % -1.83 C
3215 20-03-2019 03:50:00 -0.7 C 92 % -1.83 C
3216 20-03-2019 03:55:00 -0.8 C 92 % -1.93 C
3217 20-03-2019 04:00:00 -0.8 C 92 % -1.93 C
3218 20-03-2019 04:05:00 -0.8 C 92 % -1.93 C
3219 20-03-2019 04:10:00 -0.9 C 92 % -2.03 C
3220 20-03-2019 04:15:00 -0.9 C 93 % -1.89 C
3221 20-03-2019 04:20:00 -0.9 C 93 % -1.89 C
3222 20-03-2019 04:25:00 -0.9 C 93 % -1.89 C
3223 20-03-2019 04:30:00 -1 C 93 % -1.99 C
3224 20-03-2019 04:35:00 -1 C 93 % -1.99 C
3225 20-03-2019 04:40:00 -1 C 93 % -1.99 C
Sensor: Nr:Datum:Temp:Feuchte:Taupunkt:
Aussen-T/F 3226 20-03-2019 04:45:00 -0.9 C 93 % -1.89 C
3227 20-03-2019 04:50:00 -0.9 C 93 % -1.89 C
3228 20-03-2019 04:55:00 -0.9 C 93 % -1.89 C
3229 20-03-2019 05:00:00 -0.9 C 93 % -1.89 C
3230 20-03-2019 05:05:00 -1 C 93 % -1.99 C
3231 20-03-2019 05:10:00 -1 C 93 % -1.99 C
3232 20-03-2019 05:15:00 -1.1 C 93 % -2.09 C
3233 20-03-2019 05:20:00 -1.1 C 93 % -2.09 C
3234 20-03-2019 05:25:00 -1.2 C 93 % -2.18 C
3235 20-03-2019 05:30:00 -1.2 C 93 % -2.18 C
3236 20-03-2019 05:35:00 -1.2 C 93 % -2.18 C
3237 20-03-2019 05:40:00 -1.1 C 94 % -1.94 C
3238 20-03-2019 05:45:00 -1.1 C 93 % -2.09 C
3239 20-03-2019 05:50:00 -1.2 C 93 % -2.18 C
3240 20-03-2019 05:55:00 -1.2 C 93 % -2.18 C
3241 20-03-2019 06:00:00 -1.3 C 93 % -2.28 C
3242 20-03-2019 06:05:00 -1.3 C 93 % -2.28 C
3243 20-03-2019 06:10:00 -1.3 C 93 % -2.28 C
3244 20-03-2019 06:15:00 -1.3 C 94 % -2.14 C
3245 20-03-2019 06:20:00 -1.2 C 94 % -2.04 C
3246 20-03-2019 06:25:00 -1.1 C 94 % -1.94 C
3247 20-03-2019 06:30:00 -1.1 C 94 % -1.94 C
3248 20-03-2019 06:35:00 -1.1 C 94 % -1.94 C
3249 20-03-2019 06:40:00 -1.2 C 94 % -2.04 C
3250 20-03-2019 06:45:00 -1.2 C 94 % -2.04 C
Sensor: Nr:Datum:Temp:Feuchte:Taupunkt:
Aussen-T/F 3251 20-03-2019 06:50:00 -1.3 C 94 % -2.14 C
3252 20-03-2019 06:55:00 -1.3 C 94 % -2.14 C
3253 20-03-2019 07:00:00 -1.2 C 94 % -2.04 C
3254 20-03-2019 07:05:00 -1.2 C 94 % -2.04 C
3255 20-03-2019 07:10:00 -1.2 C 94 % -2.04 C
3256 20-03-2019 07:15:00 -1.2 C 94 % -2.04 C
3257 20-03-2019 07:20:00 -1.1 C 94 % -1.94 C
3258 20-03-2019 07:25:00 -1.1 C 94 % -1.94 C
3259 20-03-2019 07:30:00 -1.1 C 94 % -1.94 C
3260 20-03-2019 07:35:00 -1 C 94 % -1.84 C
3261 20-03-2019 07:40:00 -1.1 C 94 % -1.94 C
3262 20-03-2019 07:45:00 -1 C 94 % -1.84 C
3263 20-03-2019 07:50:00 -0.9 C 94 % -1.74 C
3264 20-03-2019 07:55:00 -0.9 C 94 % -1.74 C
3265 20-03-2019 08:00:00 -0.9 C 94 % -1.74 C
3266 20-03-2019 08:05:00 -0.9 C 94 % -1.74 C
3267 20-03-2019 08:10:00 -0.9 C 94 % -1.74 C
3268 20-03-2019 08:15:00 -0.9 C 94 % -1.74 C
3269 20-03-2019 08:20:00 -0.8 C 94 % -1.64 C
3270 20-03-2019 08:25:00 -0.8 C 94 % -1.64 C
3271 20-03-2019 08:30:00 -0.7 C 95 % -1.4 C
3272 20-03-2019 08:35:00 -0.6 C 95 % -1.3 C
3273 20-03-2019 08:40:00 -0.6 C 95 % -1.3 C
3274 20-03-2019 08:45:00 -0.4 C 95 % -1.1 C
3275 20-03-2019 08:50:00 -0.3 C 95 % -1 C
Sensor: Nr:Datum:Temp:Feuchte:Taupunkt:
Aussen-T/F 3276 20-03-2019 08:55:00 -0.3 C 95 % -1 C
3277 20-03-2019 09:00:00 -0.2 C 95 % -0.9 C
3278 20-03-2019 09:05:00 -0.1 C 95 % -0.8 C
3279 20-03-2019 09:10:00 0.1 C 95 % -0.6 C
3280 20-03-2019 09:15:00 0.2 C 95 % -0.5 C
3281 20-03-2019 09:20:00 0.3 C 95 % -0.4 C
3282 20-03-2019 09:25:00 0.4 C 95 % -0.31 C
3283 20-03-2019 09:30:00 0.6 C 95 % -0.11 C
3284 20-03-2019 09:35:00 0.7 C 95 % -0.01 C
3285 20-03-2019 09:40:00 0.8 C 95 % 0.09 C
3286 20-03-2019 09:45:00 1.1 C 95 % 0.39 C
3287 20-03-2019 09:50:00 1.3 C 95 % 0.59 C
3288 20-03-2019 09:55:00 1.7 C 95 % 0.99 C
3289 20-03-2019 10:00:00 2.1 C 95 % 1.38 C
3290 20-03-2019 10:05:00 2.6 C 95 % 1.88 C
3291 20-03-2019 10:10:00 3.1 C 94 % 2.23 C
3292 20-03-2019 10:15:00 3.4 C 94 % 2.53 C
3293 20-03-2019 10:20:00 3.8 C 93 % 2.77 C
3294 20-03-2019 10:25:00 4.1 C 92 % 2.92 C
3295 20-03-2019 10:30:00 4.3 C 90 % 2.81 C
3296 20-03-2019 10:35:00 4.7 C 89 % 3.05 C
3297 20-03-2019 10:40:00 5.1 C 87 % 3.12 C
3298 20-03-2019 10:45:00 5.6 C 86 % 3.45 C
3299 20-03-2019 10:50:00 6 C 83 % 3.34 C
3300 20-03-2019 10:55:00 6.4 C 81 % 3.38 C
Sensor: Nr:Datum:Temp:Feuchte:Taupunkt:
Aussen-T/F 3301 20-03-2019 11:00:00 6.8 C 78 % 3.24 C
3302 20-03-2019 11:05:00 7.1 C 78 % 3.53 C
3303 20-03-2019 11:10:00 7.4 C 77 % 3.64 C
3304 20-03-2019 11:15:00 7.8 C 76 % 3.84 C
3305 20-03-2019 11:20:00 8.2 C 73 % 3.66 C
3306 20-03-2019 11:25:00 8.7 C 71 % 3.74 C
3307 20-03-2019 11:30:00 9.2 C 69 % 3.82 C
3308 20-03-2019 11:35:00 9.6 C 67 % 3.78 C
3309 20-03-2019 11:40:00 10 C 64 % 3.51 C
3310 20-03-2019 11:45:00 10.3 C 61 % 3.12 C
3311 20-03-2019 11:50:00 10.6 C 59 % 2.93 C
3312 20-03-2019 11:55:00 10.8 C 59 % 3.12 C
3313 20-03-2019 12:00:00 11 C 59 % 3.31 C
3314 20-03-2019 12:05:00 11.1 C 58 % 3.16 C
3315 20-03-2019 12:10:00 11.2 C 58 % 3.25 C
3316 20-03-2019 12:15:00 11.3 C 57 % 3.1 C
3317 20-03-2019 12:20:00 11.4 C 58 % 3.44 C
3318 20-03-2019 12:25:00 11.6 C 58 % 3.63 C
3319 20-03-2019 12:30:00 11.8 C 56 % 3.32 C
3320 20-03-2019 12:35:00 11.8 C 56 % 3.32 C
3321 20-03-2019 12:40:00 12 C 56 % 3.51 C
3322 20-03-2019 12:45:00 12.1 C 53 % 2.82 C
3323 20-03-2019 12:50:00 12.1 C 54 % 3.09 C
3324 20-03-2019 12:55:00 12.2 C 56 % 3.69 C
3325 20-03-2019 13:00:00 12.3 C 54 % 3.27 C
Sensor: Nr:Datum:Temp:Feuchte:Taupunkt:
Aussen-T/F 3326 20-03-2019 13:05:00 12.6 C 54 % 3.55 C
3327 20-03-2019 13:10:00 12.8 C 55 % 4 C
3328 20-03-2019 13:15:00 13 C 51 % 3.11 C
3329 20-03-2019 13:20:00 13.2 C 49 % 2.73 C
3330 20-03-2019 13:25:00 13.2 C 50 % 3.02 C
3331 20-03-2019 13:30:00 13.2 C 46 % 1.85 C
3332 20-03-2019 13:35:00 13.3 C 44 % 1.32 C
3333 20-03-2019 13:40:00 13.4 C 46 % 2.03 C
3334 20-03-2019 13:45:00 13.6 C 45 % 1.91 C
3335 20-03-2019 13:50:00 13.6 C 43 % 1.27 C
3336 20-03-2019 13:55:00 13.7 C 43 % 1.36 C
3337 20-03-2019 14:00:00 13.8 C 43 % 1.45 C
3338 20-03-2019 14:05:00 13.8 C 47 % 2.7 C
3339 20-03-2019 14:10:00 13.8 C 48 % 2.99 C
3340 20-03-2019 14:15:00 13.8 C 45 % 2.09 C
3341 20-03-2019 14:20:00 13.8 C 47 % 2.7 C
3342 20-03-2019 14:25:00 13.8 C 47 % 2.7 C
3343 20-03-2019 14:30:00 13.8 C 46 % 2.4 C
3344 20-03-2019 14:35:00 13.8 C 47 % 2.7 C
3345 20-03-2019 14:40:00 13.8 C 46 % 2.4 C
3346 20-03-2019 14:45:00 13.7 C 48 % 2.9 C
3347 20-03-2019 14:50:00 13.6 C 46 % 2.21 C
3348 20-03-2019 14:55:00 13.6 C 47 % 2.51 C
3349 20-03-2019 15:00:00 13.5 C 48 % 2.72 C
3350 20-03-2019 15:05:00 13.6 C 47 % 2.51 C
Sensor: Nr:Datum:Temp:Feuchte:Taupunkt:
Aussen-T/F 3351 20-03-2019 15:10:00 13.6 C 48 % 2.81 C
3352 20-03-2019 15:15:00 13.6 C 48 % 2.81 C
3353 20-03-2019 15:20:00 13.6 C 47 % 2.51 C
3354 20-03-2019 15:25:00 13.6 C 47 % 2.51 C
3355 20-03-2019 15:30:00 13.6 C 48 % 2.81 C
3356 20-03-2019 15:35:00 13.6 C 47 % 2.51 C
3357 20-03-2019 15:40:00 13.7 C 48 % 2.9 C
3358 20-03-2019 15:45:00 13.7 C 49 % 3.19 C
3359 20-03-2019 15:50:00 13.8 C 47 % 2.7 C
3360 20-03-2019 15:55:00 13.8 C 47 % 2.7 C
3361 20-03-2019 16:00:00 13.8 C 48 % 2.99 C
3362 20-03-2019 16:05:00 13.8 C 47 % 2.7 C
3363 20-03-2019 16:10:00 13.9 C 48 % 3.08 C
3364 20-03-2019 16:15:00 14 C 49 % 3.47 C
3365 20-03-2019 16:20:00 14 C 48 % 3.18 C
3366 20-03-2019 16:25:00 14.1 C 49 % 3.56 C
3367 20-03-2019 16:30:00 14.1 C 49 % 3.56 C
3368 20-03-2019 16:35:00 14.3 C 49 % 3.74 C
3369 20-03-2019 16:40:00 14.4 C 48 % 3.54 C
3370 20-03-2019 16:45:00 14.4 C 48 % 3.54 C
3371 20-03-2019 16:50:00 14.3 C 47 % 3.15 C
3372 20-03-2019 16:55:00 14.3 C 49 % 3.74 C
3373 20-03-2019 17:00:00 14.6 C 49 % 4.02 C
3374 20-03-2019 17:05:00 14.9 C 49 % 4.29 C
3375 20-03-2019 17:10:00 15 C 46 % 3.49 C
Sensor: Nr:Datum:Temp:Feuchte:Taupunkt:
Aussen-T/F 3376 20-03-2019 17:15:00 14.9 C 46 % 3.4 C
3377 20-03-2019 17:20:00 14.8 C 46 % 3.31 C
3378 20-03-2019 17:25:00 14.7 C 47 % 3.52 C
3379 20-03-2019 17:30:00 14.7 C 47 % 3.52 C
3380 20-03-2019 17:35:00 14.8 C 48 % 3.91 C
3381 20-03-2019 17:40:00 14.8 C 54 % 5.59 C
3382 20-03-2019 17:45:00 14.9 C 53 % 5.42 C
3383 20-03-2019 17:50:00 15 C 54 % 5.78 C
3384 20-03-2019 17:55:00 14.9 C 55 % 5.95 C
3385 20-03-2019 18:00:00 14.7 C 56 % 6.02 C
3386 20-03-2019 18:05:00 14.4 C 57 % 6 C
3387 20-03-2019 18:10:00 13.7 C 58 % 5.6 C
3388 20-03-2019 18:15:00 13.1 C 59 % 5.28 C
3389 20-03-2019 18:20:00 12.6 C 61 % 5.29 C
3390 20-03-2019 18:25:00 12.1 C 64 % 5.51 C
3391 20-03-2019 18:30:00 11.5 C 65 % 5.16 C
3392 20-03-2019 18:35:00 10.9 C 66 % 4.81 C
3393 20-03-2019 18:40:00 10.4 C 67 % 4.55 C
3394 20-03-2019 18:45:00 10.1 C 68 % 4.47 C
3395 20-03-2019 18:50:00 9.7 C 69 % 4.3 C
3396 20-03-2019 18:55:00 9.4 C 70 % 4.21 C
3397 20-03-2019 19:00:00 9.3 C 71 % 4.32 C
3398 20-03-2019 19:05:00 9.1 C 71 % 4.13 C
3399 20-03-2019 19:10:00 9 C 72 % 4.23 C
3400 20-03-2019 19:15:00 8.8 C 72 % 4.04 C
Sensor: Nr:Datum:Temp:Feuchte:Taupunkt:
Aussen-T/F 3401 20-03-2019 19:20:00 8.6 C 73 % 4.04 C
3402 20-03-2019 19:25:00 8.5 C 73 % 3.95 C
3403 20-03-2019 19:30:00 8.4 C 73 % 3.85 C
3404 20-03-2019 19:35:00 8.3 C 74 % 3.95 C
3405 20-03-2019 19:40:00 8.2 C 75 % 4.04 C
3406 20-03-2019 19:45:00 8.1 C 75 % 3.94 C
3407 20-03-2019 19:50:00 7.9 C 75 % 3.75 C
3408 20-03-2019 19:55:00 7.8 C 76 % 3.84 C
3409 20-03-2019 20:00:00 7.7 C 77 % 3.93 C
3410 20-03-2019 20:05:00 7.5 C 78 % 3.92 C
3411 20-03-2019 20:10:00 7.3 C 78 % 3.73 C
3412 20-03-2019 20:15:00 7.2 C 78 % 3.63 C
3413 20-03-2019 20:20:00 7.1 C 78 % 3.53 C
3414 20-03-2019 20:25:00 7 C 79 % 3.61 C
3415 20-03-2019 20:30:00 6.8 C 79 % 3.42 C
3416 20-03-2019 20:35:00 6.6 C 79 % 3.23 C
3417 20-03-2019 20:40:00 6.4 C 80 % 3.21 C
3418 20-03-2019 20:45:00 6.3 C 81 % 3.29 C
3419 20-03-2019 20:50:00 6.2 C 82 % 3.36 C
3420 20-03-2019 20:55:00 6.1 C 82 % 3.26 C
3421 20-03-2019 21:00:00 6 C 82 % 3.17 C
3422 20-03-2019 21:05:00 5.8 C 83 % 3.14 C
3423 20-03-2019 21:10:00 5.7 C 84 % 3.21 C
3424 20-03-2019 21:15:00 5.5 C 83 % 2.85 C
3425 20-03-2019 21:20:00 5.4 C 83 % 2.75 C
Sensor: Nr:Datum:Temp:Feuchte:Taupunkt:
Aussen-T/F 3426 20-03-2019 21:25:00 5.4 C 83 % 2.75 C
3427 20-03-2019 21:30:00 5.4 C 83 % 2.75 C
3428 20-03-2019 21:35:00 5.3 C 83 % 2.65 C
3429 20-03-2019 21:40:00 5.3 C 84 % 2.82 C
3430 20-03-2019 21:45:00 5.2 C 85 % 2.89 C
3431 20-03-2019 21:50:00 5.1 C 85 % 2.79 C
3432 20-03-2019 21:55:00 5.1 C 86 % 2.96 C
3433 20-03-2019 22:00:00 5 C 85 % 2.69 C
3434 20-03-2019 22:05:00 4.9 C 85 % 2.6 C
3435 20-03-2019 22:10:00 4.8 C 85 % 2.5 C
3436 20-03-2019 22:15:00 4.8 C 85 % 2.5 C
3437 20-03-2019 22:20:00 4.8 C 86 % 2.66 C
3438 20-03-2019 22:25:00 4.8 C 86 % 2.66 C
3439 20-03-2019 22:30:00 4.8 C 86 % 2.66 C
3440 20-03-2019 22:35:00 4.7 C 85 % 2.4 C
3441 20-03-2019 22:40:00 4.6 C 86 % 2.47 C
3442 20-03-2019 22:45:00 4.6 C 86 % 2.47 C
3443 20-03-2019 22:50:00 4.6 C 86 % 2.47 C
3444 20-03-2019 22:55:00 4.3 C 85 % 2.01 C
3445 20-03-2019 23:00:00 4.2 C 86 % 2.07 C
3446 20-03-2019 23:05:00 4.1 C 86 % 1.97 C
3447 20-03-2019 23:10:00 3.9 C 87 % 1.94 C
3448 20-03-2019 23:15:00 3.9 C 87 % 1.94 C
3449 20-03-2019 23:20:00 3.8 C 87 % 1.84 C
3450 20-03-2019 23:25:00 3.8 C 88 % 2 C
Sensor: Nr:Datum:Temp:Feuchte:Taupunkt:
Aussen-T/F 3451 20-03-2019 23:30:00 3.8 C 88 % 2 C
3452 20-03-2019 23:35:00 3.8 C 88 % 2 C
3453 20-03-2019 23:40:00 3.7 C 88 % 1.9 C
3454 20-03-2019 23:45:00 3.7 C 88 % 1.9 C
3455 20-03-2019 23:50:00 3.6 C 88 % 1.8 C
3456 20-03-2019 23:55:00 3.5 C 88 % 1.7 C
3457 21-03-2019 00:00:00 3.4 C 88 % 1.61 C
3458 21-03-2019 00:05:00 3.5 C 89 % 1.86 C
3459 21-03-2019 00:10:00 3.5 C 89 % 1.86 C
3460 21-03-2019 00:15:00 3.4 C 88 % 1.61 C
3461 21-03-2019 00:20:00 3.3 C 88 % 1.51 C
3462 21-03-2019 00:25:00 3.3 C 88 % 1.51 C
3463 21-03-2019 00:30:00 3.3 C 89 % 1.67 C
3464 21-03-2019 00:35:00 3.3 C 89 % 1.67 C
3465 21-03-2019 00:40:00 3.2 C 89 % 1.57 C
3466 21-03-2019 00:45:00 3.2 C 89 % 1.57 C
3467 21-03-2019 00:50:00 3.2 C 89 % 1.57 C
3468 21-03-2019 00:55:00 3.2 C 89 % 1.57 C
3469 21-03-2019 01:00:00 3.1 C 88 % 1.31 C
3470 21-03-2019 01:05:00 2.9 C 88 % 1.11 C
3471 21-03-2019 01:10:00 2.8 C 89 % 1.17 C
3472 21-03-2019 01:15:00 2.7 C 88 % 0.92 C
3473 21-03-2019 01:20:00 2.6 C 89 % 0.97 C
3474 21-03-2019 01:25:00 2.6 C 89 % 0.97 C
3475 21-03-2019 01:30:00 2.4 C 89 % 0.78 C
Sensor: Nr:Datum:Temp:Feuchte:Taupunkt:
Aussen-T/F 3476 21-03-2019 01:35:00 2.4 C 90 % 0.93 C
3477 21-03-2019 01:40:00 2.3 C 89 % 0.68 C
3478 21-03-2019 01:45:00 2.3 C 90 % 0.83 C
3479 21-03-2019 01:50:00 2.3 C 90 % 0.83 C
3480 21-03-2019 01:55:00 2.2 C 90 % 0.73 C
3481 21-03-2019 02:00:00 2 C 90 % 0.54 C
3482 21-03-2019 02:05:00 1.9 C 90 % 0.44 C
3483 21-03-2019 02:10:00 1.8 C 90 % 0.34 C
3484 21-03-2019 02:15:00 1.8 C 91 % 0.49 C
3485 21-03-2019 02:20:00 1.8 C 91 % 0.49 C
3486 21-03-2019 02:25:00 1.8 C 91 % 0.49 C
3487 21-03-2019 02:30:00 1.8 C 91 % 0.49 C
3488 21-03-2019 02:35:00 1.9 C 92 % 0.74 C
3489 21-03-2019 02:40:00 1.9 C 92 % 0.74 C
3490 21-03-2019 02:45:00 1.8 C 91 % 0.49 C
3491 21-03-2019 02:50:00 1.7 C 91 % 0.39 C
3492 21-03-2019 02:55:00 1.6 C 91 % 0.29 C
3493 21-03-2019 03:00:00 1.6 C 91 % 0.29 C
3494 21-03-2019 03:05:00 1.5 C 91 % 0.19 C
3495 21-03-2019 03:10:00 1.5 C 92 % 0.35 C
3496 21-03-2019 03:15:00 1.4 C 92 % 0.25 C
3497 21-03-2019 03:20:00 1.4 C 92 % 0.25 C
3498 21-03-2019 03:25:00 1.3 C 92 % 0.15 C
3499 21-03-2019 03:30:00 1.2 C 92 % 0.05 C
3500 21-03-2019 03:35:00 1.2 C 92 % 0.05 C
Sensor: Nr:Datum:Temp:Feuchte:Taupunkt:
Aussen-T/F 3501 21-03-2019 03:40:00 1.2 C 92 % 0.05 C
3502 21-03-2019 03:45:00 1.2 C 92 % 0.05 C
3503 21-03-2019 03:50:00 1.1 C 92 % -0.05 C
3504 21-03-2019 03:55:00 1.1 C 92 % -0.05 C
3505 21-03-2019 04:00:00 1.1 C 93 % 0.1 C
3506 21-03-2019 04:05:00 1 C 93 % 0 C
3507 21-03-2019 04:10:00 0.9 C 92 % -0.25 C
3508 21-03-2019 04:15:00 0.9 C 93 % -0.1 C
3509 21-03-2019 04:20:00 0.9 C 93 % -0.1 C
3510 21-03-2019 04:25:00 1 C 93 % 0 C
3511 21-03-2019 04:30:00 1.1 C 93 % 0.1 C
3512 21-03-2019 04:35:00 1.2 C 93 % 0.2 C
3513 21-03-2019 04:40:00 1.2 C 93 % 0.2 C
3514 21-03-2019 04:45:00 1.1 C 93 % 0.1 C
3515 21-03-2019 04:50:00 0.8 C 92 % -0.35 C
3516 21-03-2019 04:55:00 0.7 C 93 % -0.3 C
3517 21-03-2019 05:00:00 0.7 C 93 % -0.3 C
3518 21-03-2019 05:05:00 0.7 C 93 % -0.3 C
3519 21-03-2019 05:10:00 0.6 C 93 % -0.4 C
3520 21-03-2019 05:15:00 0.6 C 93 % -0.4 C
3521 21-03-2019 05:20:00 0.7 C 94 % -0.15 C
3522 21-03-2019 05:25:00 0.7 C 94 % -0.15 C
3523 21-03-2019 05:30:00 0.8 C 94 % -0.05 C
3524 21-03-2019 05:35:00 0.7 C 94 % -0.15 C
3525 21-03-2019 05:40:00 0.6 C 93 % -0.4 C
Sensor: Nr:Datum:Temp:Feuchte:Taupunkt:
Aussen-T/F 3526 21-03-2019 05:45:00 0.5 C 93 % -0.5 C
3527 21-03-2019 05:50:00 0.4 C 93 % -0.6 C
3528 21-03-2019 05:55:00 0.4 C 93 % -0.6 C
3529 21-03-2019 06:00:00 0.3 C 93 % -0.7 C
3530 21-03-2019 06:05:00 0.3 C 94 % -0.55 C
3531 21-03-2019 06:10:00 0.3 C 94 % -0.55 C
3532 21-03-2019 06:15:00 0.5 C 94 % -0.35 C
3533 21-03-2019 06:20:00 0.5 C 94 % -0.35 C
3534 21-03-2019 06:25:00 0.4 C 94 % -0.45 C
3535 21-03-2019 06:30:00 0.4 C 94 % -0.45 C
3536 21-03-2019 06:35:00 0.3 C 94 % -0.55 C
3537 21-03-2019 06:40:00 0.3 C 94 % -0.55 C
3538 21-03-2019 06:45:00 0.2 C 94 % -0.65 C
3539 21-03-2019 06:50:00 0.2 C 94 % -0.65 C
3540 21-03-2019 06:55:00 0.3 C 94 % -0.55 C
3541 21-03-2019 07:00:00 0.3 C 94 % -0.55 C
3542 21-03-2019 07:05:00 0.3 C 94 % -0.55 C
3543 21-03-2019 07:10:00 0.3 C 94 % -0.55 C
3544 21-03-2019 07:15:00 0.3 C 94 % -0.55 C
3545 21-03-2019 07:20:00 0.4 C 94 % -0.45 C
3546 21-03-2019 07:25:00 0.7 C 95 % -0.01 C
3547 21-03-2019 07:30:00 0.8 C 95 % 0.09 C
3548 21-03-2019 07:35:00 0.8 C 95 % 0.09 C
3549 21-03-2019 07:40:00 0.8 C 95 % 0.09 C
3550 21-03-2019 07:45:00 0.8 C 94 % -0.05 C
Sensor: Nr:Datum:Temp:Feuchte:Taupunkt:
Aussen-T/F 3551 21-03-2019 07:50:00 0.8 C 94 % -0.05 C
3552 21-03-2019 07:55:00 0.9 C 94 % 0.05 C
3553 21-03-2019 08:00:00 0.9 C 94 % 0.05 C
3554 21-03-2019 08:05:00 0.9 C 95 % 0.19 C
3555 21-03-2019 08:10:00 1 C 95 % 0.29 C
3556 21-03-2019 08:15:00 1.1 C 95 % 0.39 C
3557 21-03-2019 08:20:00 1.1 C 95 % 0.39 C
3558 21-03-2019 08:25:00 1.2 C 95 % 0.49 C
3559 21-03-2019 08:30:00 1.3 C 95 % 0.59 C
3560 21-03-2019 08:35:00 1.3 C 95 % 0.59 C
3561 21-03-2019 08:40:00 1.4 C 95 % 0.69 C
3562 21-03-2019 08:45:00 1.4 C 95 % 0.69 C
3563 21-03-2019 08:50:00 1.6 C 95 % 0.89 C
3564 21-03-2019 08:55:00 1.7 C 95 % 0.99 C
3565 21-03-2019 09:00:00 1.8 C 95 % 1.09 C
3566 21-03-2019 09:05:00 1.8 C 95 % 1.09 C
3567 21-03-2019 09:10:00 1.9 C 95 % 1.19 C
3568 21-03-2019 09:15:00 2.1 C 95 % 1.38 C
3569 21-03-2019 09:20:00 2.2 C 95 % 1.48 C
3570 21-03-2019 09:25:00 2.3 C 95 % 1.58 C
3571 21-03-2019 09:30:00 2.5 C 95 % 1.78 C
3572 21-03-2019 09:35:00 2.6 C 95 % 1.88 C
3573 21-03-2019 09:40:00 2.8 C 95 % 2.08 C
3574 21-03-2019 09:45:00 3.1 C 95 % 2.38 C
3575 21-03-2019 09:50:00 3.3 C 95 % 2.58 C
Sensor: Nr:Datum:Temp:Feuchte:Taupunkt:
Aussen-T/F 3576 21-03-2019 09:55:00 3.7 C 95 % 2.98 C
3577 21-03-2019 10:00:00 4 C 95 % 3.27 C
3578 21-03-2019 10:05:00 4.3 C 95 % 3.57 C
3579 21-03-2019 10:10:00 4.6 C 94 % 3.72 C
3580 21-03-2019 10:15:00 4.8 C 93 % 3.77 C
3581 21-03-2019 10:20:00 5.1 C 92 % 3.91 C
3582 21-03-2019 10:25:00 5.4 C 91 % 4.05 C
3583 21-03-2019 10:30:00 5.7 C 90 % 4.19 C
3584 21-03-2019 10:35:00 5.9 C 89 % 4.23 C
3585 21-03-2019 10:40:00 6.2 C 88 % 4.36 C
3586 21-03-2019 10:45:00 6.5 C 87 % 4.5 C
3587 21-03-2019 10:50:00 6.8 C 86 % 4.63 C
3588 21-03-2019 10:55:00 7.2 C 85 % 4.85 C
3589 21-03-2019 11:00:00 7.4 C 85 % 5.05 C
3590 21-03-2019 11:05:00 7.7 C 84 % 5.17 C
3591 21-03-2019 11:10:00 8.1 C 82 % 5.22 C
3592 21-03-2019 11:15:00 8.5 C 82 % 5.61 C
3593 21-03-2019 11:20:00 8.8 C 79 % 5.36 C
3594 21-03-2019 11:25:00 9.2 C 80 % 5.94 C
3595 21-03-2019 11:30:00 9.4 C 75 % 5.2 C
3596 21-03-2019 11:35:00 9.7 C 74 % 5.3 C
3597 21-03-2019 11:40:00 10.1 C 70 % 4.89 C
3598 21-03-2019 11:45:00 10.4 C 69 % 4.97 C
3599 21-03-2019 11:50:00 10.8 C 65 % 4.49 C
3600 21-03-2019 11:55:00 11.2 C 62 % 4.2 C
Sensor: Nr:Datum:Temp:Feuchte:Taupunkt:
Aussen-T/F 3601 21-03-2019 12:00:00 11.6 C 61 % 4.35 C
3602 21-03-2019 12:05:00 11.9 C 60 % 4.39 C
3603 21-03-2019 12:10:00 12.1 C 57 % 3.85 C
3604 21-03-2019 12:15:00 12.4 C 57 % 4.13 C
3605 21-03-2019 12:20:00 12.7 C 56 % 4.16 C
3606 21-03-2019 12:25:00 13 C 56 % 4.44 C
3607 21-03-2019 12:30:00 13.2 C 54 % 4.11 C
3608 21-03-2019 12:35:00 13.4 C 56 % 4.81 C
3609 21-03-2019 12:40:00 13.6 C 48 % 2.81 C
3610 21-03-2019 12:45:00 13.8 C 50 % 3.57 C
3611 21-03-2019 12:50:00 14 C 46 % 2.58 C
3612 21-03-2019 12:55:00 14.2 C 46 % 2.76 C
3613 21-03-2019 13:00:00 14.4 C 47 % 3.25 C
3614 21-03-2019 13:05:00 14.8 C 44 % 2.68 C
3615 21-03-2019 13:10:00 15.1 C 45 % 3.27 C
3616 21-03-2019 13:15:00 15.2 C 44 % 3.04 C
3617 21-03-2019 13:20:00 15.3 C 46 % 3.76 C
3618 21-03-2019 13:25:00 15.4 C 43 % 2.9 C
3619 21-03-2019 13:30:00 15.4 C 43 % 2.9 C
3620 21-03-2019 13:35:00 15.6 C 43 % 3.08 C
3621 21-03-2019 13:40:00 15.8 C 41 % 2.59 C
3622 21-03-2019 13:45:00 15.9 C 43 % 3.35 C
3623 21-03-2019 13:50:00 16.1 C 42 % 3.2 C
3624 21-03-2019 13:55:00 16.2 C 41 % 2.95 C
3625 21-03-2019 14:00:00 16.2 C 39 % 2.25 C
Sensor: Nr:Datum:Temp:Feuchte:Taupunkt:
Aussen-T/F 3626 21-03-2019 14:05:00 16.3 C 39 % 2.34 C
3627 21-03-2019 14:10:00 16.3 C 39 % 2.34 C
3628 21-03-2019 14:15:00 16.3 C 41 % 3.04 C
3629 21-03-2019 14:20:00 16.3 C 40 % 2.69 C
3630 21-03-2019 14:25:00 16.3 C 38 % 1.97 C
3631 21-03-2019 14:30:00 16.2 C 39 % 2.25 C
3632 21-03-2019 14:35:00 16.3 C 39 % 2.34 C
3633 21-03-2019 14:40:00 16.2 C 39 % 2.25 C
3634 21-03-2019 14:45:00 16.2 C 39 % 2.25 C
3635 21-03-2019 14:50:00 16.1 C 41 % 2.86 C
3636 21-03-2019 14:55:00 16.1 C 40 % 2.51 C
3637 21-03-2019 15:00:00 16.1 C 39 % 2.16 C
3638 21-03-2019 15:05:00 16.2 C 39 % 2.25 C
3639 21-03-2019 15:10:00 16.3 C 40 % 2.69 C
3640 21-03-2019 15:15:00 16.3 C 39 % 2.34 C
3641 21-03-2019 15:20:00 16.3 C 40 % 2.69 C
3642 21-03-2019 15:25:00 16.3 C 39 % 2.34 C
3643 21-03-2019 15:30:00 16.4 C 39 % 2.43 C
3644 21-03-2019 15:35:00 16.6 C 39 % 2.6 C
3645 21-03-2019 15:40:00 16.6 C 39 % 2.6 C
3646 21-03-2019 15:45:00 16.6 C 38 % 2.24 C
3647 21-03-2019 15:50:00 16.7 C 38 % 2.33 C
3648 21-03-2019 15:55:00 16.8 C 39 % 2.78 C
3649 21-03-2019 16:00:00 16.9 C 38 % 2.51 C
3650 21-03-2019 16:05:00 17.2 C 39 % 3.14 C
Sensor: Nr:Datum:Temp:Feuchte:Taupunkt:
Aussen-T/F 3651 21-03-2019 16:10:00 17.3 C 38 % 2.86 C
3652 21-03-2019 16:15:00 17.3 C 39 % 3.23 C
3653 21-03-2019 16:20:00 17.4 C 38 % 2.95 C
3654 21-03-2019 16:25:00 17.6 C 38 % 3.13 C
3655 21-03-2019 16:30:00 17.7 C 37 % 2.84 C
3656 21-03-2019 16:35:00 17.8 C 37 % 2.93 C
3657 21-03-2019 16:40:00 17.9 C 37 % 3.02 C
3658 21-03-2019 16:45:00 18.1 C 38 % 3.57 C
3659 21-03-2019 16:50:00 18.1 C 37 % 3.2 C
3660 21-03-2019 16:55:00 18.2 C 37 % 3.29 C
3661 21-03-2019 17:00:00 18.2 C 36 % 2.9 C
3662 21-03-2019 17:05:00 18.2 C 36 % 2.9 C
3663 21-03-2019 17:10:00 18.2 C 36 % 2.9 C
3664 21-03-2019 17:15:00 18.3 C 35 % 2.59 C
3665 21-03-2019 17:20:00 18.2 C 37 % 3.29 C
3666 21-03-2019 17:25:00 18.1 C 36 % 2.81 C
3667 21-03-2019 17:30:00 18 C 37 % 3.11 C
3668 21-03-2019 17:35:00 17.9 C 37 % 3.02 C
3669 21-03-2019 17:40:00 17.9 C 38 % 3.4 C
3670 21-03-2019 17:45:00 17.8 C 42 % 4.73 C
3671 21-03-2019 17:50:00 17.8 C 44 % 5.4 C
3672 21-03-2019 17:55:00 17.6 C 42 % 4.55 C
3673 21-03-2019 18:00:00 17.4 C 46 % 5.67 C
3674 21-03-2019 18:05:00 17.1 C 47 % 5.71 C
3675 21-03-2019 18:10:00 16.6 C 48 % 5.56 C
Sensor: Nr:Datum:Temp:Feuchte:Taupunkt:
Aussen-T/F 3676 21-03-2019 18:15:00 16 C 50 % 5.59 C
3677 21-03-2019 18:20:00 15.3 C 51 % 5.23 C
3678 21-03-2019 18:25:00 14.8 C 52 % 5.05 C
3679 21-03-2019 18:30:00 14.2 C 54 % 5.04 C
3680 21-03-2019 18:35:00 13.7 C 55 % 4.83 C
3681 21-03-2019 18:40:00 13.3 C 56 % 4.72 C
3682 21-03-2019 18:45:00 12.9 C 57 % 4.6 C
3683 21-03-2019 18:50:00 12.6 C 57 % 4.32 C
3684 21-03-2019 18:55:00 12.3 C 59 % 4.53 C
3685 21-03-2019 19:00:00 12.1 C 59 % 4.34 C
3686 21-03-2019 19:05:00 11.9 C 60 % 4.39 C
3687 21-03-2019 19:10:00 11.7 C 61 % 4.44 C
3688 21-03-2019 19:15:00 11.4 C 62 % 4.39 C
3689 21-03-2019 19:20:00 11.2 C 63 % 4.43 C
3690 21-03-2019 19:25:00 10.9 C 64 % 4.37 C
3691 21-03-2019 19:30:00 10.8 C 66 % 4.71 C
3692 21-03-2019 19:35:00 10.6 C 66 % 4.52 C
3693 21-03-2019 19:40:00 10.4 C 66 % 4.33 C
3694 21-03-2019 19:45:00 10.3 C 67 % 4.45 C
3695 21-03-2019 19:50:00 10.2 C 68 % 4.57 C
3696 21-03-2019 19:55:00 10.1 C 69 % 4.68 C
3697 21-03-2019 20:00:00 9.8 C 69 % 4.39 C
3698 21-03-2019 20:05:00 9.7 C 70 % 4.5 C
3699 21-03-2019 20:10:00 9.6 C 70 % 4.41 C
3700 21-03-2019 20:15:00 9.4 C 72 % 4.62 C
Sensor: Nr:Datum:Temp:Feuchte:Taupunkt:
Aussen-T/F 3701 21-03-2019 20:20:00 9.3 C 72 % 4.52 C
3702 21-03-2019 20:25:00 9.2 C 72 % 4.42 C
3703 21-03-2019 20:30:00 9.2 C 72 % 4.42 C
3704 21-03-2019 20:35:00 9.1 C 72 % 4.33 C
3705 21-03-2019 20:40:00 9 C 73 % 4.43 C
3706 21-03-2019 20:45:00 8.8 C 72 % 4.04 C
3707 21-03-2019 20:50:00 8.8 C 73 % 4.24 C
3708 21-03-2019 20:55:00 8.6 C 74 % 4.24 C
3709 21-03-2019 21:00:00 8.4 C 74 % 4.04 C
3710 21-03-2019 21:05:00 8.3 C 74 % 3.95 C
3711 21-03-2019 21:10:00 8.2 C 74 % 3.85 C
3712 21-03-2019 21:15:00 8.1 C 74 % 3.75 C
3713 21-03-2019 21:20:00 7.8 C 73 % 3.27 C
3714 21-03-2019 21:25:00 7.7 C 74 % 3.37 C
3715 21-03-2019 21:30:00 7.6 C 73 % 3.08 C
3716 21-03-2019 21:35:00 7.6 C 73 % 3.08 C
3717 21-03-2019 21:40:00 7.3 C 75 % 3.17 C
3718 21-03-2019 21:45:00 7.2 C 77 % 3.45 C
3719 21-03-2019 21:50:00 6.9 C 78 % 3.34 C
3720 21-03-2019 21:55:00 6.7 C 79 % 3.32 C
3721 21-03-2019 22:00:00 6.5 C 78 % 2.95 C
3722 21-03-2019 22:05:00 6.5 C 78 % 2.95 C
3723 21-03-2019 22:10:00 6.6 C 78 % 3.05 C
3724 21-03-2019 22:15:00 6.6 C 76 % 2.68 C
3725 21-03-2019 22:20:00 6.6 C 76 % 2.68 C
Sensor: Nr:Datum:Temp:Feuchte:Taupunkt:
Aussen-T/F 3726 21-03-2019 22:25:00 6.4 C 77 % 2.67 C
3727 21-03-2019 22:30:00 6.1 C 78 % 2.56 C
3728 21-03-2019 22:35:00 5.8 C 79 % 2.45 C
3729 21-03-2019 22:40:00 5.7 C 81 % 2.7 C
3730 21-03-2019 22:45:00 5.7 C 81 % 2.7 C
3731 21-03-2019 22:50:00 5.7 C 81 % 2.7 C
3732 21-03-2019 22:55:00 5.7 C 81 % 2.7 C
3733 21-03-2019 23:00:00 5.6 C 81 % 2.6 C
3734 21-03-2019 23:05:00 5.6 C 81 % 2.6 C
3735 21-03-2019 23:10:00 5.6 C 81 % 2.6 C
3736 21-03-2019 23:15:00 5.4 C 81 % 2.41 C
3737 21-03-2019 23:20:00 5.4 C 81 % 2.41 C
3738 21-03-2019 23:25:00 5.3 C 82 % 2.48 C
3739 21-03-2019 23:30:00 5.2 C 82 % 2.39 C
3740 21-03-2019 23:35:00 5.1 C 83 % 2.46 C
3741 21-03-2019 23:40:00 5.1 C 83 % 2.46 C
3742 21-03-2019 23:45:00 5 C 83 % 2.36 C
3743 21-03-2019 23:50:00 5 C 83 % 2.36 C
3744 21-03-2019 23:55:00 4.9 C 83 % 2.26 C
3745 22-03-2019 00:00:00 4.8 C 83 % 2.16 C
3746 22-03-2019 00:05:00 4.7 C 84 % 2.23 C
3747 22-03-2019 00:10:00 4.7 C 84 % 2.23 C
3748 22-03-2019 00:15:00 4.7 C 84 % 2.23 C
3749 22-03-2019 00:20:00 4.6 C 84 % 2.14 C
3750 22-03-2019 00:25:00 4.4 C 85 % 2.11 C
Sensor: Nr:Datum:Temp:Feuchte:Taupunkt:
Aussen-T/F 3751 22-03-2019 00:30:00 4.3 C 85 % 2.01 C
3752 22-03-2019 00:35:00 4.3 C 85 % 2.01 C
3753 22-03-2019 00:40:00 4.2 C 85 % 1.91 C
3754 22-03-2019 00:45:00 4.1 C 86 % 1.97 C
3755 22-03-2019 00:50:00 4.2 C 86 % 2.07 C
3756 22-03-2019 00:55:00 4.1 C 86 % 1.97 C
3757 22-03-2019 01:00:00 4 C 86 % 1.88 C
3758 22-03-2019 01:05:00 4 C 86 % 1.88 C
3759 22-03-2019 01:10:00 3.9 C 86 % 1.78 C
3760 22-03-2019 01:15:00 3.8 C 86 % 1.68 C
3761 22-03-2019 01:20:00 3.7 C 87 % 1.74 C
3762 22-03-2019 01:25:00 3.6 C 88 % 1.8 C
3763 22-03-2019 01:30:00 3.7 C 88 % 1.9 C
3764 22-03-2019 01:35:00 3.6 C 88 % 1.8 C
3765 22-03-2019 01:40:00 3.6 C 88 % 1.8 C
3766 22-03-2019 01:45:00 3.6 C 88 % 1.8 C
3767 22-03-2019 01:50:00 3.4 C 88 % 1.61 C
3768 22-03-2019 01:55:00 3.4 C 88 % 1.61 C
3769 22-03-2019 02:00:00 3.4 C 88 % 1.61 C
3770 22-03-2019 02:05:00 3.4 C 88 % 1.61 C
3771 22-03-2019 02:10:00 3.3 C 88 % 1.51 C
3772 22-03-2019 02:15:00 3.2 C 88 % 1.41 C
3773 22-03-2019 02:20:00 3.2 C 88 % 1.41 C
3774 22-03-2019 02:25:00 3.1 C 88 % 1.31 C
3775 22-03-2019 02:30:00 3 C 88 % 1.21 C
Sensor: Nr:Datum:Temp:Feuchte:Taupunkt:
Aussen-T/F 3776 22-03-2019 02:35:00 2.9 C 88 % 1.11 C
3777 22-03-2019 02:40:00 2.8 C 89 % 1.17 C
3778 22-03-2019 02:45:00 2.7 C 89 % 1.07 C
3779 22-03-2019 02:50:00 2.7 C 89 % 1.07 C
3780 22-03-2019 02:55:00 2.7 C 90 % 1.23 C
3781 22-03-2019 03:00:00 2.7 C 90 % 1.23 C
3782 22-03-2019 03:05:00 2.6 C 89 % 0.97 C
3783 22-03-2019 03:10:00 2.4 C 89 % 0.78 C
3784 22-03-2019 03:15:00 2.3 C 89 % 0.68 C
3785 22-03-2019 03:20:00 2.2 C 90 % 0.73 C
3786 22-03-2019 03:25:00 2.2 C 91 % 0.89 C
3787 22-03-2019 03:30:00 2.3 C 91 % 0.99 C
3788 22-03-2019 03:35:00 2.2 C 90 % 0.73 C
3789 22-03-2019 03:40:00 2.1 C 90 % 0.64 C
3790 22-03-2019 03:45:00 1.9 C 90 % 0.44 C
3791 22-03-2019 03:50:00 1.8 C 91 % 0.49 C
3792 22-03-2019 03:55:00 1.8 C 91 % 0.49 C
3793 22-03-2019 04:00:00 1.9 C 92 % 0.74 C
3794 22-03-2019 04:05:00 1.9 C 91 % 0.59 C
3795 22-03-2019 04:10:00 1.9 C 92 % 0.74 C
3796 22-03-2019 04:15:00 1.8 C 91 % 0.49 C
3797 22-03-2019 04:20:00 1.8 C 92 % 0.64 C
3798 22-03-2019 04:25:00 1.7 C 92 % 0.54 C
3799 22-03-2019 04:30:00 1.7 C 92 % 0.54 C
3800 22-03-2019 04:35:00 1.7 C 92 % 0.54 C
Sensor: Nr:Datum:Temp:Feuchte:Taupunkt:
Aussen-T/F 3801 22-03-2019 04:40:00 1.6 C 92 % 0.44 C
3802 22-03-2019 04:45:00 1.6 C 92 % 0.44 C
3803 22-03-2019 04:50:00 1.6 C 93 % 0.59 C
3804 22-03-2019 04:55:00 1.7 C 93 % 0.69 C
3805 22-03-2019 05:00:00 1.7 C 93 % 0.69 C
3806 22-03-2019 05:05:00 1.8 C 93 % 0.79 C
3807 22-03-2019 05:10:00 1.7 C 92 % 0.54 C
3808 22-03-2019 05:15:00 1.6 C 93 % 0.59 C
3809 22-03-2019 05:20:00 1.7 C 93 % 0.69 C
3810 22-03-2019 05:25:00 1.6 C 93 % 0.59 C
3811 22-03-2019 05:30:00 1.6 C 93 % 0.59 C
3812 22-03-2019 05:35:00 1.5 C 93 % 0.49 C
3813 22-03-2019 05:40:00 1.4 C 93 % 0.4 C
3814 22-03-2019 05:45:00 1.3 C 93 % 0.3 C
3815 22-03-2019 05:50:00 1.3 C 93 % 0.3 C
3816 22-03-2019 05:55:00 1.2 C 93 % 0.2 C
3817 22-03-2019 06:00:00 1.3 C 93 % 0.3 C
3818 22-03-2019 06:05:00 1.3 C 93 % 0.3 C
3819 22-03-2019 06:10:00 1.3 C 93 % 0.3 C
3820 22-03-2019 06:15:00 1.3 C 93 % 0.3 C
3821 22-03-2019 06:20:00 1.2 C 93 % 0.2 C
3822 22-03-2019 06:25:00 1.1 C 93 % 0.1 C
3823 22-03-2019 06:30:00 1 C 93 % 0 C
3824 22-03-2019 06:35:00 0.8 C 93 % -0.2 C
3825 22-03-2019 06:40:00 0.8 C 93 % -0.2 C
Sensor: Nr:Datum:Temp:Feuchte:Taupunkt:
Aussen-T/F 3826 22-03-2019 06:45:00 0.8 C 93 % -0.2 C
3827 22-03-2019 06:50:00 0.9 C 94 % 0.05 C
3828 22-03-2019 06:55:00 1 C 94 % 0.15 C
3829 22-03-2019 07:00:00 1.2 C 94 % 0.34 C
3830 22-03-2019 07:05:00 1.2 C 94 % 0.34 C
3831 22-03-2019 07:10:00 1.2 C 94 % 0.34 C
3832 22-03-2019 07:15:00 1.2 C 94 % 0.34 C
3833 22-03-2019 07:20:00 1.3 C 94 % 0.44 C
3834 22-03-2019 07:25:00 1.3 C 94 % 0.44 C
3835 22-03-2019 07:30:00 1.2 C 94 % 0.34 C
3836 22-03-2019 07:35:00 1.2 C 94 % 0.34 C
3837 22-03-2019 07:40:00 1.2 C 94 % 0.34 C
3838 22-03-2019 07:45:00 1.3 C 94 % 0.44 C
3839 22-03-2019 07:50:00 1.3 C 94 % 0.44 C
3840 22-03-2019 07:55:00 1.3 C 94 % 0.44 C
3841 22-03-2019 08:00:00 1.4 C 94 % 0.54 C
3842 22-03-2019 08:05:00 1.5 C 95 % 0.79 C
3843 22-03-2019 08:10:00 1.7 C 95 % 0.99 C
3844 22-03-2019 08:15:00 1.7 C 95 % 0.99 C
3845 22-03-2019 08:20:00 1.8 C 95 % 1.09 C
3846 22-03-2019 08:25:00 1.9 C 95 % 1.19 C
3847 22-03-2019 08:30:00 1.9 C 95 % 1.19 C
3848 22-03-2019 08:35:00 2.1 C 95 % 1.38 C
3849 22-03-2019 08:40:00 2.2 C 95 % 1.48 C
3850 22-03-2019 08:45:00 2.3 C 95 % 1.58 C
Sensor: Nr:Datum:Temp:Feuchte:Taupunkt:
Aussen-T/F 3851 22-03-2019 08:50:00 2.4 C 95 % 1.68 C
3852 22-03-2019 08:55:00 2.6 C 95 % 1.88 C
3853 22-03-2019 09:00:00 2.7 C 95 % 1.98 C
3854 22-03-2019 09:05:00 2.8 C 95 % 2.08 C
3855 22-03-2019 09:10:00 2.9 C 95 % 2.18 C
3856 22-03-2019 09:15:00 3.1 C 95 % 2.38 C
3857 22-03-2019 09:20:00 3.3 C 95 % 2.58 C
3858 22-03-2019 09:25:00 3.5 C 96 % 2.92 C
3859 22-03-2019 09:30:00 3.7 C 95 % 2.98 C
3860 22-03-2019 09:35:00 3.9 C 96 % 3.32 C
3861 22-03-2019 09:40:00 4.2 C 96 % 3.62 C
3862 22-03-2019 09:45:00 4.5 C 95 % 3.77 C
3863 22-03-2019 09:50:00 4.8 C 96 % 4.22 C
3864 22-03-2019 09:55:00 5.1 C 95 % 4.37 C
3865 22-03-2019 10:00:00 5.4 C 94 % 4.51 C
3866 22-03-2019 10:05:00 5.7 C 94 % 4.81 C
3867 22-03-2019 10:10:00 6 C 93 % 4.96 C
3868 22-03-2019 10:15:00 6.3 C 92 % 5.1 C
3869 22-03-2019 10:20:00 6.5 C 92 % 5.3 C
3870 22-03-2019 10:25:00 6.8 C 91 % 5.44 C
3871 22-03-2019 10:30:00 7.1 C 90 % 5.57 C
3872 22-03-2019 10:35:00 7.4 C 90 % 5.87 C
3873 22-03-2019 10:40:00 7.8 C 89 % 6.1 C
3874 22-03-2019 10:45:00 8.2 C 88 % 6.33 C
3875 22-03-2019 10:50:00 8.6 C 86 % 6.39 C
Sensor: Nr:Datum:Temp:Feuchte:Taupunkt:
Aussen-T/F 3876 22-03-2019 10:55:00 9 C 83 % 6.27 C
3877 22-03-2019 11:00:00 9.4 C 82 % 6.49 C
3878 22-03-2019 11:05:00 9.8 C 81 % 6.7 C
3879 22-03-2019 11:10:00 10.3 C 78 % 6.64 C
3880 22-03-2019 11:15:00 10.9 C 75 % 6.65 C
3881 22-03-2019 11:20:00 11.3 C 74 % 6.84 C
3882 22-03-2019 11:25:00 11.7 C 72 % 6.83 C
3883 22-03-2019 11:30:00 12.1 C 71 % 7.01 C
3884 22-03-2019 11:35:00 12.4 C 70 % 7.09 C
3885 22-03-2019 11:40:00 12.7 C 70 % 7.38 C
3886 22-03-2019 11:45:00 13 C 68 % 7.24 C
3887 22-03-2019 11:50:00 13.3 C 68 % 7.53 C
3888 22-03-2019 11:55:00 13.6 C 66 % 7.38 C
3889 22-03-2019 12:00:00 13.9 C 62 % 6.75 C
3890 22-03-2019 12:05:00 14.3 C 62 % 7.13 C
3891 22-03-2019 12:10:00 14.6 C 60 % 6.93 C
3892